Air Quality Table

TIMESTAMP NO2 SO2 O3 PM10 PM2.5 CO TEMP HUM AIRPRES WS WD NO BENZENE
2023-02-08 14:00 16.44 µg/m3 1.24 µg/m3 0 µg/m3 9.6 µg/m3 7.55 µg/m3 0.26 mg/m3 11.2 °C 73.11 % 1,020.90 mbar 8.77 m/s 51.67 Deg 18.75 µg/m3 2.57 µg/m3
2023-02-08 13:00 14.83 µg/m3 1.35 µg/m3 0 µg/m3 23.38 µg/m3 10.19 µg/m3 0.28 mg/m3 11.42 °C 69.52 % 1,021.87 mbar 8.99 m/s 53.93 Deg 17.36 µg/m3 2.62 µg/m3
2023-02-08 12:00 18.83 µg/m3 1.26 µg/m3 0 µg/m3 54.72 µg/m3 17.08 µg/m3 0.29 mg/m3 11.41 °C 69.08 % 1,022.74 mbar 8.46 m/s 60.05 Deg 18.92 µg/m3 2.57 µg/m3
2023-02-08 11:00 14.69 µg/m3 1.23 µg/m3 0 µg/m3 19.95 µg/m3 8.7 µg/m3 0.26 mg/m3 11.24 °C 69.12 % 1,023.56 mbar 8.27 m/s 58.97 Deg 19.31 µg/m3 2.47 µg/m3
2023-02-08 10:00 18.05 µg/m3 1.3 µg/m3 0 µg/m3 8.8 µg/m3 6.79 µg/m3 0.29 mg/m3 10.99 °C 71.03 % 1,023.93 mbar 7.64 m/s 59.32 Deg 20.33 µg/m3 2.94 µg/m3
2023-02-08 09:00 16.97 µg/m3 1.32 µg/m3 0 µg/m3 9.93 µg/m3 7.51 µg/m3 0.3 mg/m3 11.25 °C 70.52 % 1,023.77 mbar 6.95 m/s 61.25 Deg 22.58 µg/m3 2.73 µg/m3
2023-02-08 08:00 23.88 µg/m3 1.37 µg/m3 0 µg/m3 12.2 µg/m3 7.21 µg/m3 0.33 mg/m3 11.39 °C 66.41 % 1,023.76 mbar 6.48 m/s 64.47 Deg 25.73 µg/m3 2.89 µg/m3
2023-02-08 07:00 16.4 µg/m3 1.25 µg/m3 0 µg/m3 7.75 µg/m3 5.9 µg/m3 0.29 mg/m3 11.1 °C 66.95 % 1,023.94 mbar 5.95 m/s 65.8 Deg 19.14 µg/m3 2.15 µg/m3
2023-02-08 06:00 2.69 µg/m3 1.06 µg/m3 0 µg/m3 6.78 µg/m3 5.55 µg/m3 0.23 mg/m3 10.72 °C 70.36 % 1,023.61 mbar 6.93 m/s 61.95 Deg 6.72 µg/m3 1.89 µg/m3
2023-02-08 05:00 3.72 µg/m3 1.02 µg/m3 0 µg/m3 7.29 µg/m3 5.77 µg/m3 0.2 mg/m3 10.72 °C 70.64 % 1,024.05 mbar 6.53 m/s 59.15 Deg 0.91 µg/m3 1.89 µg/m3
2023-02-08 04:00 2.71 µg/m3 1.04 µg/m3 0 µg/m3 7.22 µg/m3 5.8 µg/m3 0.19 mg/m3 10.53 °C 71.52 % 1,025.09 mbar 5.82 m/s 58.27 Deg 0.85 µg/m3 1.94 µg/m3
2023-02-08 03:00 3.25 µg/m3 1.09 µg/m3 0 µg/m3 6.75 µg/m3 5.34 µg/m3 0.21 mg/m3 10.46 °C 70.84 % 1,025.55 mbar 6.3 m/s 50.33 Deg 0.37 µg/m3 1.89 µg/m3
2023-02-08 02:00 2.42 µg/m3 1.03 µg/m3 0 µg/m3 7.81 µg/m3 5.88 µg/m3 0.2 mg/m3 10.64 °C 64.44 % 1,026.04 mbar 4.6 m/s 64.12 Deg 0.88 µg/m3 1.89 µg/m3
2023-02-08 01:00 2.75 µg/m3 1.09 µg/m3 0 µg/m3 7.82 µg/m3 6.23 µg/m3 0.18 mg/m3 10.29 °C 64.9 % 1,026.28 mbar 4.78 m/s 65.88 Deg 3.16 µg/m3 2.05 µg/m3
2023-02-08 00:00 4.12 µg/m3 1.11 µg/m3 0 µg/m3 7.75 µg/m3 6.28 µg/m3 0.21 mg/m3 9.84 °C 69.97 % 1,026.70 mbar 4.88 m/s 61.73 Deg 3.98 µg/m3 2.05 µg/m3
2023-02-07 23:00 7.71 µg/m3 1.1 µg/m3 0 µg/m3 8.68 µg/m3 6.86 µg/m3 0.22 mg/m3 10.2 °C 68.14 % 1,026.88 mbar 4.83 m/s 61.75 Deg 5.88 µg/m3 2.05 µg/m3
2023-02-07 22:00 6.38 µg/m3 1.18 µg/m3 0 µg/m3 9.13 µg/m3 7.08 µg/m3 0.2 mg/m3 10.28 °C 65.61 % 1,026.89 mbar 5.31 m/s 61.13 Deg 8 µg/m3 2.1 µg/m3
2023-02-07 21:00 12.35 µg/m3 1.2 µg/m3 0 µg/m3 12.03 µg/m3 7.82 µg/m3 0.22 mg/m3 10.26 °C 64.34 % 1,026.97 mbar 5.33 m/s 59.2 Deg 11.72 µg/m3 2.31 µg/m3
2023-02-07 20:00 14 µg/m3 1.28 µg/m3 0 µg/m3 22.93 µg/m3 10.44 µg/m3 0.25 mg/m3 10.54 °C 62.63 % 1,026.94 mbar 4.98 m/s 58.85 Deg 14.53 µg/m3 2.68 µg/m3
2023-02-07 19:00 17.99 µg/m3 1.38 µg/m3 0 µg/m3 37.92 µg/m3 12.6 µg/m3 0.28 mg/m3 10.6 °C 62.73 % 1,026.53 mbar 5.57 m/s 55.48 Deg 18.24 µg/m3 3.31 µg/m3
2023-02-07 18:00 28.53 µg/m3 1.6 µg/m3 0 µg/m3 40.32 µg/m3 12.42 µg/m3 0.37 mg/m3 10.63 °C 63.02 % 1,026.24 mbar 4.81 m/s 63.42 Deg 29.14 µg/m3 3.62 µg/m3
2023-02-07 17:00 27.87 µg/m3 1.57 µg/m3 0 µg/m3 11.26 µg/m3 8.03 µg/m3 0.39 mg/m3 10.49 °C 65.32 % 1,026.13 mbar 4.82 m/s 60.6 Deg 30.9 µg/m3 3.83 µg/m3
2023-02-07 16:00 27.2 µg/m3 1.81 µg/m3 0 µg/m3 27.13 µg/m3 11.11 µg/m3 0.36 mg/m3 10.57 °C 65.19 % 1,026.04 mbar 4.97 m/s 61.17 Deg 31.74 µg/m3 3.1 µg/m3
2023-02-07 15:00 22.72 µg/m3 1.67 µg/m3 0 µg/m3 28.6 µg/m3 11.42 µg/m3 0.37 mg/m3 10.47 °C 67.04 % 1,026.05 mbar 5.3 m/s 60.92 Deg 34.91 µg/m3 2.78 µg/m3
2023-02-07 14:00 27.11 µg/m3 1.6 µg/m3 0 µg/m3 27.67 µg/m3 10.69 µg/m3 0.34 mg/m3 10.56 °C 67.16 % 1,026.18 mbar 5.42 m/s 56.82 Deg 29.53 µg/m3 2.47 µg/m3
2023-02-07 13:00 19.61 µg/m3 1.67 µg/m3 0 µg/m3 31.03 µg/m3 11.29 µg/m3 0.31 mg/m3 10.49 °C 70.46 % 1,026.78 mbar 5.45 m/s 50.43 Deg 27.77 µg/m3 2.89 µg/m3
2023-02-07 12:00 31.12 µg/m3 1.68 µg/m3 0 µg/m3 24.35 µg/m3 9.91 µg/m3 0.37 mg/m3 10.53 °C 69.31 % 1,027.29 mbar 4.3 m/s 59.7 Deg 32.25 µg/m3 2.94 µg/m3
2023-02-07 11:00 28.97 µg/m3 1.86 µg/m3 0 µg/m3 37.77 µg/m3 12.58 µg/m3 0.35 mg/m3 10.91 °C 63.31 % 1,027.21 mbar 3.84 m/s 65.68 Deg 42.53 µg/m3 3.57 µg/m3
2023-02-07 10:00 46.27 µg/m3 2.01 µg/m3 0 µg/m3 80.29 µg/m3 19.69 µg/m3 0.42 mg/m3 11.05 °C 58.75 % 1,026.89 mbar 2.69 m/s 69.33 Deg 47.99 µg/m3 3.99 µg/m3
2023-02-07 09:00 44.76 µg/m3 2 µg/m3 0 µg/m3 30.54 µg/m3 10.83 µg/m3 0.44 mg/m3 11.08 °C 54.59 % 1,026.52 mbar 1.96 m/s 67.02 Deg 45.46 µg/m3 4.51 µg/m3
2023-02-07 08:00 56 µg/m3 2.3 µg/m3 0 µg/m3 45.35 µg/m3 13.73 µg/m3 0.51 mg/m3 10.92 °C 53.63 % 1,026.27 mbar 1.72 m/s 68.65 Deg 58.93 µg/m3 4.15 µg/m3
2023-02-07 07:00 37.78 µg/m3 1.69 µg/m3 0 µg/m3 31.13 µg/m3 11.21 µg/m3 0.4 mg/m3 10.78 °C 54.1 % 1,025.90 mbar 1.83 m/s 76.25 Deg 35.13 µg/m3 2.41 µg/m3
2023-02-07 06:00 24.79 µg/m3 1.36 µg/m3 0 µg/m3 25.31 µg/m3 8.8 µg/m3 0.26 mg/m3 10.65 °C 56.17 % 1,025.52 mbar 1.69 m/s 63.32 Deg 11.75 µg/m3 1.89 µg/m3
2023-02-07 05:00 0.36 µg/m3 1.32 µg/m3 0 µg/m3 12.33 µg/m3 5.32 µg/m3 0.16 mg/m3 10.59 °C 55.33 % 1,025.39 mbar 1.16 m/s 118.55 Deg 16.72 µg/m3 1.36 µg/m3
2023-02-07 04:00 8.07 µg/m3 1.19 µg/m3 0 µg/m3 10.21 µg/m3 5.03 µg/m3 0.15 mg/m3 10.63 °C 54.47 % 1,025.44 mbar 1.1 m/s 125.97 Deg 1.82 µg/m3 1.57 µg/m3
2023-02-07 03:00 8.48 µg/m3 1.19 µg/m3 0 µg/m3 9.41 µg/m3 4.98 µg/m3 0.18 mg/m3 10.61 °C 53.95 % 1,025.45 mbar 1.69 m/s 66.9 Deg 0.65 µg/m3 1.68 µg/m3
2023-02-07 02:00 9.91 µg/m3 1.23 µg/m3 0 µg/m3 17.12 µg/m3 6.21 µg/m3 0.19 mg/m3 10.56 °C 51.82 % 1,025.50 mbar 1.44 m/s 68.43 Deg 5.32 µg/m3 1.52 µg/m3
2023-02-07 01:00 14.43 µg/m3 1.23 µg/m3 0 µg/m3 12.18 µg/m3 5.69 µg/m3 0.18 mg/m3 10.5 °C 51.82 % 1,025.44 mbar 1.4 m/s 129.22 Deg 3.3 µg/m3 1.99 µg/m3
2023-02-07 00:00 29.14 µg/m3 1.32 µg/m3 0 µg/m3 17.78 µg/m3 7.91 µg/m3 0.23 mg/m3 10.42 °C 52.55 % 1,025.52 mbar 1 m/s 182.72 Deg 5.94 µg/m3 2.68 µg/m3
2023-02-06 23:00 42.81 µg/m3 1.35 µg/m3 0 µg/m3 27.4 µg/m3 12.57 µg/m3 0.29 mg/m3 10.34 °C 52.31 % 1,025.35 mbar 0.77 m/s 182.73 Deg 3.87 µg/m3 3.2 µg/m3
2023-02-06 22:00 49.25 µg/m3 1.48 µg/m3 0 µg/m3 33.74 µg/m3 13.94 µg/m3 0.36 mg/m3 10.29 °C 50.12 % 1,025.02 mbar 0.53 m/s 187.42 Deg 8.91 µg/m3 3.78 µg/m3
2023-02-06 21:00 65.25 µg/m3 1.8 µg/m3 0 µg/m3 49.75 µg/m3 18.92 µg/m3 0.45 mg/m3 9.9 °C 50.23 % 1,025.09 mbar 0.92 m/s 238.6 Deg 16.96 µg/m3 3.25 µg/m3
2023-02-06 20:00 40.76 µg/m3 1.58 µg/m3 0 µg/m3 36.44 µg/m3 12.69 µg/m3 0.38 mg/m3 10.31 °C 47.71 % 1,024.98 mbar 0.69 m/s 163.7 Deg 14.27 µg/m3 4.51 µg/m3
2023-02-06 19:00 38.54 µg/m3 1.98 µg/m3 0 µg/m3 48.94 µg/m3 13.57 µg/m3 0.49 mg/m3 10.01 °C 46.77 % 1,024.68 mbar 1.39 m/s 64.07 Deg 50.58 µg/m3 4.67 µg/m3
2023-02-06 18:00 47.31 µg/m3 2.33 µg/m3 0 µg/m3 80.59 µg/m3 17.87 µg/m3 0.57 mg/m3 9.99 °C 48.04 % 1,024.29 mbar 1.49 m/s 59.82 Deg 59.31 µg/m3 4.15 µg/m3
2023-02-06 17:00 32.83 µg/m3 1.92 µg/m3 0 µg/m3 44.48 µg/m3 11.79 µg/m3 0.39 mg/m3 10.33 °C 47.69 % 1,023.92 mbar 1.97 m/s 48.88 Deg 34.11 µg/m3 3.2 µg/m3
2023-02-06 16:00 27.83 µg/m3 1.71 µg/m3 0 µg/m3 34.49 µg/m3 10.51 µg/m3 0.33 mg/m3 10.28 °C 45.99 % 1,023.93 mbar 2.86 m/s 52.45 Deg 36.46 µg/m3 2.78 µg/m3
2023-02-06 15:00 28.32 µg/m3 2.14 µg/m3 0 µg/m3 34.47 µg/m3 10.62 µg/m3 0.31 mg/m3 10.26 °C 45.5 % 1,024.28 mbar 2.63 m/s 50.07 Deg 34.4 µg/m3 2.47 µg/m3
2023-02-06 14:00 26.62 µg/m3 1.58 µg/m3 0 µg/m3 32.25 µg/m3 9.44 µg/m3 0.3 mg/m3 10.32 °C 46.62 % 1,024.82 mbar 2.91 m/s 42.32 Deg 26.25 µg/m3 2.36 µg/m3
2023-02-06 13:00 20.01 µg/m3 1.67 µg/m3 0 µg/m3 35.2 µg/m3 10.15 µg/m3 0.29 mg/m3 10.36 °C 47 % 1,025.38 mbar 2.87 m/s 42.55 Deg 30.06 µg/m3 2.36 µg/m3
2023-02-06 12:00 16.34 µg/m3 1.49 µg/m3 0 µg/m3 39.8 µg/m3 10.24 µg/m3 0.28 mg/m3 10.35 °C 46.61 % 1,026.15 mbar 3.36 m/s 39.5 Deg 31 µg/m3 2.94 µg/m3
2023-02-06 11:00 35.86 µg/m3 1.73 µg/m3 0 µg/m3 55.74 µg/m3 12.6 µg/m3 0.33 mg/m3 10.58 °C 47.49 % 1,026.18 mbar 2.16 m/s 47.12 Deg 35.72 µg/m3 2.41 µg/m3
2023-02-06 10:00 28.29 µg/m3 1.73 µg/m3 0 µg/m3 51.75 µg/m3 11.67 µg/m3 0.29 mg/m3 10.29 °C 43.6 % 1,025.66 mbar 2.11 m/s 44.05 Deg 34.15 µg/m3 3.31 µg/m3
2023-02-06 09:00 31.22 µg/m3 1.62 µg/m3 0 µg/m3 43.27 µg/m3 10.28 µg/m3 0.38 mg/m3 9.92 °C 44.07 % 1,025.22 mbar 1.88 m/s 28.6 Deg 32.59 µg/m3 3.41 µg/m3
2023-02-06 08:00 44.67 µg/m3 1.74 µg/m3 0 µg/m3 39.24 µg/m3 9.33 µg/m3 0.36 mg/m3 9.3 °C 42.27 % 1,025.04 mbar 1.32 m/s 248.7 Deg 26.28 µg/m3 2.47 µg/m3
2023-02-06 07:00 29.67 µg/m3 1.34 µg/m3 0 µg/m3 29.58 µg/m3 8.4 µg/m3 0.25 mg/m3 9.18 °C 43.99 % 1,024.58 mbar 1.35 m/s 175.57 Deg 16.43 µg/m3 1.63 µg/m3
2023-02-06 06:00 16.66 µg/m3 1.11 µg/m3 0 µg/m3 17.54 µg/m3 5.99 µg/m3 0.18 mg/m3 9.31 °C 45.41 % 1,024.52 mbar 1.52 m/s 331.37 Deg 3.89 µg/m3 1 µg/m3
2023-02-06 05:00 5.22 µg/m3 1.02 µg/m3 0 µg/m3 10.8 µg/m3 4.76 µg/m3 0.11 mg/m3 9.23 °C 44.08 % 1,024.41 mbar 1.2 m/s 231.87 Deg 0.48 µg/m3 1 µg/m3
2023-02-06 04:00 2.92 µg/m3 1.04 µg/m3 0 µg/m3 10.31 µg/m3 4.51 µg/m3 0.1 mg/m3 9.41 °C 42.44 % 1,024.48 mbar 1.5 m/s 317.98 Deg 0.98 µg/m3 1 µg/m3
2023-02-06 03:00 2.09 µg/m3 1.01 µg/m3 0 µg/m3 10.6 µg/m3 4.6 µg/m3 0.12 mg/m3 9.55 °C 43.78 % 1,024.73 mbar 1.58 m/s 311.22 Deg -0.02 µg/m3 1 µg/m3
2023-02-06 02:00 3.93 µg/m3 0.99 µg/m3 0 µg/m3 11.53 µg/m3 5.11 µg/m3 0.12 mg/m3 9.73 °C 44.31 % 1,024.87 mbar 1.66 m/s 308.2 Deg 0.2 µg/m3 1.21 µg/m3
2023-02-06 01:00 6.6 µg/m3 1.09 µg/m3 0 µg/m3 14.25 µg/m3 5.68 µg/m3 0.16 mg/m3 10.01 °C 44.18 % 1,024.80 mbar 1.37 m/s 301.85 Deg 0.76 µg/m3 1.26 µg/m3
2023-02-06 00:00 8.17 µg/m3 0.98 µg/m3 0 µg/m3 14.3 µg/m3 5.97 µg/m3 0.16 mg/m3 10.16 °C 42.18 % 1,024.72 mbar 1.77 m/s 301.2 Deg 0.98 µg/m3 1.36 µg/m3
2023-02-05 23:00 9.47 µg/m3 0.99 µg/m3 0 µg/m3 15.89 µg/m3 5.89 µg/m3 0.17 mg/m3 10.31 °C 40.07 % 1,024.46 mbar 1.8 m/s 320.53 Deg 1.47 µg/m3 1.36 µg/m3
2023-02-05 22:00 8.15 µg/m3 1.07 µg/m3 0 µg/m3 17.33 µg/m3 6.52 µg/m3 0.15 mg/m3 10.71 °C 36.6 % 1,024.23 mbar 2.33 m/s 324.2 Deg 2.65 µg/m3 1.63 µg/m3
2023-02-05 21:00 12.46 µg/m3 1.16 µg/m3 0 µg/m3 20.47 µg/m3 8.48 µg/m3 0.18 mg/m3 11.43 °C 39.75 % 1,024.02 mbar 2.14 m/s 317.98 Deg 3.37 µg/m3 2.15 µg/m3
2023-02-05 20:00 16.04 µg/m3 1.14 µg/m3 0 µg/m3 21.12 µg/m3 8.43 µg/m3 0.2 mg/m3 12.09 °C 39.65 % 1,023.81 mbar 2.38 m/s 313.52 Deg 3.3 µg/m3 2.1 µg/m3
2023-02-05 19:00 19.33 µg/m3 1.24 µg/m3 0 µg/m3 24.11 µg/m3 9.52 µg/m3 0.21 mg/m3 12.57 °C 37.28 % 1,023.39 mbar 2.27 m/s 308.57 Deg 3.82 µg/m3 1.78 µg/m3
2023-02-05 18:00 14.41 µg/m3 1.17 µg/m3 0 µg/m3 21.42 µg/m3 9.06 µg/m3 0.2 mg/m3 13.05 °C 38.79 % 1,022.83 mbar 3.15 m/s 305.93 Deg 2.23 µg/m3 2.1 µg/m3
2023-02-05 17:00 11.01 µg/m3 1.04 µg/m3 0 µg/m3 19.38 µg/m3 7.52 µg/m3 0.23 mg/m3 13.74 °C 37.94 % 1,022.37 mbar 3.43 m/s 306.88 Deg 2.7 µg/m3 1.73 µg/m3
2023-02-05 16:00 10.84 µg/m3 0.99 µg/m3 0 µg/m3 19.38 µg/m3 7.75 µg/m3 0.19 mg/m3 14.25 °C 39.3 % 1,022.05 mbar 3.67 m/s 306.6 Deg 2.16 µg/m3 1.73 µg/m3
2023-02-05 15:00 10.05 µg/m3 0.99 µg/m3 0 µg/m3 23.83 µg/m3 7.84 µg/m3 0.2 mg/m3 14.65 °C 38 % 1,021.83 mbar 3.17 m/s 312.55 Deg 4.4 µg/m3 1.57 µg/m3
2023-02-05 14:00 10.76 µg/m3 0.94 µg/m3 0 µg/m3 17.78 µg/m3 6.55 µg/m3 0.18 mg/m3 14.79 °C 37.67 % 1,021.81 mbar 3.27 m/s 304.48 Deg 3.15 µg/m3 1.78 µg/m3
2023-02-05 13:00 11.26 µg/m3 0.96 µg/m3 0 µg/m3 19.09 µg/m3 5.99 µg/m3 0.19 mg/m3 14.87 °C 40.66 % 1,022.03 mbar 2.98 m/s 312.2 Deg 5.09 µg/m3 2.2 µg/m3
2023-02-05 12:00 11.91 µg/m3 0.97 µg/m3 0 µg/m3 39.52 µg/m3 9.45 µg/m3 0.25 mg/m3 14.64 °C 41.97 % 1,022.40 mbar 2.21 m/s 178.23 Deg 10.6 µg/m3 2.1 µg/m3
2023-02-05 11:00 17.72 µg/m3 0.96 µg/m3 0 µg/m3 63.49 µg/m3 11.5 µg/m3 0.22 mg/m3 14.62 °C 43.01 % 1,022.43 mbar 1.9 m/s 336.23 Deg 8.38 µg/m3 2.26 µg/m3
2023-02-05 10:00 17.1 µg/m3 1.08 µg/m3 0 µg/m3 35.8 µg/m3 8.8 µg/m3 0.25 mg/m3 14.38 °C 53.44 % 1,022.19 mbar 1.65 m/s 179.1 Deg 8.48 µg/m3 2.26 µg/m3
2023-02-05 09:00 17.09 µg/m3 1.07 µg/m3 0 µg/m3 15.95 µg/m3 9.05 µg/m3 0.31 mg/m3 13.88 °C 72.97 % 1,021.64 mbar 1.9 m/s 31.6 Deg 10.67 µg/m3 2.31 µg/m3
2023-02-05 08:00 15.83 µg/m3 1.01 µg/m3 0 µg/m3 14.65 µg/m3 9.1 µg/m3 0.31 mg/m3 13.97 °C 73.48 % 1,021.22 mbar 1.73 m/s 31.55 Deg 5.59 µg/m3 2.05 µg/m3
2023-02-05 07:00 15.25 µg/m3 1.03 µg/m3 0 µg/m3 15.69 µg/m3 10.56 µg/m3 0.25 mg/m3 13.95 °C 73.66 % 1,020.75 mbar 1.88 m/s 37.95 Deg 8.83 µg/m3 3.83 µg/m3
2023-02-05 06:00 47.74 µg/m3 1.57 µg/m3 0 µg/m3 20.94 µg/m3 14.01 µg/m3 0.5 mg/m3 12.27 °C 79.87 % 1,020.22 mbar 0.61 m/s 186.47 Deg 23.73 µg/m3 4.88 µg/m3
2023-02-05 05:00 42.16 µg/m3 1.35 µg/m3 0 µg/m3 21.72 µg/m3 14.56 µg/m3 0.42 mg/m3 11.59 °C 81.37 % 1,019.91 mbar 0.66 m/s 240.52 Deg 14.43 µg/m3 3.83 µg/m3
2023-02-05 04:00 44.01 µg/m3 1.26 µg/m3 0 µg/m3 22.67 µg/m3 15.18 µg/m3 0.41 mg/m3 12.04 °C 78.29 % 1,019.75 mbar 0.59 m/s 241.47 Deg 7.81 µg/m3 2.99 µg/m3
2023-02-05 03:00 36.44 µg/m3 0.98 µg/m3 0 µg/m3 20.92 µg/m3 14.03 µg/m3 0.34 mg/m3 12.19 °C 76.06 % 1,019.97 mbar 0.24 m/s 228.17 Deg 3.22 µg/m3 3.1 µg/m3
2023-02-05 02:00 38.47 µg/m3 1.1 µg/m3 0 µg/m3 18.28 µg/m3 12.23 µg/m3 0.38 mg/m3 12.85 °C 72.22 % 1,020.11 mbar 0.79 m/s 229.63 Deg 4.63 µg/m3 2.31 µg/m3
2023-02-05 01:00 24.14 µg/m3 1.07 µg/m3 0 µg/m3 29.63 µg/m3 11.97 µg/m3 0.34 mg/m3 13.55 °C 69.48 % 1,020.13 mbar 0.97 m/s 256.2 Deg 0.87 µg/m3 2.05 µg/m3
2023-02-05 00:00 17.19 µg/m3 1.15 µg/m3 0 µg/m3 24.51 µg/m3 12.1 µg/m3 0.28 mg/m3 14.11 °C 68.61 % 1,020.39 mbar 1.68 m/s 262.17 Deg 1.3 µg/m3 1.78 µg/m3
2023-02-04 23:00 20.98 µg/m3 0.96 µg/m3 0 µg/m3 26.13 µg/m3 11.34 µg/m3 0.32 mg/m3 14.1 °C 68.07 % 1,020.43 mbar 1.53 m/s 259.08 Deg 2 µg/m3 1.94 µg/m3
2023-02-04 22:00 20.98 µg/m3 1.18 µg/m3 0 µg/m3 27.64 µg/m3 12.7 µg/m3 0.31 mg/m3 13.89 °C 67.62 % 1,020.15 mbar 1.69 m/s 266.98 Deg 2.19 µg/m3 2.15 µg/m3
2023-02-04 21:00 21.14 µg/m3 1.86 µg/m3 0 µg/m3 36.92 µg/m3 19.19 µg/m3 0.33 mg/m3 14.02 °C 68.65 % 1,019.61 mbar 1.78 m/s 252.5 Deg 2.76 µg/m3 2.47 µg/m3
2023-02-04 20:00 24.29 µg/m3 1.14 µg/m3 0 µg/m3 30.94 µg/m3 14.03 µg/m3 0.35 mg/m3 13.92 °C 68.63 % 1,019.52 mbar 1.7 m/s 253.4 Deg 2.63 µg/m3 2.31 µg/m3
2023-02-04 19:00 29.26 µg/m3 1.08 µg/m3 0 µg/m3 29.13 µg/m3 12.22 µg/m3 0.37 mg/m3 13.86 °C 68.23 % 1,019.49 mbar 1.9 m/s 253.5 Deg 3.98 µg/m3 2.31 µg/m3
2023-02-04 18:00 25.73 µg/m3 1.45 µg/m3 0 µg/m3 29.66 µg/m3 14.28 µg/m3 0.32 mg/m3 14.27 °C 67.41 % 1,019.51 mbar 2.53 m/s 265.75 Deg 4.77 µg/m3 1.89 µg/m3
2023-02-04 17:00 22.34 µg/m3 1.31 µg/m3 0 µg/m3 27.36 µg/m3 12.62 µg/m3 0.27 mg/m3 14.78 °C 66.46 % 1,019.66 mbar 2.94 m/s 262.07 Deg 3.34 µg/m3 1.84 µg/m3
2023-02-04 16:00 19.25 µg/m3 1.25 µg/m3 0 µg/m3 22.86 µg/m3 9.88 µg/m3 0.26 mg/m3 15.06 °C 65.33 % 1,019.56 mbar 3.52 m/s 260.72 Deg 3.63 µg/m3 1.99 µg/m3
2023-02-04 15:00 17.44 µg/m3 1.17 µg/m3 0 µg/m3 22.38 µg/m3 8.96 µg/m3 0.27 mg/m3 15.44 °C 63.53 % 1,019.45 mbar 3.4 m/s 265.93 Deg 4.83 µg/m3 1.94 µg/m3
2023-02-04 14:00 17.31 µg/m3 1.22 µg/m3 0 µg/m3 31.95 µg/m3 10.27 µg/m3 0.27 mg/m3 15.51 °C 63.27 % 1,020.22 mbar 3.4 m/s 266.02 Deg 4.62 µg/m3 1.89 µg/m3
2023-02-04 13:00 19.32 µg/m3 1.16 µg/m3 0 µg/m3 40.96 µg/m3 10.82 µg/m3 0.26 mg/m3 15.58 °C 63.27 % 1,020.91 mbar 3.54 m/s 256.18 Deg 5.59 µg/m3 2.15 µg/m3
2023-02-04 12:00 22.03 µg/m3 1.17 µg/m3 0 µg/m3 30.13 µg/m3 8.83 µg/m3 0.28 mg/m3 15.54 °C 63.25 % 1,021.94 mbar 3.24 m/s 261.12 Deg 6.1 µg/m3 2.36 µg/m3
2023-02-04 11:00 22.03 µg/m3 1.04 µg/m3 0 µg/m3 34.3 µg/m3 8.5 µg/m3 0.29 mg/m3 15.26 °C 64.11 % 1,022.76 mbar 2.81 m/s 254.12 Deg 5.76 µg/m3 3.1 µg/m3
2023-02-04 10:00 34.25 µg/m3 1.18 µg/m3 0 µg/m3 37.22 µg/m3 9.95 µg/m3 0.35 mg/m3 14.78 °C 66.45 % 1,023.02 mbar 1.89 m/s 251.47 Deg 10.09 µg/m3 10.13 µg/m3
2023-02-04 09:00 83.49 µg/m3 3.93 µg/m3 0 µg/m3 84.82 µg/m3 31.22 µg/m3 0.89 mg/m3 12.77 °C 72.57 % 1,023.25 mbar 0.56 m/s 234.72 Deg 106.23 µg/m3 13.86 µg/m3
2023-02-04 08:00 75.66 µg/m3 4.1 µg/m3 0 µg/m3 43.03 µg/m3 28.68 µg/m3 1.11 mg/m3 9.94 °C 80.26 % 1,023.42 mbar 0.74 m/s 242.47 Deg 129.48 µg/m3 10.87 µg/m3
2023-02-04 07:00 65.54 µg/m3 3.56 µg/m3 0 µg/m3 32.32 µg/m3 21.64 µg/m3 0.77 mg/m3 9.48 °C 80.7 % 1,023.68 mbar 0.89 m/s 246.2 Deg 94.09 µg/m3 7.09 µg/m3
2023-02-04 06:00 53.87 µg/m3 2.12 µg/m3 0 µg/m3 30.41 µg/m3 20.5 µg/m3 0.59 mg/m3 9.49 °C 80.56 % 1,023.92 mbar 0.74 m/s 245.3 Deg 41.56 µg/m3 4.51 µg/m3
2023-02-04 05:00 34.21 µg/m3 1.26 µg/m3 0 µg/m3 29.22 µg/m3 20.72 µg/m3 0.31 mg/m3 9.57 °C 80.21 % 1,024.18 mbar 0.79 m/s 243.35 Deg 7.32 µg/m3 3.25 µg/m3
2023-02-04 04:00 30.64 µg/m3 1.17 µg/m3 0 µg/m3 26.65 µg/m3 18.93 µg/m3 0.41 mg/m3 9.56 °C 79.73 % 1,024.68 mbar 0.89 m/s 239.85 Deg 2.83 µg/m3 3.1 µg/m3
2023-02-04 03:00 24.45 µg/m3 1.07 µg/m3 0 µg/m3 23.16 µg/m3 16.63 µg/m3 0.3 mg/m3 9.78 °C 77.82 % 1,025.21 mbar 1.09 m/s 234.53 Deg 1.14 µg/m3 3.94 µg/m3
2023-02-04 02:00 46.44 µg/m3 1.24 µg/m3 0 µg/m3 30.17 µg/m3 20.67 µg/m3 0.43 mg/m3 10.1 °C 78.32 % 1,025.63 mbar 0.97 m/s 236.7 Deg 6.97 µg/m3 5.88 µg/m3
2023-02-04 01:00 52.05 µg/m3 1.48 µg/m3 0 µg/m3 37.55 µg/m3 25.47 µg/m3 0.59 mg/m3 10.45 °C 78.06 % 1,026.04 mbar 0.92 m/s 233.7 Deg 9.83 µg/m3 7.3 µg/m3
2023-02-04 00:00 60.14 µg/m3 1.81 µg/m3 0 µg/m3 47.13 µg/m3 31.85 µg/m3 0.71 mg/m3 10.69 °C 78.23 % 1,026.53 mbar 0.97 m/s 230.97 Deg 21.12 µg/m3 11.28 µg/m3
2023-02-03 23:00 67.93 µg/m3 2.86 µg/m3 0 µg/m3 60.42 µg/m3 40.41 µg/m3 1 mg/m3 10.98 °C 78.32 % 1,026.81 mbar 0.82 m/s 235.55 Deg 56.11 µg/m3 15.22 µg/m3
2023-02-03 22:00 71.35 µg/m3 3.57 µg/m3 0 µg/m3 66.28 µg/m3 44.2 µg/m3 1.14 mg/m3 11.44 °C 77.2 % 1,026.89 mbar 0.84 m/s 238.82 Deg 70.16 µg/m3 17.58 µg/m3
2023-02-03 21:00 83.98 µg/m3 4.29 µg/m3 0 µg/m3 73.72 µg/m3 49.15 µg/m3 1.4 mg/m3 12.3 °C 74.25 % 1,026.92 mbar 0.76 m/s 233.27 Deg 109.6 µg/m3 18.06 µg/m3
2023-02-03 20:00 96.54 µg/m3 3.94 µg/m3 0 µg/m3 103.61 µg/m3 42.53 µg/m3 1.44 mg/m3 13.39 °C 69.9 % 1,026.80 mbar 0.6 m/s 241.48 Deg 116.43 µg/m3 9.66 µg/m3
2023-02-03 19:00 75.63 µg/m3 2.61 µg/m3 0 µg/m3 153.19 µg/m3 32.35 µg/m3 0.62 mg/m3 14.18 °C 65.87 % 1,026.95 mbar 0.85 m/s 53.33 Deg 51.23 µg/m3 5.09 µg/m3
2023-02-03 18:00 57.57 µg/m3 1.88 µg/m3 0 µg/m3 113.2 µg/m3 26.21 µg/m3 0.53 mg/m3 14.54 °C 63.14 % 1,026.76 mbar 1.64 m/s 59.7 Deg 52.67 µg/m3 4.04 µg/m3
2023-02-03 17:00 31.11 µg/m3 1.84 µg/m3 0 µg/m3 58.96 µg/m3 15.66 µg/m3 0.38 mg/m3 14.99 °C 60.2 % 1,026.41 mbar 2.7 m/s 55.92 Deg 32.36 µg/m3 3.15 µg/m3
2023-02-03 16:00 28.7 µg/m3 1.57 µg/m3 0 µg/m3 41.81 µg/m3 11.68 µg/m3 0.36 mg/m3 15.08 °C 58.11 % 1,026.15 mbar 3.35 m/s 52.67 Deg 33.41 µg/m3 11.81 µg/m3
2023-02-03 15:00 27.37 µg/m3 1.45 µg/m3 0 µg/m3 37.08 µg/m3 11.22 µg/m3 0.34 mg/m3 15.16 °C 59.75 % 1,025.91 mbar 4.01 m/s 52.47 Deg 25.19 µg/m3 3.1 µg/m3
2023-02-03 14:00 32.05 µg/m3 1.63 µg/m3 0 µg/m3 42.37 µg/m3 13.93 µg/m3 0.35 mg/m3 15.27 °C 59.32 % 1,026.04 mbar 3.56 m/s 50.85 Deg 34.92 µg/m3 2.83 µg/m3
2023-02-03 13:00 41 µg/m3 1.48 µg/m3 0 µg/m3 60.28 µg/m3 17.25 µg/m3 0.36 mg/m3 15.11 °C 63.84 % 1,026.52 mbar 3.08 m/s 55.97 Deg 34.29 µg/m3 3.15 µg/m3
2023-02-03 12:00 29.75 µg/m3 1.37 µg/m3 0 µg/m3 61.81 µg/m3 16.43 µg/m3 0.38 mg/m3 15.35 °C 64.94 % 1,027.17 mbar 3.22 m/s 54.52 Deg 30.24 µg/m3 3.99 µg/m3
2023-02-03 11:00 44.87 µg/m3 1.71 µg/m3 0 µg/m3 91.31 µg/m3 20.9 µg/m3 0.38 mg/m3 15.06 °C 64.07 % 1,027.39 mbar 2.35 m/s 54.92 Deg 46.27 µg/m3 14.59 µg/m3
2023-02-03 10:00 91.44 µg/m3 5.17 µg/m3 0 µg/m3 169.77 µg/m3 53.05 µg/m3 1.34 mg/m3 13.74 °C 71.56 % 1,027.03 mbar 0.45 m/s 199.39 Deg 192.32 µg/m3 20.1 µg/m3
2023-02-03 09:00 90.13 µg/m3 5.85 µg/m3 0 µg/m3 65.25 µg/m3 43.5 µg/m3 1.42 mg/m3 11.58 °C 76.32 % 1,026.40 mbar 0.51 m/s 235.84 Deg 211.05 µg/m3 17.69 µg/m3
2023-02-03 08:00 83.81 µg/m3 5.48 µg/m3 0 µg/m3 45.15 µg/m3 30.1 µg/m3 1.42 mg/m3 10.42 °C 80.7 % 1,025.75 mbar 0.6 m/s 238.08 Deg 205.4 µg/m3 16.38 µg/m3
2023-02-03 07:00 69.45 µg/m3 4.72 µg/m3 0 µg/m3 42.48 µg/m3 28.32 µg/m3 1.22 mg/m3 9.88 °C 82.41 % 1,025.26 mbar 0.53 m/s 240.82 Deg 175.08 µg/m3 6.25 µg/m3
2023-02-03 06:00 49.35 µg/m3 1.81 µg/m3 0 µg/m3 25.61 µg/m3 17.08 µg/m3 0.51 mg/m3 9.91 °C 82.78 % 1,025.01 mbar 0.76 m/s 236.55 Deg 44.96 µg/m3 4.04 µg/m3
2023-02-03 05:00 34.67 µg/m3 1.2 µg/m3 0 µg/m3 17.72 µg/m3 11.83 µg/m3 0.28 mg/m3 10.31 °C 82.3 % 1,024.65 mbar 0.67 m/s 248.22 Deg 12.51 µg/m3 3.57 µg/m3
2023-02-03 04:00 26.91 µg/m3 1.1 µg/m3 0 µg/m3 18.17 µg/m3 12.17 µg/m3 0.3 mg/m3 10.85 °C 81.6 % 1,024.85 mbar 0.64 m/s 244.18 Deg 5.94 µg/m3 3.2 µg/m3
2023-02-03 03:00 24.62 µg/m3 1.02 µg/m3 0 µg/m3 20.18 µg/m3 13.63 µg/m3 0.34 mg/m3 11.19 °C 80.54 % 1,024.79 mbar 0.75 m/s 237.9 Deg 1.03 µg/m3 3.78 µg/m3
2023-02-03 02:00 39.2 µg/m3 1.3 µg/m3 0 µg/m3 26.38 µg/m3 17.59 µg/m3 0.43 mg/m3 11.06 °C 81.54 % 1,024.91 mbar 0.75 m/s 244.37 Deg 15.01 µg/m3 3.94 µg/m3
2023-02-03 01:00 38.95 µg/m3 1.07 µg/m3 0 µg/m3 26.78 µg/m3 17.86 µg/m3 0.46 mg/m3 11.36 °C 80.55 % 1,025.14 mbar 0.93 m/s 234.88 Deg 5.83 µg/m3 4.25 µg/m3
2023-02-03 00:00 44.94 µg/m3 1.15 µg/m3 0 µg/m3 28.02 µg/m3 18.69 µg/m3 0.46 mg/m3 11.7 °C 79.07 % 1,025.18 mbar 1.03 m/s 240.83 Deg 6.26 µg/m3 5.98 µg/m3
2023-02-02 23:00 54.88 µg/m3 1.67 µg/m3 0 µg/m3 43.96 µg/m3 29.31 µg/m3 0.66 mg/m3 11.73 °C 79.75 % 1,025.01 mbar 0.86 m/s 228.03 Deg 19.68 µg/m3 9.13 µg/m3
2023-02-02 22:00 67.38 µg/m3 2.31 µg/m3 0 µg/m3 49.92 µg/m3 33.28 µg/m3 0.83 mg/m3 12.18 °C 79.12 % 1,024.70 mbar 0.74 m/s 237.37 Deg 44 µg/m3 13.75 µg/m3
2023-02-02 21:00 78.18 µg/m3 4.1 µg/m3 0 µg/m3 52.44 µg/m3 34.96 µg/m3 1.14 mg/m3 12.76 °C 77.19 % 1,024.51 mbar 0.69 m/s 240.35 Deg 80.99 µg/m3 16.95 µg/m3
2023-02-02 20:00 81.05 µg/m3 4.34 µg/m3 0 µg/m3 52.19 µg/m3 34.79 µg/m3 1.41 mg/m3 12.93 °C 79.71 % 1,024.21 mbar 0.71 m/s 240.95 Deg 137.82 µg/m3 16.9 µg/m3
2023-02-02 19:00 81.23 µg/m3 3.29 µg/m3 0 µg/m3 30.31 µg/m3 20.3 µg/m3 1.04 mg/m3 13.8 °C 75.74 % 1,023.89 mbar 0.59 m/s 236.8 Deg 86.17 µg/m3 7.82 µg/m3
2023-02-02 18:00 71.63 µg/m3 2.09 µg/m3 0 µg/m3 19.7 µg/m3 12.18 µg/m3 0.66 mg/m3 14.15 °C 72.15 % 1,023.39 mbar 0.75 m/s 240.97 Deg 29.97 µg/m3 3.94 µg/m3
2023-02-02 17:00 53.63 µg/m3 1.5 µg/m3 0 µg/m3 17.96 µg/m3 9.58 µg/m3 0.47 mg/m3 14.4 °C 71.92 % 1,022.86 mbar 1.3 m/s 276.48 Deg 17.78 µg/m3 3.46 µg/m3
2023-02-02 16:00 45.08 µg/m3 1.34 µg/m3 0 µg/m3 12.48 µg/m3 8.58 µg/m3 0.4 mg/m3 13.54 °C 81.29 % 1,022.82 mbar 0.81 m/s 306 Deg 18.3 µg/m3 2.68 µg/m3
2023-02-02 15:00 42.02 µg/m3 1.6 µg/m3 0 µg/m3 11.95 µg/m3 8.72 µg/m3 0.33 mg/m3 13.14 °C 83.07 % 1,022.96 mbar 1.5 m/s 221.53 Deg 10.5 µg/m3 2.47 µg/m3
2023-02-02 14:00 37.81 µg/m3 1.24 µg/m3 0 µg/m3 34.48 µg/m3 10.94 µg/m3 0.3 mg/m3 14.45 °C 70.9 % 1,023.17 mbar 2.2 m/s 236.87 Deg 12.75 µg/m3 2.68 µg/m3
2023-02-02 13:00 32.28 µg/m3 1.17 µg/m3 0 µg/m3 29.48 µg/m3 9.64 µg/m3 0.28 mg/m3 14.45 °C 68.89 % 1,023.73 mbar 2.52 m/s 251.78 Deg 9.48 µg/m3 2.62 µg/m3
2023-02-02 12:00 37.48 µg/m3 1.37 µg/m3 0 µg/m3 17.28 µg/m3 9.69 µg/m3 0.31 mg/m3 14.17 °C 76.13 % 1,024.48 mbar 1.91 m/s 276.32 Deg 12.83 µg/m3 3.57 µg/m3
2023-02-02 11:00 63.42 µg/m3 2 µg/m3 0 µg/m3 18.04 µg/m3 11.16 µg/m3 0.4 mg/m3 13.57 °C 78.01 % 1,024.62 mbar 1.19 m/s 237.87 Deg 35.88 µg/m3 4.67 µg/m3
2023-02-02 10:00 68.44 µg/m3 2 µg/m3 0 µg/m3 17.7 µg/m3 11.91 µg/m3 0.56 mg/m3 13.1 °C 82.83 % 1,024.26 mbar 0.97 m/s 300.12 Deg 41.98 µg/m3 8.4 µg/m3
2023-02-02 09:00 92.2 µg/m3 3.56 µg/m3 0 µg/m3 21.08 µg/m3 14.07 µg/m3 0.94 mg/m3 13.2 °C 77.82 % 1,023.80 mbar 0.5 m/s 285.6 Deg 110.08 µg/m3 16.27 µg/m3
2023-02-02 08:00 99.7 µg/m3 4.04 µg/m3 0 µg/m3 21.8 µg/m3 14.76 µg/m3 1.33 mg/m3 12.74 °C 80.74 % 1,023.39 mbar 0.15 m/s 189.77 Deg 148.48 µg/m3 11.97 µg/m3
2023-02-02 07:00 75.87 µg/m3 3.94 µg/m3 0 µg/m3 23.26 µg/m3 15.67 µg/m3 0.96 mg/m3 12.54 °C 78.41 % 1,023.23 mbar 0.52 m/s 209.78 Deg 135.47 µg/m3 6.35 µg/m3
2023-02-02 06:00 62.34 µg/m3 1.92 µg/m3 0 µg/m3 17.38 µg/m3 11.7 µg/m3 0.56 mg/m3 12.49 °C 74.3 % 1,023.01 mbar 0.27 m/s 268.7 Deg 53.67 µg/m3 2.41 µg/m3
2023-02-02 05:00 26.74 µg/m3 1.21 µg/m3 0 µg/m3 14.5 µg/m3 10.06 µg/m3 0.23 mg/m3 12.22 °C 73.7 % 1,022.95 mbar 1.07 m/s 229.18 Deg 6.15 µg/m3 3.52 µg/m3
2023-02-02 04:00 28.03 µg/m3 1.16 µg/m3 0 µg/m3 15.61 µg/m3 11.13 µg/m3 0.29 mg/m3 11.61 °C 74.29 % 1,023.41 mbar 1.03 m/s 231.33 Deg 5.65 µg/m3 4.2 µg/m3
2023-02-02 03:00 41.66 µg/m3 1.27 µg/m3 0 µg/m3 17.49 µg/m3 12.05 µg/m3 0.39 mg/m3 11.36 °C 72.94 % 1,024.06 mbar 0.75 m/s 241.52 Deg 15.62 µg/m3 4.62 µg/m3
2023-02-02 02:00 38.68 µg/m3 1.25 µg/m3 0 µg/m3 18.28 µg/m3 12.53 µg/m3 0.41 mg/m3 11 °C 72.17 % 1,024.48 mbar 1.02 m/s 237.12 Deg 5.39 µg/m3 4.99 µg/m3
2023-02-02 01:00 47.17 µg/m3 1.56 µg/m3 0 µg/m3 24.12 µg/m3 16.3 µg/m3 0.58 mg/m3 10.48 °C 72.09 % 1,024.94 mbar 1.05 m/s 236.83 Deg 5.26 µg/m3 6.82 µg/m3
2023-02-02 00:00 57.02 µg/m3 1.72 µg/m3 0 µg/m3 33.99 µg/m3 22.75 µg/m3 0.68 mg/m3 10.46 °C 71.15 % 1,025.37 mbar 1.01 m/s 241.3 Deg 16.59 µg/m3 10.03 µg/m3
2023-02-01 23:00 69.62 µg/m3 2.36 µg/m3 0 µg/m3 46 µg/m3 30.67 µg/m3 0.86 mg/m3 10.58 °C 69.06 % 1,025.35 mbar 0.77 m/s 238.67 Deg 39.3 µg/m3 10.08 µg/m3
2023-02-01 22:00 77.12 µg/m3 2.89 µg/m3 0 µg/m3 74.04 µg/m3 33.6 µg/m3 0.92 mg/m3 10.86 °C 66.64 % 1,025.30 mbar 0.71 m/s 235.25 Deg 53.86 µg/m3 11.7 µg/m3
2023-02-01 21:00 86.49 µg/m3 3.63 µg/m3 0 µg/m3 111.29 µg/m3 37.38 µg/m3 1.15 mg/m3 11.26 °C 65.14 % 1,025.50 mbar 0.72 m/s 240 Deg 107.95 µg/m3 13.02 µg/m3
2023-02-01 20:00 95.61 µg/m3 3.39 µg/m3 0 µg/m3 144.43 µg/m3 40.13 µg/m3 1.18 mg/m3 12.03 °C 60.51 % 1,025.63 mbar 0.68 m/s 237.62 Deg 104.07 µg/m3 7.61 µg/m3
2023-02-01 19:00 81.45 µg/m3 1.76 µg/m3 0 µg/m3 117.28 µg/m3 26.63 µg/m3 0.6 mg/m3 12.6 °C 57.11 % 1,025.56 mbar 0.87 m/s 225.65 Deg 17.44 µg/m3 5.09 µg/m3
2023-02-01 18:00 63.92 µg/m3 1.48 µg/m3 0 µg/m3 66.39 µg/m3 17.37 µg/m3 0.5 mg/m3 13.46 °C 54.22 % 1,025.15 mbar 1.51 m/s 238.65 Deg 14.02 µg/m3 3.25 µg/m3
2023-02-01 17:00 41.43 µg/m3 1.34 µg/m3 0 µg/m3 35.75 µg/m3 12.08 µg/m3 0.36 mg/m3 14.41 °C 51.07 % 1,024.78 mbar 1.83 m/s 245.33 Deg 12.23 µg/m3 3.04 µg/m3
2023-02-01 16:00 37.4 µg/m3 1.28 µg/m3 0 µg/m3 45.48 µg/m3 13.12 µg/m3 0.3 mg/m3 14.78 °C 49.43 % 1,024.79 mbar 1.16 m/s 241.47 Deg 17.06 µg/m3 3.04 µg/m3
2023-02-01 15:00 36.88 µg/m3 1.54 µg/m3 0 µg/m3 60.85 µg/m3 15.21 µg/m3 0.36 mg/m3 14.21 °C 46.79 % 1,024.82 mbar 1.85 m/s 54.3 Deg 45.39 µg/m3 2.83 µg/m3
2023-02-01 14:00 33.68 µg/m3 1.52 µg/m3 0 µg/m3 42.63 µg/m3 12.01 µg/m3 0.36 mg/m3 14.1 °C 47.12 % 1,024.88 mbar 2.86 m/s 55.02 Deg 39.56 µg/m3 2.68 µg/m3
2023-02-01 13:00 31.21 µg/m3 1.52 µg/m3 0 µg/m3 35.96 µg/m3 10.78 µg/m3 0.32 mg/m3 14.28 °C 46.41 % 1,025.44 mbar 2.3 m/s 52.53 Deg 36.17 µg/m3 3.15 µg/m3
2023-02-01 12:00 32.94 µg/m3 1.47 µg/m3 0 µg/m3 36.55 µg/m3 10.73 µg/m3 0.32 mg/m3 14.17 °C 47.32 % 1,026.13 mbar 2.15 m/s 53.4 Deg 31.27 µg/m3 3.31 µg/m3
2023-02-01 11:00 40.69 µg/m3 1.54 µg/m3 0 µg/m3 40.75 µg/m3 11.36 µg/m3 0.36 mg/m3 14.05 °C 47.59 % 1,026.43 mbar 1.59 m/s 62.02 Deg 37.91 µg/m3 4.41 µg/m3
2023-02-01 10:00 57.78 µg/m3 2.15 µg/m3 9.79 µg/m3 80.52 µg/m3 20.11 µg/m3 0.51 mg/m3 13.66 °C 52.29 % 1,026.16 mbar 1.03 m/s 126.83 Deg 57.47 µg/m3 14.43 µg/m3
2023-02-01 09:00 96.24 µg/m3 5.14 µg/m3 5.06 µg/m3 125.03 µg/m3 35.86 µg/m3 1.27 mg/m3 11.46 °C 64.46 % 1,025.61 mbar 0.74 m/s 222.82 Deg 175.6 µg/m3 15.06 µg/m3
2023-02-01 08:00 87.07 µg/m3 4.67 µg/m3 2.87 µg/m3 64.66 µg/m3 25.82 µg/m3 1.21 mg/m3 9.6 °C 69.96 % 1,025.10 mbar 0.97 m/s 230.62 Deg 162.25 µg/m3 9.55 µg/m3
2023-02-01 07:00 69.66 µg/m3 3.15 µg/m3 2.73 µg/m3 27.78 µg/m3 18.54 µg/m3 0.82 mg/m3 9.44 °C 71.33 % 1,024.54 mbar 1.19 m/s 230.32 Deg 92.12 µg/m3 5.25 µg/m3
2023-02-01 06:00 48.77 µg/m3 1.56 µg/m3 9.61 µg/m3 19.7 µg/m3 13.22 µg/m3 0.51 mg/m3 9.75 °C 70.65 % 1,024.04 mbar 1.14 m/s 233.12 Deg 27.01 µg/m3 2.78 µg/m3
2023-02-01 05:00 24.07 µg/m3 0.98 µg/m3 30.8 µg/m3 16.41 µg/m3 8.9 µg/m3 0.22 mg/m3 10.36 °C 67.5 % 1,023.70 mbar 1.07 m/s 233.9 Deg 1.8 µg/m3 1.99 µg/m3
2023-02-01 04:00 19.72 µg/m3 1.03 µg/m3 46.68 µg/m3 13.28 µg/m3 7.14 µg/m3 0.19 mg/m3 11.4 °C 59.37 % 1,023.30 mbar 1.19 m/s 245.78 Deg 0.72 µg/m3 1.78 µg/m3
2023-02-01 03:00 13.59 µg/m3 0.84 µg/m3 66.15 µg/m3 10.87 µg/m3 6.09 µg/m3 0.16 mg/m3 12.65 °C 50.52 % 1,023.26 mbar 0.7 m/s 308.3 Deg 0.23 µg/m3 1.57 µg/m3
2023-02-01 02:00 6.43 µg/m3 0.85 µg/m3 74.77 µg/m3 12.71 µg/m3 6.41 µg/m3 0.16 mg/m3 12.91 °C 53.71 % 1,023.14 mbar 0.75 m/s 169.18 Deg 0.29 µg/m3 1.84 µg/m3
2023-02-01 01:00 7.53 µg/m3 0.77 µg/m3 73.71 µg/m3 15.94 µg/m3 6.89 µg/m3 0.19 mg/m3 13.09 °C 56.94 % 1,022.90 mbar 1.01 m/s 255.38 Deg 0.76 µg/m3 1.63 µg/m3
2023-02-01 00:00 6.37 µg/m3 0.82 µg/m3 76.92 µg/m3 14.8 µg/m3 6.43 µg/m3 0.18 mg/m3 13.42 °C 54.9 % 1,022.70 mbar 1.47 m/s 250.68 Deg 1.54 µg/m3 1.78 µg/m3
2023-01-31 23:00 11.06 µg/m3 0.85 µg/m3 71.11 µg/m3 16.27 µg/m3 8.12 µg/m3 0.2 mg/m3 13.59 °C 60.21 % 1,022.30 mbar 1.66 m/s 307.27 Deg 1.06 µg/m3 1.94 µg/m3
2023-01-31 22:00 10.54 µg/m3 1 µg/m3 71.58 µg/m3 19.4 µg/m3 9.98 µg/m3 0.2 mg/m3 13.98 °C 61.81 % 1,021.81 mbar 2.52 m/s 295.68 Deg 1.19 µg/m3 2.15 µg/m3
2023-01-31 21:00 18.82 µg/m3 1.09 µg/m3 61.88 µg/m3 24.98 µg/m3 12.29 µg/m3 0.26 mg/m3 13.9 °C 63.88 % 1,021.32 mbar 2.16 m/s 283.22 Deg 2.78 µg/m3 2.2 µg/m3
2023-01-31 20:00 23.02 µg/m3 1.03 µg/m3 58.72 µg/m3 26.7 µg/m3 11.79 µg/m3 0.26 mg/m3 13.99 °C 63.7 % 1,020.84 mbar 2.63 m/s 282.38 Deg 3.4 µg/m3 2.62 µg/m3
2023-01-31 19:00 34.1 µg/m3 1.17 µg/m3 51.3 µg/m3 28.09 µg/m3 11.86 µg/m3 0.3 mg/m3 13.82 °C 62.31 % 1,020.58 mbar 2.31 m/s 265.53 Deg 6.06 µg/m3 2.68 µg/m3
2023-01-31 18:00 34.71 µg/m3 1.18 µg/m3 52.19 µg/m3 31.3 µg/m3 11.66 µg/m3 0.32 mg/m3 14.16 °C 59.37 % 1,020.16 mbar 2.5 m/s 276.4 Deg 8.03 µg/m3 2.41 µg/m3
2023-01-31 17:00 27.73 µg/m3 1.04 µg/m3 58.78 µg/m3 29.93 µg/m3 9.91 µg/m3 0.27 mg/m3 14.85 °C 57.31 % 1,019.52 mbar 2.64 m/s 285.58 Deg 7.72 µg/m3 2.26 µg/m3
2023-01-31 16:00 27.19 µg/m3 1.04 µg/m3 61.79 µg/m3 38.93 µg/m3 11.92 µg/m3 0.27 mg/m3 14.84 °C 58.47 % 1,019.18 mbar 3.07 m/s 285.6 Deg 8.49 µg/m3 2.26 µg/m3
2023-01-31 15:00 28.56 µg/m3 1.15 µg/m3 59.73 µg/m3 51.61 µg/m3 14.81 µg/m3 0.24 mg/m3 14.56 °C 58.93 % 1,019.17 mbar 3.1 m/s 270.03 Deg 8.64 µg/m3 1.89 µg/m3
2023-01-31 14:00 25.07 µg/m3 0.97 µg/m3 63.41 µg/m3 40.87 µg/m3 12.11 µg/m3 0.23 mg/m3 14.72 °C 56.24 % 1,019.39 mbar 3.76 m/s 271.15 Deg 7.48 µg/m3 1.94 µg/m3
2023-01-31 13:00 21.82 µg/m3 1 µg/m3 68.67 µg/m3 35.42 µg/m3 11.34 µg/m3 0.26 mg/m3 15.31 °C 53.94 % 1,019.66 mbar 3.88 m/s 268.45 Deg 7.26 µg/m3 1.99 µg/m3
2023-01-31 12:00 21.8 µg/m3 1.07 µg/m3 67.97 µg/m3 42.93 µg/m3 12.1 µg/m3 0.29 mg/m3 15 °C 54.25 % 1,020.22 mbar 3.98 m/s 279 Deg 6.74 µg/m3 2.15 µg/m3
2023-01-31 11:00 23.95 µg/m3 1.01 µg/m3 62.87 µg/m3 39.94 µg/m3 11.9 µg/m3 0.31 mg/m3 14.8 °C 56.61 % 1,020.55 mbar 3.49 m/s 273.22 Deg 9.01 µg/m3 2.68 µg/m3
2023-01-31 10:00 32.32 µg/m3 1.12 µg/m3 53.86 µg/m3 46.46 µg/m3 12.49 µg/m3 0.34 mg/m3 14.45 °C 60.32 % 1,020.39 mbar 3.2 m/s 278.33 Deg 12.7 µg/m3 3.04 µg/m3
2023-01-31 09:00 40.25 µg/m3 1.18 µg/m3 45.8 µg/m3 42.51 µg/m3 11.74 µg/m3 0.38 mg/m3 14.09 °C 58.02 % 1,019.88 mbar 2.82 m/s 271.47 Deg 16.32 µg/m3 3.83 µg/m3
2023-01-31 08:00 53.72 µg/m3 1.26 µg/m3 35.33 µg/m3 29.82 µg/m3 10.52 µg/m3 0.45 mg/m3 13.07 °C 63.25 % 1,019.72 mbar 2.49 m/s 267.22 Deg 18.68 µg/m3 3.15 µg/m3
2023-01-31 07:00 38.68 µg/m3 1.07 µg/m3 46.43 µg/m3 18.83 µg/m3 8.75 µg/m3 0.36 mg/m3 12.9 °C 63.55 % 1,019.42 mbar 2.65 m/s 267.47 Deg 8.45 µg/m3 2.41 µg/m3
2023-01-31 06:00 20.04 µg/m3 0.8 µg/m3 59.1 µg/m3 13.09 µg/m3 6.86 µg/m3 0.29 mg/m3 12.67 °C 67.02 % 1,019.36 mbar 1.98 m/s 258.63 Deg 2.57 µg/m3 1.94 µg/m3
2023-01-31 05:00 11.37 µg/m3 0.73 µg/m3 63.01 µg/m3 9.59 µg/m3 4.88 µg/m3 0.21 mg/m3 12.11 °C 68.41 % 1,019.52 mbar 1.56 m/s 251.87 Deg 0.5 µg/m3 1.84 µg/m3
2023-01-31 04:00 5 µg/m3 0.72 µg/m3 68.42 µg/m3 9.59 µg/m3 5.6 µg/m3 0.21 mg/m3 12.05 °C 69.88 % 1,019.82 mbar 1.59 m/s 250.85 Deg -0.07 µg/m3 2.1 µg/m3
2023-01-31 03:00 6.36 µg/m3 0.79 µg/m3 68.48 µg/m3 10.93 µg/m3 5.82 µg/m3 0.24 mg/m3 12.04 °C 67 % 1,020.27 mbar 1.24 m/s 248.82 Deg -0.13 µg/m3 2.05 µg/m3
2023-01-31 02:00 6.07 µg/m3 0.79 µg/m3 73 µg/m3 10.31 µg/m3 5.65 µg/m3 0.25 mg/m3 12.6 °C 63.77 % 1,020.61 mbar 2.18 m/s 268.83 Deg 0.62 µg/m3 2.15 µg/m3
2023-01-31 01:00 5.02 µg/m3 0.69 µg/m3 73.45 µg/m3 12.46 µg/m3 5.89 µg/m3 0.28 mg/m3 12.83 °C 62.51 % 1,020.89 mbar 2.59 m/s 281.12 Deg 0.13 µg/m3 2.41 µg/m3
2023-01-31 00:00 10.76 µg/m3 0.95 µg/m3 66.58 µg/m3 16.04 µg/m3 7.72 µg/m3 0.28 mg/m3 12.96 °C 62.44 % 1,020.95 mbar 2.32 m/s 276.8 Deg 0.5 µg/m3 2.94 µg/m3
2023-01-30 23:00 23.57 µg/m3 0.94 µg/m3 50.17 µg/m3 20.95 µg/m3 8.73 µg/m3 0.34 mg/m3 12.34 °C 65.73 % 1,020.77 mbar 1.61 m/s 249.92 Deg 2.47 µg/m3 6.61 µg/m3
2023-01-30 22:00 60.47 µg/m3 1.81 µg/m3 11.66 µg/m3 39.58 µg/m3 26.39 µg/m3 0.77 mg/m3 11.56 °C 72.17 % 1,020.53 mbar 0.8 m/s 236.65 Deg 37.36 µg/m3 9.19 µg/m3
2023-01-30 21:00 73.82 µg/m3 2.19 µg/m3 4.4 µg/m3 46.91 µg/m3 31.27 µg/m3 0.93 mg/m3 11.77 °C 72.16 % 1,020.62 mbar 0.81 m/s 230.83 Deg 58.84 µg/m3 7.45 µg/m3
2023-01-30 20:00 73.85 µg/m3 2.22 µg/m3 8.7 µg/m3 44.88 µg/m3 28.11 µg/m3 0.83 mg/m3 12.17 °C 70.96 % 1,020.53 mbar 0.92 m/s 236.77 Deg 49.89 µg/m3 9.71 µg/m3
2023-01-30 19:00 80.43 µg/m3 2.42 µg/m3 5.53 µg/m3 90.89 µg/m3 27.4 µg/m3 0.83 mg/m3 12.48 °C 67.9 % 1,020.37 mbar 0.98 m/s 230.78 Deg 45.89 µg/m3 5.35 µg/m3
2023-01-30 18:00 65.12 µg/m3 1.39 µg/m3 21.03 µg/m3 63.37 µg/m3 19.18 µg/m3 0.56 mg/m3 13.18 °C 63.11 % 1,020.09 mbar 1.47 m/s 246.08 Deg 20.82 µg/m3 3.73 µg/m3
2023-01-30 17:00 40.94 µg/m3 1.18 µg/m3 47.16 µg/m3 35.86 µg/m3 14.01 µg/m3 0.43 mg/m3 14.16 °C 58.82 % 1,019.98 mbar 1.84 m/s 278.08 Deg 10.62 µg/m3 3.41 µg/m3
2023-01-30 16:00 35.68 µg/m3 1.18 µg/m3 52.72 µg/m3 36.19 µg/m3 12.23 µg/m3 0.39 mg/m3 14.39 °C 57.63 % 1,019.69 mbar 1.91 m/s 297.65 Deg 11.98 µg/m3 3.46 µg/m3
2023-01-30 15:00 38.18 µg/m3 1.2 µg/m3 50.37 µg/m3 43.37 µg/m3 13.7 µg/m3 0.38 mg/m3 14.08 °C 59.54 % 1,019.51 mbar 1.94 m/s 301.28 Deg 12.54 µg/m3 2.94 µg/m3
2023-01-30 14:00 26.63 µg/m3 1.04 µg/m3 61.38 µg/m3 62.08 µg/m3 14.85 µg/m3 0.34 mg/m3 14.84 °C 58.35 % 1,019.54 mbar 2 m/s 308.07 Deg 12.11 µg/m3 3.2 µg/m3
2023-01-30 13:00 33.64 µg/m3 1.2 µg/m3 57.67 µg/m3 71 µg/m3 16.49 µg/m3 0.35 mg/m3 14.85 °C 56.48 % 1,020.05 mbar 1.39 m/s 298.62 Deg 14.67 µg/m3 3.04 µg/m3
2023-01-30 12:00 28.06 µg/m3 1.09 µg/m3 59.01 µg/m3 69.57 µg/m3 15.64 µg/m3 0.33 mg/m3 14.85 °C 55.53 % 1,020.65 mbar 1.28 m/s 289.53 Deg 13 µg/m3 4.62 µg/m3
2023-01-30 11:00 34.4 µg/m3 5.16 µg/m3 51.72 µg/m3 170.85 µg/m3 28.77 µg/m3 0.41 mg/m3 14.6 °C 55.63 % 1,020.93 mbar 1.09 m/s 322.9 Deg 24.33 µg/m3 5.98 µg/m3
2023-01-30 10:00 60.05 µg/m3 3.31 µg/m3 30.89 µg/m3 53.14 µg/m3 16.66 µg/m3 0.66 mg/m3 13.63 °C 64.95 % 1,020.67 mbar 0.92 m/s 283.02 Deg 65.34 µg/m3 17.01 µg/m3
2023-01-30 09:00 89.08 µg/m3 5.68 µg/m3 3.81 µg/m3 36.12 µg/m3 24.21 µg/m3 1.4 mg/m3 11.46 °C 77.19 % 1,020.12 mbar 0.91 m/s 227.03 Deg 185.36 µg/m3 26.03 µg/m3
2023-01-30 08:00 111.03 µg/m3 7.77 µg/m3 3.29 µg/m3 35.24 µg/m3 24.32 µg/m3 2.05 mg/m3 11.45 °C 73.88 % 1,019.53 mbar 0.9 m/s 252 Deg 315.25 µg/m3 17.53 µg/m3
2023-01-30 07:00 82.4 µg/m3 5.06 µg/m3 3.68 µg/m3 23.79 µg/m3 17.17 µg/m3 1.37 mg/m3 11.98 °C 69.39 % 1,019.03 mbar 0.62 m/s 285.55 Deg 184.39 µg/m3 5.93 µg/m3
2023-01-30 06:00 49.44 µg/m3 1.57 µg/m3 25.66 µg/m3 15.21 µg/m3 10.91 µg/m3 0.49 mg/m3 12.01 °C 69.3 % 1,018.62 mbar 0.67 m/s 154.77 Deg 39.32 µg/m3 3.31 µg/m3
2023-01-30 05:00 16.36 µg/m3 0.85 µg/m3 50.25 µg/m3 12.41 µg/m3 8.95 µg/m3 0.24 mg/m3 11.88 °C 72.39 % 1,018.52 mbar 0.64 m/s 179 Deg 2.53 µg/m3 2.05 µg/m3
2023-01-30 04:00 9.46 µg/m3 0.81 µg/m3 64.8 µg/m3 8.75 µg/m3 6.69 µg/m3 0.23 mg/m3 10.76 °C 77.55 % 1,018.76 mbar 1.15 m/s 269.88 Deg 0.1 µg/m3 1.73 µg/m3
2023-01-30 03:00 3.34 µg/m3 0.66 µg/m3 75.15 µg/m3 5.54 µg/m3 4.96 µg/m3 0.25 mg/m3 9.92 °C 79.26 % 1,019.28 mbar 1.81 m/s 266.88 Deg -0.12 µg/m3 1.73 µg/m3
2023-01-30 02:00 5.03 µg/m3 0.71 µg/m3 75.36 µg/m3 7.41 µg/m3 5.51 µg/m3 0.27 mg/m3 11.28 °C 77.43 % 1,019.17 mbar 1.77 m/s 301.27 Deg -0.04 µg/m3 2.1 µg/m3
2023-01-30 01:00 7.65 µg/m3 0.74 µg/m3 70.32 µg/m3 13.11 µg/m3 8.15 µg/m3 0.28 mg/m3 12.67 °C 69.27 % 1,018.70 mbar 2.44 m/s 178.1 Deg 1.74 µg/m3 2.26 µg/m3
2023-01-30 00:00 7.92 µg/m3 0.79 µg/m3 70.76 µg/m3 15.48 µg/m3 9 µg/m3 0.3 mg/m3 12.88 °C 66.75 % 1,018.84 mbar 1.41 m/s 23.55 Deg 2.97 µg/m3 2.68 µg/m3
2023-01-29 23:00 12.48 µg/m3 0.88 µg/m3 66.03 µg/m3 14.85 µg/m3 9.71 µg/m3 0.34 mg/m3 12.61 °C 72.69 % 1,018.75 mbar 1.73 m/s 41.73 Deg 7.64 µg/m3 2.41 µg/m3
2023-01-29 22:00 12.33 µg/m3 0.82 µg/m3 71.34 µg/m3 12.09 µg/m3 8.15 µg/m3 0.34 mg/m3 12.56 °C 73.22 % 1,018.66 mbar 2.75 m/s 44.65 Deg 7.96 µg/m3 3.62 µg/m3
2023-01-29 21:00 28.36 µg/m3 1.08 µg/m3 48.61 µg/m3 17.85 µg/m3 13.53 µg/m3 0.45 mg/m3 10.58 °C 83.57 % 1,018.29 mbar 2.11 m/s 200.63 Deg 7.46 µg/m3 3.2 µg/m3
2023-01-29 20:00 25.5 µg/m3 1.06 µg/m3 57.38 µg/m3 17.84 µg/m3 13 µg/m3 0.39 mg/m3 10.06 °C 84.17 % 1,018.36 mbar 1.86 m/s 215.38 Deg 4.11 µg/m3 3.67 µg/m3
2023-01-29 19:00 34.83 µg/m3 1 µg/m3 49.78 µg/m3 10.23 µg/m3 7.41 µg/m3 0.46 mg/m3 10.61 °C 83.97 % 1,018.05 mbar 1.32 m/s 170.98 Deg 12.34 µg/m3 3.15 µg/m3
2023-01-29 18:00 15.94 µg/m3 0.99 µg/m3 69.93 µg/m3 25.41 µg/m3 6.93 µg/m3 0.36 mg/m3 11.41 °C 72.38 % 1,017.71 mbar 4.07 m/s 44.08 Deg 16.33 µg/m3 5.62 µg/m3
2023-01-29 17:00 22.56 µg/m3 1.94 µg/m3 67.25 µg/m3 66.19 µg/m3 12.89 µg/m3 0.4 mg/m3 12.76 °C 66.77 % 1,017.01 mbar 3.14 m/s 37.37 Deg 14.55 µg/m3 2.68 µg/m3
2023-01-29 16:00 14.37 µg/m3 0.88 µg/m3 69.41 µg/m3 52.42 µg/m3 10.69 µg/m3 0.33 mg/m3 12.99 °C 67.5 % 1,016.80 mbar 3.32 m/s 37.88 Deg 13.37 µg/m3 2.73 µg/m3
2023-01-29 15:00 15.67 µg/m3 0.97 µg/m3 69.45 µg/m3 46.79 µg/m3 11 µg/m3 0.33 mg/m3 13.28 °C 65.71 % 1,016.62 mbar 3.08 m/s 36.87 Deg 13.02 µg/m3 2.94 µg/m3
2023-01-29 14:00 15.36 µg/m3 0.97 µg/m3 69.25 µg/m3 73.03 µg/m3 16.05 µg/m3 0.35 mg/m3 13.61 °C 64.58 % 1,016.78 mbar 2.21 m/s 30 Deg 13.98 µg/m3 3.41 µg/m3
2023-01-29 13:00 21.5 µg/m3 1.01 µg/m3 66.25 µg/m3 100.79 µg/m3 17.74 µg/m3 0.37 mg/m3 13.37 °C 63.95 % 1,017.40 mbar 2.14 m/s 28.92 Deg 15.68 µg/m3 3.25 µg/m3
2023-01-29 12:00 17.72 µg/m3 0.97 µg/m3 64.76 µg/m3 121.39 µg/m3 20.85 µg/m3 0.36 mg/m3 13.26 °C 61.87 % 1,017.95 mbar 1.68 m/s 104.07 Deg 14.69 µg/m3 3.15 µg/m3
2023-01-29 11:00 14.04 µg/m3 0.94 µg/m3 65.74 µg/m3 86.82 µg/m3 13.65 µg/m3 0.38 mg/m3 13 °C 65.1 % 1,018.02 mbar 2.22 m/s 34.07 Deg 13.57 µg/m3 3.1 µg/m3
2023-01-29 10:00 16.99 µg/m3 0.95 µg/m3 66.35 µg/m3 13.31 µg/m3 4.88 µg/m3 0.37 mg/m3 13.04 °C 63.36 % 1,017.43 mbar 2 m/s 111.58 Deg 11 µg/m3 3.67 µg/m3
2023-01-29 09:00 33.49 µg/m3 1.12 µg/m3 46.73 µg/m3 7.15 µg/m3 4.99 µg/m3 0.39 mg/m3 12.38 °C 65.6 % 1,016.75 mbar 0.91 m/s 296.88 Deg 9.79 µg/m3 5.09 µg/m3
2023-01-29 08:00 53.89 µg/m3 1.46 µg/m3 12.79 µg/m3 8.44 µg/m3 6.19 µg/m3 0.57 mg/m3 9.89 °C 77.23 % 1,016.04 mbar 0.97 m/s 249.98 Deg 21.19 µg/m3 4.78 µg/m3
2023-01-29 07:00 45.53 µg/m3 0.95 µg/m3 20.67 µg/m3 6.45 µg/m3 4.85 µg/m3 0.4 mg/m3 9.27 °C 80.54 % 1,015.75 mbar 0.94 m/s 232.28 Deg 7.74 µg/m3 2.73 µg/m3
2023-01-29 06:00 25.65 µg/m3 0.84 µg/m3 31.66 µg/m3 5.75 µg/m3 4.74 µg/m3 0.27 mg/m3 9.04 °C 83.37 % 1,015.44 mbar 1.01 m/s 233.27 Deg 2.37 µg/m3 2.62 µg/m3
2023-01-29 05:00 23.01 µg/m3 0.81 µg/m3 27.75 µg/m3 6.26 µg/m3 5.25 µg/m3 0.28 mg/m3 8.78 °C 84.97 % 1,015.15 mbar 0.88 m/s 234.07 Deg 2.16 µg/m3 2.89 µg/m3
2023-01-29 04:00 18.59 µg/m3 0.88 µg/m3 33.16 µg/m3 7.46 µg/m3 6.43 µg/m3 0.3 mg/m3 9.26 °C 83.62 % 1,015.01 mbar 0.96 m/s 234.63 Deg 0.33 µg/m3 3.1 µg/m3
2023-01-29 03:00 26.36 µg/m3 0.86 µg/m3 26.31 µg/m3 9.07 µg/m3 7.57 µg/m3 0.34 mg/m3 9.46 °C 84.27 % 1,014.89 mbar 0.88 m/s 235.53 Deg 2.16 µg/m3 3.31 µg/m3
2023-01-29 02:00 29.06 µg/m3 0.82 µg/m3 31.43 µg/m3 7.91 µg/m3 6.3 µg/m3 0.35 mg/m3 9.58 °C 82.53 % 1,014.87 mbar 0.99 m/s 231.85 Deg 1.76 µg/m3 2.73 µg/m3
2023-01-29 01:00 42.65 µg/m3 0.79 µg/m3 34.33 µg/m3 6.89 µg/m3 5 µg/m3 0.36 mg/m3 10.21 °C 74.19 % 1,014.50 mbar 1.07 m/s 246.07 Deg 4.33 µg/m3 2.2 µg/m3
2023-01-29 00:00 15.49 µg/m3 0.72 µg/m3 69.07 µg/m3 3.88 µg/m3 3.14 µg/m3 0.25 mg/m3 9.25 °C 78.37 % 1,014.94 mbar 1.97 m/s 271.25 Deg 0.75 µg/m3 2.26 µg/m3
2023-01-28 23:00 22.35 µg/m3 0.91 µg/m3 58.42 µg/m3 8.75 µg/m3 6.18 µg/m3 0.29 mg/m3 9.57 °C 80.89 % 1,014.85 mbar 1.41 m/s 281.17 Deg 3.46 µg/m3 2.73 µg/m3
2023-01-28 22:00 27.36 µg/m3 0.99 µg/m3 49.18 µg/m3 11.75 µg/m3 9.15 µg/m3 0.34 mg/m3 9.8 °C 80.99 % 1,014.19 mbar 1.82 m/s 220.08 Deg 4.87 µg/m3 7.56 µg/m3
2023-01-28 21:00 61.5 µg/m3 1.76 µg/m3 11.73 µg/m3 26.33 µg/m3 20.86 µg/m3 0.67 mg/m3 9.79 °C 83.01 % 1,013.69 mbar 1 m/s 235.13 Deg 21.97 µg/m3 4.36 µg/m3
2023-01-28 20:00 53.59 µg/m3 1.12 µg/m3 28.23 µg/m3 13.17 µg/m3 10.53 µg/m3 0.48 mg/m3 9.72 °C 81.81 % 1,013.37 mbar 1.02 m/s 219.08 Deg 11.43 µg/m3 3.52 µg/m3
2023-01-28 19:00 42 µg/m3 1.13 µg/m3 40.32 µg/m3 12.23 µg/m3 9.36 µg/m3 0.45 mg/m3 10.32 °C 74.33 % 1,013.20 mbar 1.91 m/s 242.77 Deg 8.3 µg/m3 4.78 µg/m3
2023-01-28 18:00 50.21 µg/m3 1.27 µg/m3 33.33 µg/m3 13.34 µg/m3 8.31 µg/m3 0.42 mg/m3 10.84 °C 69.89 % 1,012.37 mbar 1.32 m/s 244.48 Deg 11.39 µg/m3 3.1 µg/m3
2023-01-28 17:00 37.62 µg/m3 1.04 µg/m3 44.52 µg/m3 9.98 µg/m3 7.15 µg/m3 0.33 mg/m3 11.06 °C 74.62 % 1,012.03 mbar 1.46 m/s 238.2 Deg 6.48 µg/m3 2.47 µg/m3
2023-01-28 16:00 31.24 µg/m3 0.94 µg/m3 51.06 µg/m3 8.11 µg/m3 5.48 µg/m3 0.29 mg/m3 10.86 °C 72.47 % 1,011.61 mbar 1.82 m/s 235.2 Deg 4.72 µg/m3 2.36 µg/m3
2023-01-28 15:00 33 µg/m3 0.89 µg/m3 48.73 µg/m3 9.91 µg/m3 4.91 µg/m3 0.28 mg/m3 11.23 °C 69.61 % 1,011.07 mbar 1.65 m/s 220.63 Deg 6.21 µg/m3 3.1 µg/m3
2023-01-28 14:00 33.12 µg/m3 1.11 µg/m3 52.7 µg/m3 11.96 µg/m3 5.85 µg/m3 0.31 mg/m3 11.99 °C 65.02 % 1,011.05 mbar 2.47 m/s 237.63 Deg 9.65 µg/m3 2.52 µg/m3
2023-01-28 13:00 23.42 µg/m3 0.97 µg/m3 65.48 µg/m3 7.46 µg/m3 3.69 µg/m3 0.27 mg/m3 13.1 °C 62.58 % 1,011.30 mbar 1.88 m/s 229.92 Deg 7.72 µg/m3 2.78 µg/m3
2023-01-28 12:00 31.49 µg/m3 1.01 µg/m3 55.32 µg/m3 13.55 µg/m3 4.53 µg/m3 0.3 mg/m3 12.15 °C 67.39 % 1,011.83 mbar 1.66 m/s 270.47 Deg 9.51 µg/m3 3.94 µg/m3
2023-01-28 11:00 48.55 µg/m3 1.56 µg/m3 39.17 µg/m3 19.27 µg/m3 9.64 µg/m3 0.49 mg/m3 11.92 °C 73.66 % 1,012.11 mbar 1.1 m/s 224.98 Deg 31.08 µg/m3 7.93 µg/m3
2023-01-28 10:00 75.75 µg/m3 1.97 µg/m3 11.31 µg/m3 19.63 µg/m3 13.1 µg/m3 0.71 mg/m3 9.68 °C 80.06 % 1,011.91 mbar 0.69 m/s 215.22 Deg 50.51 µg/m3 4.36 µg/m3
2023-01-28 09:00 54.01 µg/m3 1.88 µg/m3 33.15 µg/m3 9.68 µg/m3 6.62 µg/m3 0.51 mg/m3 9.47 °C 79.56 % 1,011.31 mbar 1.36 m/s 180.12 Deg 48.7 µg/m3 14.8 µg/m3
2023-01-28 08:00 83.91 µg/m3 4.42 µg/m3 2.24 µg/m3 21.76 µg/m3 14.75 µg/m3 1.18 mg/m3 9.25 °C 81.99 % 1,010.75 mbar 0.37 m/s 237.31 Deg 171.98 µg/m3 9.34 µg/m3
2023-01-28 07:00 67.66 µg/m3 2.79 µg/m3 1.44 µg/m3 13.12 µg/m3 9.17 µg/m3 0.82 mg/m3 8.74 °C 83.02 % 1,010.56 mbar 0.72 m/s 241.57 Deg 100.7 µg/m3 5.93 µg/m3
2023-01-28 06:00 63.75 µg/m3 2.17 µg/m3 1.41 µg/m3 9.47 µg/m3 6.76 µg/m3 0.58 mg/m3 8.97 °C 81.68 % 1,010.43 mbar 0.21 m/s 236.51 Deg 79.24 µg/m3 3.1 µg/m3
2023-01-28 05:00 43.42 µg/m3 0.9 µg/m3 13.4 µg/m3 5.51 µg/m3 3.93 µg/m3 0.29 mg/m3 9.2 °C 79.07 % 1,010.17 mbar 0.22 m/s 201.13 Deg 8.63 µg/m3 1.99 µg/m3
2023-01-28 04:00 24.67 µg/m3 0.81 µg/m3 48.37 µg/m3 5.67 µg/m3 4.02 µg/m3 0.24 mg/m3 9.22 °C 79.59 % 1,010.26 mbar 0.6 m/s 236.51 Deg 2.45 µg/m3 2.05 µg/m3
2023-01-28 03:00 14.2 µg/m3 0.73 µg/m3 60.48 µg/m3 5.13 µg/m3 3.81 µg/m3 0.38 mg/m3 9.41 °C 78.74 % 1,010.35 mbar 1.15 m/s 221.85 Deg 0.25 µg/m3 2.94 µg/m3
2023-01-28 02:00 51.12 µg/m3 0.92 µg/m3 34.53 µg/m3 9.03 µg/m3 6.27 µg/m3 0.43 mg/m3 10.21 °C 76.55 % 1,010.16 mbar 1.27 m/s 240.04 Deg 9.99 µg/m3 3.88 µg/m3
2023-01-28 01:00 43.44 µg/m3 1.43 µg/m3 21.02 µg/m3 15.34 µg/m3 11.63 µg/m3 0.67 mg/m3 10.09 °C 80.77 % 1,010.15 mbar 0.7 m/s 231.47 Deg 22.55 µg/m3 9.08 µg/m3
2023-01-28 00:00 57.24 µg/m3 2.16 µg/m3 3.53 µg/m3 28.72 µg/m3 21.64 µg/m3 0.92 mg/m3 9.91 °C 83.92 % 1,010.23 mbar 0.65 m/s 238.8 Deg 40 µg/m3 6.88 µg/m3
2023-01-27 23:00 67.47 µg/m3 1.82 µg/m3 4.14 µg/m3 25.18 µg/m3 17.62 µg/m3 0.79 mg/m3 10.19 °C 82.01 % 1,010.24 mbar 0.66 m/s 235.48 Deg 34.14 µg/m3 5.72 µg/m3
2023-01-27 22:00 49.94 µg/m3 1.12 µg/m3 28.28 µg/m3 18.06 µg/m3 12.44 µg/m3 0.52 mg/m3 10.69 °C 78.28 % 1,009.98 mbar 0.71 m/s 226.57 Deg 11.51 µg/m3 4.67 µg/m3
2023-01-27 21:00 45.54 µg/m3 1.27 µg/m3 30.73 µg/m3 16.12 µg/m3 11.93 µg/m3 0.53 mg/m3 11.62 °C 78.01 % 1,009.98 mbar 1.3 m/s 231.63 Deg 13.56 µg/m3 4.51 µg/m3
2023-01-27 20:00 55.84 µg/m3 1.4 µg/m3 22.47 µg/m3 20.85 µg/m3 14.24 µg/m3 0.62 mg/m3 12.33 °C 71.7 % 1,009.29 mbar 1.23 m/s 251.57 Deg 17.32 µg/m3 4.78 µg/m3
2023-01-27 19:00 61.78 µg/m3 1.19 µg/m3 19.77 µg/m3 24.42 µg/m3 10.66 µg/m3 0.54 mg/m3 12.58 °C 69.55 % 1,008.55 mbar 1.16 m/s 247.23 Deg 15.22 µg/m3 3.99 µg/m3
2023-01-27 18:00 53.76 µg/m3 1.22 µg/m3 29.9 µg/m3 16.07 µg/m3 8.95 µg/m3 0.5 mg/m3 12.61 °C 71.21 % 1,007.77 mbar 1.85 m/s 256.12 Deg 13.64 µg/m3 3.46 µg/m3
2023-01-27 17:00 40.3 µg/m3 1.11 µg/m3 44.69 µg/m3 14.22 µg/m3 6.99 µg/m3 0.41 mg/m3 12.95 °C 68.24 % 1,007.33 mbar 2.49 m/s 255.55 Deg 10.79 µg/m3 3.04 µg/m3
2023-01-27 16:00 37.47 µg/m3 1.3 µg/m3 47.97 µg/m3 13.71 µg/m3 8.44 µg/m3 0.44 mg/m3 12.97 °C 71.79 % 1,006.59 mbar 2.44 m/s 261.25 Deg 10.11 µg/m3 2.52 µg/m3
2023-01-27 15:00 27.59 µg/m3 0.89 µg/m3 56.9 µg/m3 25.78 µg/m3 7.28 µg/m3 0.38 mg/m3 13.66 °C 62.42 % 1,005.94 mbar 2.99 m/s 271.42 Deg 7.94 µg/m3 2.15 µg/m3
2023-01-27 14:00 26.52 µg/m3 0.94 µg/m3 63.06 µg/m3 25.59 µg/m3 6.95 µg/m3 0.36 mg/m3 13.93 °C 61.6 % 1,005.50 mbar 3.32 m/s 262.35 Deg 8.37 µg/m3 2.57 µg/m3
2023-01-27 13:00 31.12 µg/m3 1.09 µg/m3 54.62 µg/m3 36.29 µg/m3 9.71 µg/m3 0.39 mg/m3 13.29 °C 67.18 % 1,005.38 mbar 2.59 m/s 277.2 Deg 10.43 µg/m3 2.36 µg/m3
2023-01-27 12:00 43.77 µg/m3 1.12 µg/m3 42.95 µg/m3 32.39 µg/m3 8.17 µg/m3 0.38 mg/m3 12.93 °C 68.77 % 1,005.74 mbar 2.23 m/s 271.83 Deg 14.5 µg/m3 2.31 µg/m3
2023-01-27 11:00 40.26 µg/m3 1.08 µg/m3 46.69 µg/m3 15.06 µg/m3 5.05 µg/m3 0.37 mg/m3 12.85 °C 70.09 % 1,005.49 mbar 1.93 m/s 275.75 Deg 12.57 µg/m3 2.73 µg/m3
2023-01-27 10:00 44.74 µg/m3 1.02 µg/m3 40.75 µg/m3 12.47 µg/m3 4.67 µg/m3 0.39 mg/m3 12.38 °C 71.29 % 1,004.77 mbar 2.09 m/s 274.63 Deg 13.11 µg/m3 3.15 µg/m3
2023-01-27 09:00 53.5 µg/m3 1.16 µg/m3 34.38 µg/m3 8.19 µg/m3 5.54 µg/m3 0.41 mg/m3 12.17 °C 74.68 % 1,003.92 mbar 2.15 m/s 263.93 Deg 18.91 µg/m3 3.15 µg/m3
2023-01-27 08:00 49.7 µg/m3 1.04 µg/m3 37.63 µg/m3 8.61 µg/m3 5.88 µg/m3 0.41 mg/m3 11.57 °C 75.01 % 1,003.17 mbar 2.53 m/s 254.93 Deg 15.59 µg/m3 2.31 µg/m3
2023-01-27 07:00 37.23 µg/m3 0.9 µg/m3 46.17 µg/m3 6.99 µg/m3 4.93 µg/m3 0.38 mg/m3 10.51 °C 81.74 % 1,003.00 mbar 2.31 m/s 272.1 Deg 9.33 µg/m3 3.31 µg/m3
2023-01-27 06:00 36.82 µg/m3 0.8 µg/m3 36.55 µg/m3 4.89 µg/m3 3.76 µg/m3 0.33 mg/m3 9.67 °C 83.73 % 1,002.96 mbar 0.68 m/s 215.38 Deg 3.28 µg/m3 1.57 µg/m3
2023-01-27 05:00 9.69 µg/m3 0.71 µg/m3 68.29 µg/m3 4.69 µg/m3 3.3 µg/m3 0.2 mg/m3 9.88 °C 81.38 % 1,002.97 mbar 1.74 m/s 281.49 Deg 0.24 µg/m3 1.47 µg/m3
2023-01-27 04:00 3.42 µg/m3 0.65 µg/m3 73.3 µg/m3 4.11 µg/m3 2.96 µg/m3 0.19 mg/m3 10.75 °C 76.87 % 1,003.48 mbar 2.17 m/s 228.43 Deg -0.18 µg/m3 1.57 µg/m3
2023-01-27 03:00 3.16 µg/m3 0.7 µg/m3 74.66 µg/m3 5.06 µg/m3 3.49 µg/m3 0.29 mg/m3 10.52 °C 78.96 % 1,004.04 mbar 2.08 m/s 225.57 Deg -0.2 µg/m3 2.47 µg/m3
2023-01-27 02:00 44.7 µg/m3 0.97 µg/m3 34.25 µg/m3 10.51 µg/m3 7.99 µg/m3 0.42 mg/m3 9.93 °C 78.9 % 1,004.67 mbar 0.8 m/s 248.92 Deg 6.78 µg/m3 3.36 µg/m3
2023-01-27 01:00 37.79 µg/m3 0.88 µg/m3 30.71 µg/m3 9.83 µg/m3 7.91 µg/m3 0.53 mg/m3 9.52 °C 79.58 % 1,005.21 mbar 0.6 m/s 198.03 Deg 2.1 µg/m3 4.51 µg/m3
2023-01-27 00:00 43.26 µg/m3 1.23 µg/m3 25.93 µg/m3 15 µg/m3 12.29 µg/m3 0.64 mg/m3 9.09 °C 80.8 % 1,005.76 mbar 0.87 m/s 230.15 Deg 13.68 µg/m3 7.09 µg/m3
2023-01-26 23:00 57.66 µg/m3 1.57 µg/m3 5.12 µg/m3 23.22 µg/m3 18.34 µg/m3 0.81 mg/m3 8.87 °C 82.03 % 1,006.45 mbar 0.62 m/s 226.6 Deg 21.19 µg/m3 5.83 µg/m3
2023-01-26 22:00 60.12 µg/m3 1.4 µg/m3 9.48 µg/m3 19.52 µg/m3 14.84 µg/m3 0.73 mg/m3 9 °C 82.56 % 1,006.81 mbar 0.89 m/s 230.13 Deg 16.71 µg/m3 5.72 µg/m3
2023-01-26 21:00 64.91 µg/m3 1.51 µg/m3 10.45 µg/m3 20.46 µg/m3 15.63 µg/m3 0.71 mg/m3 9.55 °C 79.79 % 1,006.97 mbar 0.84 m/s 232.2 Deg 19.68 µg/m3 4.41 µg/m3
2023-01-26 20:00 55.69 µg/m3 1.46 µg/m3 28.52 µg/m3 14.8 µg/m3 11.5 µg/m3 0.61 mg/m3 9.63 °C 79.22 % 1,006.71 mbar 0.89 m/s 267.63 Deg 13.2 µg/m3 5.67 µg/m3
2023-01-26 19:00 62.63 µg/m3 1.35 µg/m3 24.7 µg/m3 9.21 µg/m3 7.13 µg/m3 0.6 mg/m3 9.42 °C 80.28 % 1,006.78 mbar 0.71 m/s 271.85 Deg 23.19 µg/m3 3.62 µg/m3
2023-01-26 18:00 45.26 µg/m3 1.26 µg/m3 46.39 µg/m3 9.73 µg/m3 6.5 µg/m3 0.5 mg/m3 10.01 °C 70.32 % 1,006.70 mbar 1.81 m/s 274.7 Deg 12.69 µg/m3 2.47 µg/m3
2023-01-26 17:00 29.22 µg/m3 1.01 µg/m3 57.26 µg/m3 36.27 µg/m3 8.18 µg/m3 0.4 mg/m3 12.1 °C 56.07 % 1,005.87 mbar 2.97 m/s 225.4 Deg 5.8 µg/m3 2.47 µg/m3
2023-01-26 16:00 26.74 µg/m3 0.95 µg/m3 60.95 µg/m3 44.62 µg/m3 9.19 µg/m3 0.4 mg/m3 13.35 °C 51.32 % 1,005.93 mbar 3.11 m/s 231.88 Deg 8.43 µg/m3 2.47 µg/m3
2023-01-26 15:00 24.94 µg/m3 0.92 µg/m3 63.07 µg/m3 51.3 µg/m3 10.47 µg/m3 0.39 mg/m3 13.69 °C 51.83 % 1,005.98 mbar 3.36 m/s 235.53 Deg 7.36 µg/m3 2.26 µg/m3
2023-01-26 14:00 21.44 µg/m3 0.9 µg/m3 66 µg/m3 52.95 µg/m3 10.16 µg/m3 0.41 mg/m3 13.88 °C 50.81 % 1,006.44 mbar 3.61 m/s 223.22 Deg 6.45 µg/m3 2.2 µg/m3
2023-01-26 13:00 18.68 µg/m3 0.91 µg/m3 69.09 µg/m3 52.01 µg/m3 9.35 µg/m3 0.41 mg/m3 14.03 °C 49.23 % 1,007.16 mbar 3.77 m/s 218.48 Deg 4.4 µg/m3 43.67 µg/m3
2023-01-26 12:00 0 µg/m3 0 µg/m3 0 µg/m3 64.64 µg/m3 11.29 µg/m3 0 mg/m3 14.01 °C 49.44 % 1,008.18 mbar 3.62 m/s 221.78 Deg 0 µg/m3 58.37 µg/m3
2023-01-26 11:00 0 µg/m3 0 µg/m3 0 µg/m3 67.87 µg/m3 11.61 µg/m3 0 mg/m3 13.77 °C 50.12 % 1,008.79 mbar 2.83 m/s 222.93 Deg 0 µg/m3 10.71 µg/m3
2023-01-26 10:00 0 µg/m3 0 µg/m3 0 µg/m3 203.86 µg/m3 45.7 µg/m3 0 mg/m3 12.1 °C 67.95 % 1,008.90 mbar 0.74 m/s 186.56 Deg 0 µg/m3 19.32 µg/m3
2023-01-26 09:00 93.17 µg/m3 4.26 µg/m3 3.78 µg/m3 89.17 µg/m3 42.37 µg/m3 1.52 mg/m3 10.16 °C 74.35 % 1,008.91 mbar 0.49 m/s 222.28 Deg 210.6 µg/m3 17.01 µg/m3
2023-01-26 08:00 96.71 µg/m3 4.46 µg/m3 3.39 µg/m3 55.57 µg/m3 37.05 µg/m3 1.62 mg/m3 9.19 °C 78.81 % 1,009.03 mbar 0.64 m/s 229.42 Deg 239.61 µg/m3 14.07 µg/m3
2023-01-26 07:00 77.78 µg/m3 2.86 µg/m3 2.72 µg/m3 31.8 µg/m3 21.2 µg/m3 1.12 mg/m3 9.1 °C 80.4 % 1,009.25 mbar 0.92 m/s 235.67 Deg 139.74 µg/m3 5.35 µg/m3
2023-01-26 06:00 61.4 µg/m3 1.24 µg/m3 6.87 µg/m3 18.42 µg/m3 12.28 µg/m3 0.51 mg/m3 9.69 °C 77.49 % 1,009.53 mbar 0.74 m/s 241.83 Deg 36.71 µg/m3 2.1 µg/m3
2023-01-26 05:00 18.29 µg/m3 0.7 µg/m3 52.78 µg/m3 7.85 µg/m3 5.27 µg/m3 0.19 mg/m3 10.54 °C 73.41 % 1,009.92 mbar 0.73 m/s 252.85 Deg 0.11 µg/m3 1.31 µg/m3
2023-01-26 04:00 6.24 µg/m3 0.75 µg/m3 74.59 µg/m3 8.76 µg/m3 3.82 µg/m3 0.17 mg/m3 11.32 °C 70.03 % 1,010.29 mbar 1.24 m/s 260.02 Deg -0.18 µg/m3 1.36 µg/m3
2023-01-26 03:00 4.76 µg/m3 0.74 µg/m3 77.38 µg/m3 13.05 µg/m3 4.12 µg/m3 0.18 mg/m3 11.91 °C 58.31 % 1,010.49 mbar 1.72 m/s 236.67 Deg -0.1 µg/m3 1.42 µg/m3
2023-01-26 02:00 5.02 µg/m3 0.69 µg/m3 77.66 µg/m3 12.45 µg/m3 3.96 µg/m3 0.19 mg/m3 12.07 °C 61.93 % 1,010.82 mbar 1.98 m/s 217.55 Deg -0.06 µg/m3 1.73 µg/m3
2023-01-26 01:00 8.22 µg/m3 0.71 µg/m3 72.6 µg/m3 13.65 µg/m3 4.66 µg/m3 0.22 mg/m3 12.19 °C 59.69 % 1,011.40 mbar 1.48 m/s 216.3 Deg -0.06 µg/m3 2.73 µg/m3
2023-01-26 00:00 18.54 µg/m3 0.78 µg/m3 61.38 µg/m3 29.05 µg/m3 8.43 µg/m3 0.28 mg/m3 12.35 °C 62.31 % 1,012.01 mbar 1.19 m/s 210.18 Deg 0.48 µg/m3 10.13 µg/m3
2023-01-25 23:00 63.18 µg/m3 1.83 µg/m3 11.43 µg/m3 63.15 µg/m3 40.53 µg/m3 1.06 mg/m3 11.62 °C 70.95 % 1,012.75 mbar 0.49 m/s 228.62 Deg 62.51 µg/m3 15.06 µg/m3
2023-01-25 22:00 72.89 µg/m3 2.22 µg/m3 3.61 µg/m3 72.56 µg/m3 48.37 µg/m3 1.26 mg/m3 11.49 °C 72.33 % 1,013.35 mbar 0.47 m/s 217.54 Deg 85.35 µg/m3 16.95 µg/m3
2023-01-25 21:00 79.85 µg/m3 2.3 µg/m3 3.42 µg/m3 67.9 µg/m3 45.27 µg/m3 1.21 mg/m3 11.62 °C 71.46 % 1,013.64 mbar 0.46 m/s 132.86 Deg 96.66 µg/m3 14.22 µg/m3
2023-01-25 20:00 83.68 µg/m3 2.05 µg/m3 4.15 µg/m3 142.88 µg/m3 40.11 µg/m3 1.12 mg/m3 11.81 °C 68.92 % 1,013.84 mbar 0.92 m/s 233.97 Deg 80.05 µg/m3 12.91 µg/m3
2023-01-25 19:00 96.39 µg/m3 2.28 µg/m3 3.8 µg/m3 217.59 µg/m3 43.77 µg/m3 1.16 mg/m3 12.72 °C 63.97 % 1,013.91 mbar 0.65 m/s 228.52 Deg 98.05 µg/m3 6.61 µg/m3
2023-01-25 18:00 82.6 µg/m3 1.22 µg/m3 16.17 µg/m3 139.64 µg/m3 29.47 µg/m3 0.61 mg/m3 13.41 °C 58.58 % 1,013.82 mbar 0.67 m/s 257.99 Deg 29.51 µg/m3 3.57 µg/m3
2023-01-25 17:00 52.46 µg/m3 0.85 µg/m3 44.96 µg/m3 92.87 µg/m3 17.86 µg/m3 0.39 mg/m3 14.11 °C 56.42 % 1,013.91 mbar 1.3 m/s 257.98 Deg 11.59 µg/m3 3.15 µg/m3
2023-01-25 16:00 46.65 µg/m3 0.83 µg/m3 52.62 µg/m3 81.64 µg/m3 19.66 µg/m3 0.36 mg/m3 14.33 °C 56.48 % 1,013.95 mbar 1.81 m/s 256.43 Deg 12.09 µg/m3 3.41 µg/m3
2023-01-25 15:00 33.7 µg/m3 0.8 µg/m3 62.7 µg/m3 68.41 µg/m3 13.69 µg/m3 0.29 mg/m3 14.51 °C 57.02 % 1,014.02 mbar 2.02 m/s 240.92 Deg 8.36 µg/m3 2.31 µg/m3
2023-01-25 14:00 27.61 µg/m3 0.78 µg/m3 66.57 µg/m3 45.78 µg/m3 9.7 µg/m3 0.26 mg/m3 14.64 °C 58.99 % 1,014.48 mbar 2.34 m/s 232.6 Deg 8.71 µg/m3 2.31 µg/m3
2023-01-25 13:00 27.26 µg/m3 0.78 µg/m3 66.6 µg/m3 58.24 µg/m3 11.32 µg/m3 0.25 mg/m3 14.93 °C 56.26 % 1,015.28 mbar 1.47 m/s 213.4 Deg 7.03 µg/m3 2.26 µg/m3
2023-01-25 12:00 29.7 µg/m3 0.81 µg/m3 61.13 µg/m3 51.87 µg/m3 10.67 µg/m3 0.26 mg/m3 14.43 °C 60.01 % 1,016.22 mbar 0.91 m/s 198.6 Deg 7.79 µg/m3 2.83 µg/m3
2023-01-25 11:00 37.04 µg/m3 1.05 µg/m3 56.65 µg/m3 63.44 µg/m3 12.67 µg/m3 0.32 mg/m3 14.28 °C 62.96 % 1,016.80 mbar 1.15 m/s 231.43 Deg 15.15 µg/m3 14.64 µg/m3
2023-01-25 10:00 112.16 µg/m3 4.54 µg/m3 5.6 µg/m3 58.17 µg/m3 33.53 µg/m3 1.45 mg/m3 12.32 °C 76.35 % 1,016.93 mbar 0.67 m/s 195.46 Deg 237.34 µg/m3 25.35 µg/m3
2023-01-25 09:00 112.02 µg/m3 5.21 µg/m3 3.76 µg/m3 45.75 µg/m3 30.5 µg/m3 2.03 mg/m3 10.37 °C 83.02 % 1,016.54 mbar 0.47 m/s 231.2 Deg 289.3 µg/m3 23.46 µg/m3
2023-01-25 08:00 99.05 µg/m3 4.97 µg/m3 3.21 µg/m3 35.76 µg/m3 23.88 µg/m3 1.85 mg/m3 9.74 °C 84.57 % 1,016.27 mbar 0.47 m/s 233.05 Deg 277.78 µg/m3 15.9 µg/m3
2023-01-25 07:00 81.62 µg/m3 3.27 µg/m3 2.4 µg/m3 20.2 µg/m3 14 µg/m3 1.3 mg/m3 9.46 °C 85.04 % 1,016.23 mbar 0.78 m/s 240.18 Deg 165.85 µg/m3 6.77 µg/m3
2023-01-25 06:00 46.13 µg/m3 1.35 µg/m3 6.86 µg/m3 11.98 µg/m3 8.97 µg/m3 0.61 mg/m3 9.39 °C 86.75 % 1,016.33 mbar 1.18 m/s 236.17 Deg 36.3 µg/m3 3.62 µg/m3
2023-01-25 05:00 35.43 µg/m3 0.93 µg/m3 6.88 µg/m3 9.17 µg/m3 7.05 µg/m3 0.3 mg/m3 9.76 °C 86.69 % 1,016.55 mbar 0.71 m/s 243.75 Deg 12.45 µg/m3 3.62 µg/m3
2023-01-25 04:00 28.41 µg/m3 0.92 µg/m3 8.24 µg/m3 11.53 µg/m3 9.62 µg/m3 0.36 mg/m3 9.43 °C 86.95 % 1,016.59 mbar 0.73 m/s 241.41 Deg 6.47 µg/m3 4.72 µg/m3
2023-01-25 03:00 32.27 µg/m3 0.87 µg/m3 5.08 µg/m3 14.79 µg/m3 12.73 µg/m3 0.49 mg/m3 9 °C 87.3 % 1,016.99 mbar 0.63 m/s 244.73 Deg 3.1 µg/m3 5.67 µg/m3
2023-01-25 02:00 43.8 µg/m3 1.07 µg/m3 2.62 µg/m3 17.84 µg/m3 15.12 µg/m3 0.58 mg/m3 8.97 °C 87.14 % 1,017.24 mbar 0.74 m/s 245.38 Deg 11.28 µg/m3 6.77 µg/m3
2023-01-25 01:00 50.85 µg/m3 1.21 µg/m3 2.29 µg/m3 21.52 µg/m3 18.15 µg/m3 0.78 mg/m3 9.16 °C 86.39 % 1,017.76 mbar 0.82 m/s 239.9 Deg 24.69 µg/m3 8.77 µg/m3
2023-01-25 00:00 57.41 µg/m3 1.43 µg/m3 2.67 µg/m3 22.34 µg/m3 18.36 µg/m3 0.82 mg/m3 9.6 °C 84.73 % 1,018.29 mbar 0.82 m/s 242.82 Deg 38.65 µg/m3 7.51 µg/m3
2023-01-24 23:00 74.21 µg/m3 1.76 µg/m3 2.48 µg/m3 17.25 µg/m3 13.04 µg/m3 0.74 mg/m3 10.62 °C 80.1 % 1,018.74 mbar 0.8 m/s 227.23 Deg 65.67 µg/m3 3.94 µg/m3
2023-01-24 22:00 56.15 µg/m3 1 µg/m3 32.77 µg/m3 5.7 µg/m3 4.4 µg/m3 0.45 mg/m3 12.01 °C 73.92 % 1,018.86 mbar 1.02 m/s 232.8 Deg 18.42 µg/m3 3.2 µg/m3
2023-01-24 21:00 39.92 µg/m3 1.01 µg/m3 49.55 µg/m3 5.33 µg/m3 4.05 µg/m3 0.32 mg/m3 12.04 °C 74.02 % 1,018.63 mbar 1.93 m/s 76.83 Deg 22.59 µg/m3 2.2 µg/m3
2023-01-24 20:00 39.99 µg/m3 1.1 µg/m3 52.54 µg/m3 5.12 µg/m3 3.82 µg/m3 0.34 mg/m3 11.94 °C 72.86 % 1,018.98 mbar 2.39 m/s 68.65 Deg 24.35 µg/m3 3.1 µg/m3
2023-01-24 19:00 60.1 µg/m3 1.31 µg/m3 35.79 µg/m3 6.69 µg/m3 4.9 µg/m3 0.41 mg/m3 11.56 °C 74.72 % 1,019.54 mbar 1.96 m/s 65.62 Deg 37.6 µg/m3 4.57 µg/m3
2023-01-24 18:00 79.12 µg/m3 1.53 µg/m3 18.81 µg/m3 12.18 µg/m3 8.57 µg/m3 0.59 mg/m3 11.22 °C 81.78 % 1,019.85 mbar 1.65 m/s 102.98 Deg 50.29 µg/m3 5.67 µg/m3
2023-01-24 17:00 76.83 µg/m3 1.44 µg/m3 15.16 µg/m3 12.57 µg/m3 8.55 µg/m3 0.58 mg/m3 11.45 °C 77.62 % 1,020.09 mbar 0.62 m/s 146.34 Deg 39.87 µg/m3 3.36 µg/m3
2023-01-24 16:00 45.75 µg/m3 1.2 µg/m3 45.92 µg/m3 10.78 µg/m3 5.58 µg/m3 0.37 mg/m3 12.75 °C 63.08 % 1,020.29 mbar 2.2 m/s 118.18 Deg 30.24 µg/m3 2.57 µg/m3
2023-01-24 15:00 39.71 µg/m3 1.21 µg/m3 60.23 µg/m3 21.2 µg/m3 6.66 µg/m3 0.33 mg/m3 14.09 °C 55.34 % 1,019.84 mbar 3.89 m/s 69.3 Deg 34.16 µg/m3 2.31 µg/m3
2023-01-24 14:00 37.21 µg/m3 1.2 µg/m3 60.92 µg/m3 36.51 µg/m3 9.45 µg/m3 0.29 mg/m3 14.26 °C 54.12 % 1,019.63 mbar 4.46 m/s 68.08 Deg 34.16 µg/m3 2.83 µg/m3
2023-01-24 13:00 28.53 µg/m3 1.18 µg/m3 66.76 µg/m3 35.34 µg/m3 9.71 µg/m3 0.3 mg/m3 14.32 °C 55.64 % 1,020.13 mbar 4.87 m/s 62.13 Deg 29.35 µg/m3 2.2 µg/m3
2023-01-24 12:00 17.74 µg/m3 1.14 µg/m3 68.78 µg/m3 54.94 µg/m3 11.8 µg/m3 0.28 mg/m3 14.47 °C 55.6 % 1,021.12 mbar 5.15 m/s 63.32 Deg 28.06 µg/m3 2.57 µg/m3
2023-01-24 11:00 30 µg/m3 1.24 µg/m3 62.76 µg/m3 72.62 µg/m3 14.74 µg/m3 0.31 mg/m3 14.15 °C 55.24 % 1,022.06 mbar 4.64 m/s 64.4 Deg 32.45 µg/m3 3.25 µg/m3
2023-01-24 10:00 32.59 µg/m3 1.37 µg/m3 50.56 µg/m3 41.81 µg/m3 8.84 µg/m3 0.34 mg/m3 13.64 °C 59.93 % 1,022.35 mbar 3.62 m/s 67.87 Deg 44.54 µg/m3 6.25 µg/m3
2023-01-24 09:00 94.04 µg/m3 3.46 µg/m3 17.35 µg/m3 32.64 µg/m3 12.21 µg/m3 0.93 mg/m3 12.38 °C 62.45 % 1,022.21 mbar 1.33 m/s 49.2 Deg 167.07 µg/m3 21.47 µg/m3
2023-01-24 08:00 106.98 µg/m3 4.61 µg/m3 3.09 µg/m3 29.21 µg/m3 19.57 µg/m3 1.55 mg/m3 9.95 °C 77.22 % 1,022.01 mbar 0.82 m/s 187.43 Deg 251.5 µg/m3 13.33 µg/m3
2023-01-24 07:00 62.27 µg/m3 2.75 µg/m3 2.17 µg/m3 32.36 µg/m3 21.58 µg/m3 0.95 mg/m3 8.54 °C 77.19 % 1,021.76 mbar 0.93 m/s 231.67 Deg 120.79 µg/m3 7.61 µg/m3
2023-01-24 06:00 43.64 µg/m3 1.59 µg/m3 3.08 µg/m3 24.43 µg/m3 16.29 µg/m3 0.56 mg/m3 8.11 °C 77.83 % 1,021.80 mbar 0.77 m/s 241.83 Deg 47.06 µg/m3 4.62 µg/m3
2023-01-24 05:00 36.14 µg/m3 1.18 µg/m3 3.12 µg/m3 19.7 µg/m3 13.16 µg/m3 0.33 mg/m3 8.49 °C 76.15 % 1,021.78 mbar 0.43 m/s 240.95 Deg 18.47 µg/m3 3.94 µg/m3
2023-01-24 04:00 32.82 µg/m3 1.08 µg/m3 9 µg/m3 16.2 µg/m3 10.96 µg/m3 0.34 mg/m3 9 °C 73.26 % 1,022.05 mbar 0.39 m/s 248.88 Deg 4.89 µg/m3 3.57 µg/m3
2023-01-24 03:00 24.7 µg/m3 0.93 µg/m3 15.69 µg/m3 15.15 µg/m3 10.37 µg/m3 0.37 mg/m3 8.92 °C 72.26 % 1,022.33 mbar 0.69 m/s 226.95 Deg 0.82 µg/m3 4.78 µg/m3
2023-01-24 02:00 37.29 µg/m3 0.93 µg/m3 10.71 µg/m3 20.13 µg/m3 13.7 µg/m3 0.44 mg/m3 8.96 °C 71.24 % 1,022.22 mbar 0.73 m/s 230.37 Deg 2.94 µg/m3 8.71 µg/m3
2023-01-24 01:00 47.87 µg/m3 1.49 µg/m3 2.42 µg/m3 38.37 µg/m3 25.67 µg/m3 0.8 mg/m3 8.69 °C 72.85 % 1,022.00 mbar 0.8 m/s 238.52 Deg 34.15 µg/m3 11.23 µg/m3
2023-01-24 00:00 55.66 µg/m3 1.84 µg/m3 3.03 µg/m3 52.57 µg/m3 35.05 µg/m3 1.03 mg/m3 9.09 °C 71.66 % 1,022.03 mbar 0.65 m/s 245.22 Deg 59.2 µg/m3 14.91 µg/m3
2023-01-23 23:00 62.9 µg/m3 2.52 µg/m3 3.26 µg/m3 69.41 µg/m3 46.27 µg/m3 1.24 mg/m3 9.41 °C 70.88 % 1,022.04 mbar 0.73 m/s 239.23 Deg 102.73 µg/m3 17.06 µg/m3
2023-01-23 22:00 70.11 µg/m3 2.98 µg/m3 3.67 µg/m3 73.08 µg/m3 48.72 µg/m3 1.33 mg/m3 10.16 °C 68.17 % 1,021.78 mbar 0.44 m/s 238.8 Deg 130.64 µg/m3 14.96 µg/m3
2023-01-23 21:00 79.88 µg/m3 2.96 µg/m3 3.06 µg/m3 113.69 µg/m3 47.72 µg/m3 1.25 mg/m3 10.63 °C 65.45 % 1,021.22 mbar 0.61 m/s 239.52 Deg 130.34 µg/m3 18.95 µg/m3
2023-01-23 20:00 88.56 µg/m3 3.16 µg/m3 3.39 µg/m3 192.6 µg/m3 50.77 µg/m3 1.48 mg/m3 11.48 °C 66.07 % 1,020.70 mbar 0.48 m/s 236.15 Deg 144.82 µg/m3 8.45 µg/m3
2023-01-23 19:00 78.08 µg/m3 1.53 µg/m3 10.32 µg/m3 106.74 µg/m3 23.91 µg/m3 0.75 mg/m3 12.21 °C 62.74 % 1,020.25 mbar 0.72 m/s 222.82 Deg 42.62 µg/m3 5.14 µg/m3
2023-01-23 18:00 57.89 µg/m3 1 µg/m3 28.53 µg/m3 77.81 µg/m3 16.64 µg/m3 0.42 mg/m3 12.95 °C 53.4 % 1,019.78 mbar 0.83 m/s 195.15 Deg 9.97 µg/m3 2.89 µg/m3
2023-01-23 17:00 36.7 µg/m3 0.87 µg/m3 50.84 µg/m3 48.13 µg/m3 8.86 µg/m3 0.29 mg/m3 13.77 °C 47.24 % 1,019.38 mbar 1.69 m/s 204.2 Deg 5.67 µg/m3 2.2 µg/m3
2023-01-23 16:00 25.21 µg/m3 0.87 µg/m3 63.28 µg/m3 30.7 µg/m3 6.17 µg/m3 0.22 mg/m3 14.23 °C 45.81 % 1,019.02 mbar 1.98 m/s 215.65 Deg 5.71 µg/m3 2.2 µg/m3
2023-01-23 15:00 21.33 µg/m3 0.91 µg/m3 64.55 µg/m3 33.49 µg/m3 6.24 µg/m3 0.19 mg/m3 14.33 °C 46.69 % 1,018.51 mbar 2.35 m/s 214.75 Deg 6.87 µg/m3 1.99 µg/m3
2023-01-23 14:00 20.35 µg/m3 0.82 µg/m3 63.32 µg/m3 32.36 µg/m3 6.31 µg/m3 0.19 mg/m3 14.08 °C 50.71 % 1,018.39 mbar 2.26 m/s 216.6 Deg 5.97 µg/m3 2.31 µg/m3
2023-01-23 13:00 19.58 µg/m3 0.82 µg/m3 63.72 µg/m3 34.72 µg/m3 6.37 µg/m3 0.21 mg/m3 14.11 °C 49.07 % 1,018.44 mbar 2.39 m/s 224.13 Deg 6.58 µg/m3 3.1 µg/m3
2023-01-23 12:00 26.52 µg/m3 0.97 µg/m3 56.84 µg/m3 71.61 µg/m3 14.78 µg/m3 0.22 mg/m3 14.09 °C 47.76 % 1,018.59 mbar 2.1 m/s 221.07 Deg 10.71 µg/m3 2.62 µg/m3
2023-01-23 11:00 26.43 µg/m3 1.01 µg/m3 55.17 µg/m3 60.71 µg/m3 10.09 µg/m3 0.22 mg/m3 13.63 °C 49.2 % 1,018.71 mbar 2.09 m/s 219.48 Deg 8.32 µg/m3 6.14 µg/m3
2023-01-23 10:00 71.33 µg/m3 2.17 µg/m3 19.51 µg/m3 57.31 µg/m3 14.69 µg/m3 0.69 mg/m3 13.16 °C 55.54 % 1,018.41 mbar 0.86 m/s 215.43 Deg 82.16 µg/m3 18.74 µg/m3
2023-01-23 09:00 115.14 µg/m3 5.48 µg/m3 4.84 µg/m3 46.97 µg/m3 22.78 µg/m3 1.85 mg/m3 10.37 °C 70.59 % 1,017.77 mbar 0.41 m/s 235.57 Deg 299.5 µg/m3 33.07 µg/m3
2023-01-23 08:00 116.54 µg/m3 7.32 µg/m3 4.01 µg/m3 34.27 µg/m3 23.79 µg/m3 2.45 mg/m3 8.36 °C 80.37 % 1,017.12 mbar 0.58 m/s 240.78 Deg 436.34 µg/m3 22.73 µg/m3
2023-01-23 07:00 92.26 µg/m3 4.9 µg/m3 2.85 µg/m3 22.56 µg/m3 16.05 µg/m3 1.67 mg/m3 8.55 °C 78.69 % 1,016.73 mbar 0.63 m/s 247.7 Deg 276.13 µg/m3 8.98 µg/m3
2023-01-23 06:00 66.42 µg/m3 2.06 µg/m3 5.97 µg/m3 11.93 µg/m3 8.56 µg/m3 0.87 mg/m3 9.34 °C 72.77 % 1,016.27 mbar 0.32 m/s 235.47 Deg 86.62 µg/m3 2.26 µg/m3
2023-01-23 05:00 25.29 µg/m3 0.73 µg/m3 41.94 µg/m3 3.48 µg/m3 2.5 µg/m3 0.25 mg/m3 9.29 °C 67.37 % 1,015.92 mbar 0.33 m/s 125.56 Deg 1.52 µg/m3 1.52 µg/m3
2023-01-23 04:00 10.09 µg/m3 0.84 µg/m3 60.71 µg/m3 4.22 µg/m3 2.54 µg/m3 0.17 mg/m3 9.56 °C 66.56 % 1,015.71 mbar 0.82 m/s 239.08 Deg 0.07 µg/m3 1.78 µg/m3
2023-01-23 03:00 9.3 µg/m3 0.73 µg/m3 59.07 µg/m3 4.06 µg/m3 2.93 µg/m3 0.24 mg/m3 9.29 °C 67.81 % 1,015.76 mbar 0.85 m/s 229.63 Deg -0.18 µg/m3 1.57 µg/m3
2023-01-23 02:00 11.78 µg/m3 0.69 µg/m3 59.32 µg/m3 3.98 µg/m3 2.23 µg/m3 0.2 mg/m3 9.46 °C 68.81 % 1,015.47 mbar 1.08 m/s 239.08 Deg 0.26 µg/m3 2.57 µg/m3
2023-01-23 01:00 11.45 µg/m3 0.79 µg/m3 60.05 µg/m3 4.22 µg/m3 2.69 µg/m3 0.31 mg/m3 9.25 °C 68.05 % 1,015.26 mbar 1.38 m/s 231.75 Deg 0.42 µg/m3 2.26 µg/m3
2023-01-23 00:00 17.72 µg/m3 0.75 µg/m3 52.97 µg/m3 6.88 µg/m3 5.13 µg/m3 0.32 mg/m3 9.05 °C 71.73 % 1,015.19 mbar 0.93 m/s 224.58 Deg 0.48 µg/m3 2.1 µg/m3
2023-01-22 23:00 19.84 µg/m3 0.72 µg/m3 55.84 µg/m3 6.62 µg/m3 4.8 µg/m3 0.25 mg/m3 9.04 °C 73.68 % 1,015.08 mbar 1.24 m/s 254.9 Deg 1.9 µg/m3 2.47 µg/m3
2023-01-22 22:00 33.12 µg/m3 0.76 µg/m3 40.68 µg/m3 11.76 µg/m3 8.51 µg/m3 0.38 mg/m3 9.52 °C 70.69 % 1,014.57 mbar 1.11 m/s 253.98 Deg 4.54 µg/m3 3.94 µg/m3
2023-01-22 21:00 52.08 µg/m3 0.88 µg/m3 23.54 µg/m3 14.64 µg/m3 10.63 µg/m3 0.49 mg/m3 9.38 °C 70.9 % 1,013.99 mbar 0.76 m/s 246.25 Deg 14.93 µg/m3 4.04 µg/m3
2023-01-22 20:00 34.92 µg/m3 0.75 µg/m3 43.34 µg/m3 9.11 µg/m3 6.89 µg/m3 0.38 mg/m3 9.01 °C 70.21 % 1,013.61 mbar 1.05 m/s 223.55 Deg 4 µg/m3 3.15 µg/m3
2023-01-22 19:00 30.69 µg/m3 0.78 µg/m3 48.13 µg/m3 9.17 µg/m3 7.47 µg/m3 0.32 mg/m3 8.96 °C 72.98 % 1,013.01 mbar 1.05 m/s 210.62 Deg 3.94 µg/m3 2.26 µg/m3
2023-01-22 18:00 29.26 µg/m3 0.72 µg/m3 50.57 µg/m3 7.69 µg/m3 5.59 µg/m3 0.3 mg/m3 9.61 °C 72.18 % 1,012.42 mbar 2.21 m/s 251.83 Deg 5.52 µg/m3 2.47 µg/m3
2023-01-22 17:00 26.85 µg/m3 0.69 µg/m3 48.18 µg/m3 10.15 µg/m3 6.99 µg/m3 0.31 mg/m3 10.88 °C 71.5 % 1,011.84 mbar 1.2 m/s 245.13 Deg 3.02 µg/m3 1.89 µg/m3
2023-01-22 16:00 21.45 µg/m3 0.72 µg/m3 55 µg/m3 5.56 µg/m3 4.01 µg/m3 0.27 mg/m3 10.43 °C 77.92 % 1,011.78 mbar 1.3 m/s 273.05 Deg 4.4 µg/m3 2.1 µg/m3
2023-01-22 15:00 16.03 µg/m3 0.71 µg/m3 57.14 µg/m3 6.39 µg/m3 5.06 µg/m3 0.25 mg/m3 9.84 °C 82.87 % 1,011.65 mbar 2.07 m/s 255.93 Deg 2.4 µg/m3 1.68 µg/m3
2023-01-22 14:00 14.84 µg/m3 0.73 µg/m3 58.36 µg/m3 5.46 µg/m3 4.1 µg/m3 0.26 mg/m3 10.43 °C 82.02 % 1,011.18 mbar 2.2 m/s 265.17 Deg 3.01 µg/m3 1.84 µg/m3
2023-01-22 13:00 14.96 µg/m3 0.75 µg/m3 58.36 µg/m3 6.32 µg/m3 4.68 µg/m3 0.25 mg/m3 11.2 °C 81.53 % 1,011.31 mbar 2.69 m/s 255.33 Deg 2.59 µg/m3 1.84 µg/m3
2023-01-22 12:00 15.44 µg/m3 0.77 µg/m3 56.94 µg/m3 6.32 µg/m3 4.58 µg/m3 0.27 mg/m3 11.4 °C 83.06 % 1,011.20 mbar 2.33 m/s 255.02 Deg 4.45 µg/m3 2.36 µg/m3
2023-01-22 11:00 23.79 µg/m3 0.81 µg/m3 47.16 µg/m3 9.43 µg/m3 6.67 µg/m3 0.32 mg/m3 11.09 °C 83.95 % 1,011.51 mbar 2.15 m/s 247.42 Deg 4.49 µg/m3 3.62 µg/m3
2023-01-22 10:00 40.59 µg/m3 0.96 µg/m3 34.03 µg/m3 13.23 µg/m3 9.06 µg/m3 0.39 mg/m3 12.28 °C 78.12 % 1,011.40 mbar 0.67 m/s 173.57 Deg 14.05 µg/m3 2.47 µg/m3
2023-01-22 09:00 30.91 µg/m3 0.94 µg/m3 46.13 µg/m3 9.99 µg/m3 6.77 µg/m3 0.3 mg/m3 11.25 °C 81.15 % 1,011.71 mbar 0.69 m/s 271.12 Deg 10.31 µg/m3 2.26 µg/m3
2023-01-22 08:00 27.48 µg/m3 0.87 µg/m3 44.41 µg/m3 11 µg/m3 7.51 µg/m3 0.31 mg/m3 10.94 °C 82.96 % 1,011.87 mbar 0.93 m/s 241.71 Deg 4.53 µg/m3 1.89 µg/m3
2023-01-22 07:00 20.57 µg/m3 0.95 µg/m3 51.48 µg/m3 23.37 µg/m3 9.13 µg/m3 0.23 mg/m3 11.45 °C 70.88 % 1,011.76 mbar 1.98 m/s 235.88 Deg 7.38 µg/m3 4.15 µg/m3
2023-01-22 06:00 59.48 µg/m3 1.47 µg/m3 5.81 µg/m3 114.14 µg/m3 24.21 µg/m3 0.43 mg/m3 11.42 °C 60.68 % 1,010.97 mbar 0.2 m/s 284.22 Deg 40.52 µg/m3 2.99 µg/m3
2023-01-22 05:00 34.4 µg/m3 0.95 µg/m3 32.42 µg/m3 48.9 µg/m3 11.28 µg/m3 0.29 mg/m3 12.18 °C 52.58 % 1,011.31 mbar 0.29 m/s 268.14 Deg 8.49 µg/m3 2.26 µg/m3
2023-01-22 04:00 24.79 µg/m3 0.93 µg/m3 49.64 µg/m3 38.91 µg/m3 9.33 µg/m3 0.23 mg/m3 12.2 °C 51.45 % 1,011.95 mbar 0.25 m/s 223.53 Deg 1.04 µg/m3 1.36 µg/m3
2023-01-22 03:00 10.05 µg/m3 0.84 µg/m3 63.92 µg/m3 19.54 µg/m3 5.9 µg/m3 0.2 mg/m3 12.39 °C 51.72 % 1,012.60 mbar 0.83 m/s 207.78 Deg 0.26 µg/m3 1.52 µg/m3
2023-01-22 02:00 9.93 µg/m3 0.81 µg/m3 64.18 µg/m3 18.7 µg/m3 5.56 µg/m3 0.21 mg/m3 12.32 °C 53.01 % 1,013.07 mbar 0.89 m/s 203.57 Deg -0 µg/m3 1.78 µg/m3
2023-01-22 01:00 19.69 µg/m3 0.82 µg/m3 54.6 µg/m3 25.78 µg/m3 7.05 µg/m3 0.25 mg/m3 12.22 °C 54.01 % 1,013.10 mbar 1.05 m/s 213.75 Deg 1.76 µg/m3 3.04 µg/m3
2023-01-22 00:00 20.83 µg/m3 0.8 µg/m3 53.23 µg/m3 28.68 µg/m3 8.32 µg/m3 0.42 mg/m3 12.21 °C 53.2 % 1,013.46 mbar 1.02 m/s 207.05 Deg 1.34 µg/m3 2.68 µg/m3
2023-01-21 23:00 33.5 µg/m3 0.91 µg/m3 42.6 µg/m3 41.96 µg/m3 12.19 µg/m3 0.38 mg/m3 12.06 °C 52.29 % 1,013.71 mbar 1.05 m/s 217.52 Deg 4.34 µg/m3 3.25 µg/m3
2023-01-21 22:00 42.74 µg/m3 0.93 µg/m3 32.86 µg/m3 64.47 µg/m3 16.74 µg/m3 0.46 mg/m3 12.01 °C 53.23 % 1,013.74 mbar 0.83 m/s 213.37 Deg 7.61 µg/m3 3.15 µg/m3
2023-01-21 21:00 37.86 µg/m3 0.85 µg/m3 39.09 µg/m3 48.7 µg/m3 13.63 µg/m3 0.36 mg/m3 12.36 °C 50.2 % 1,013.73 mbar 1.29 m/s 219.03 Deg 5.18 µg/m3 2.83 µg/m3
2023-01-21 20:00 32.29 µg/m3 0.84 µg/m3 44.24 µg/m3 44.53 µg/m3 13.52 µg/m3 0.36 mg/m3 12.48 °C 53.87 % 1,013.52 mbar 1.6 m/s 221.22 Deg 4.29 µg/m3 2.05 µg/m3
2023-01-21 19:00 28.12 µg/m3 0.82 µg/m3 48.75 µg/m3 43.39 µg/m3 12.23 µg/m3 0.3 mg/m3 12.65 °C 53.83 % 1,013.14 mbar 1.8 m/s 221.43 Deg 4.18 µg/m3 2.83 µg/m3
2023-01-21 18:00 38.05 µg/m3 0.9 µg/m3 39.49 µg/m3 61.36 µg/m3 15.08 µg/m3 0.35 mg/m3 12.85 °C 51.22 % 1,012.74 mbar 1.17 m/s 228.2 Deg 6.41 µg/m3 2.15 µg/m3
2023-01-21 17:00 22.81 µg/m3 0.82 µg/m3 55.21 µg/m3 41.41 µg/m3 12.3 µg/m3 0.27 mg/m3 13.38 °C 48.6 % 1,012.43 mbar 2.28 m/s 239.48 Deg 5.18 µg/m3 1.73 µg/m3
2023-01-21 16:00 15.37 µg/m3 0.82 µg/m3 63.27 µg/m3 51.01 µg/m3 13 µg/m3 0.22 mg/m3 13.71 °C 49.75 % 1,012.03 mbar 2.96 m/s 243.5 Deg 3.51 µg/m3 1.63 µg/m3
2023-01-21 15:00 15.49 µg/m3 0.84 µg/m3 64.19 µg/m3 42.83 µg/m3 11.77 µg/m3 0.23 mg/m3 13.81 °C 51.79 % 1,011.70 mbar 3.48 m/s 244.65 Deg 4.86 µg/m3 1.57 µg/m3
2023-01-21 14:00 13.78 µg/m3 0.84 µg/m3 64.08 µg/m3 45.26 µg/m3 10.95 µg/m3 0.22 mg/m3 13.62 °C 49.22 % 1,011.68 mbar 4.27 m/s 248.37 Deg 5.53 µg/m3 1.68 µg/m3
2023-01-21 13:00 15.33 µg/m3 0.83 µg/m3 64.07 µg/m3 28.58 µg/m3 8.52 µg/m3 0.23 mg/m3 13.26 °C 51.71 % 1,011.83 mbar 3.96 m/s 250.12 Deg 6.14 µg/m3 1.89 µg/m3
2023-01-21 12:00 17.34 µg/m3 0.81 µg/m3 58.73 µg/m3 36.09 µg/m3 10 µg/m3 0.24 mg/m3 12.92 °C 52.2 % 1,012.47 mbar 3.85 m/s 254.78 Deg 6.54 µg/m3 1.89 µg/m3
2023-01-21 11:00 18.99 µg/m3 0.83 µg/m3 56.15 µg/m3 39.01 µg/m3 10.56 µg/m3 0.24 mg/m3 12.51 °C 56.97 % 1,012.65 mbar 3.61 m/s 245.77 Deg 6.64 µg/m3 2.15 µg/m3
2023-01-21 10:00 23.69 µg/m3 0.83 µg/m3 51.2 µg/m3 27.9 µg/m3 9.96 µg/m3 0.28 mg/m3 11.98 °C 61.75 % 1,012.24 mbar 2.9 m/s 257.15 Deg 7.17 µg/m3 1.78 µg/m3
2023-01-21 09:00 22.9 µg/m3 0.78 µg/m3 52.21 µg/m3 23.12 µg/m3 8.5 µg/m3 0.23 mg/m3 11.35 °C 62.82 % 1,011.65 mbar 2.86 m/s 256.73 Deg 5.54 µg/m3 1.73 µg/m3
2023-01-21 08:00 19.22 µg/m3 0.71 µg/m3 54.65 µg/m3 14.71 µg/m3 6.41 µg/m3 0.19 mg/m3 11.02 °C 64.73 % 1,011.22 mbar 2.89 m/s 251.73 Deg 3.54 µg/m3 1.47 µg/m3
2023-01-21 07:00 13.71 µg/m3 0.74 µg/m3 60.39 µg/m3 11.5 µg/m3 5.45 µg/m3 0.16 mg/m3 11.1 °C 64.63 % 1,010.73 mbar 3.56 m/s 252.97 Deg 2.53 µg/m3 1.31 µg/m3
2023-01-21 06:00 4.97 µg/m3 0.69 µg/m3 71.24 µg/m3 13.07 µg/m3 5.95 µg/m3 0.13 mg/m3 11.87 °C 58.09 % 1,010.34 mbar 3.6 m/s 250.87 Deg 0.65 µg/m3 1.15 µg/m3
2023-01-21 05:00 2.79 µg/m3 0.7 µg/m3 73.57 µg/m3 13.49 µg/m3 6.28 µg/m3 0.12 mg/m3 11.88 °C 57.02 % 1,010.09 mbar 3.6 m/s 250.03 Deg 0.09 µg/m3 1.05 µg/m3
2023-01-21 04:00 1.42 µg/m3 0.74 µg/m3 75.31 µg/m3 13.86 µg/m3 6.99 µg/m3 0.11 mg/m3 11.96 °C 56.91 % 1,010.34 mbar 3.87 m/s 249.48 Deg -0.13 µg/m3 1.05 µg/m3
2023-01-21 03:00 0.98 µg/m3 0.68 µg/m3 74.48 µg/m3 14.11 µg/m3 7.14 µg/m3 0.11 mg/m3 12.21 °C 57.82 % 1,010.45 mbar 4.15 m/s 245.12 Deg -0.2 µg/m3 1.15 µg/m3
2023-01-21 02:00 4.21 µg/m3 0.68 µg/m3 73.35 µg/m3 16.36 µg/m3 8.27 µg/m3 0.11 mg/m3 12.31 °C 56.24 % 1,010.19 mbar 4.07 m/s 247.52 Deg 0.91 µg/m3 1.21 µg/m3
2023-01-21 01:00 2.9 µg/m3 0.7 µg/m3 73.48 µg/m3 14.89 µg/m3 7.42 µg/m3 0.12 mg/m3 12.49 °C 53.66 % 1,010.26 mbar 4.6 m/s 247.82 Deg 0.14 µg/m3 1.31 µg/m3
2023-01-21 00:00 4.42 µg/m3 0.66 µg/m3 73.32 µg/m3 15.35 µg/m3 7.86 µg/m3 0.14 mg/m3 12.48 °C 56.09 % 1,010.29 mbar 4.05 m/s 246.58 Deg 0.61 µg/m3 1.26 µg/m3
2023-01-20 23:00 6.09 µg/m3 0.7 µg/m3 71.13 µg/m3 17.4 µg/m3 10.67 µg/m3 0.17 mg/m3 12.28 °C 69.49 % 1,010.20 mbar 4.05 m/s 253.47 Deg 0.85 µg/m3 1.31 µg/m3
2023-01-20 22:00 7.26 µg/m3 0.7 µg/m3 69.73 µg/m3 17.17 µg/m3 10.52 µg/m3 0.18 mg/m3 12.69 °C 69.01 % 1,010.10 mbar 4.29 m/s 254.93 Deg 1.24 µg/m3 1.42 µg/m3
2023-01-20 21:00 12.07 µg/m3 0.7 µg/m3 65.3 µg/m3 20.74 µg/m3 8.27 µg/m3 0.18 mg/m3 14.58 °C 54.66 % 1,009.31 mbar 3.98 m/s 247.42 Deg 2.33 µg/m3 1.47 µg/m3
2023-01-20 20:00 12.42 µg/m3 0.67 µg/m3 64.79 µg/m3 86.78 µg/m3 27.68 µg/m3 0.18 mg/m3 14.52 °C 59.01 % 1,008.88 mbar 4 m/s 228.15 Deg 2.53 µg/m3 1.47 µg/m3
2023-01-20 19:00 13.56 µg/m3 0.73 µg/m3 66.97 µg/m3 86.26 µg/m3 26.06 µg/m3 0.18 mg/m3 14.64 °C 60.8 % 1,008.59 mbar 4.68 m/s 221.82 Deg 1.9 µg/m3 1.52 µg/m3
2023-01-20 18:00 14.58 µg/m3 0.72 µg/m3 68.91 µg/m3 44.71 µg/m3 15.26 µg/m3 0.19 mg/m3 14.32 °C 59.77 % 1,008.60 mbar 4.72 m/s 221.5 Deg 2.11 µg/m3 1.57 µg/m3
2023-01-20 17:00 14.53 µg/m3 0.72 µg/m3 72.17 µg/m3 33.93 µg/m3 11.88 µg/m3 0.17 mg/m3 14.26 °C 57.02 % 1,008.75 mbar 5.65 m/s 222.62 Deg 1.96 µg/m3 1.52 µg/m3
2023-01-20 16:00 14.33 µg/m3 0.74 µg/m3 71.61 µg/m3 44.45 µg/m3 12.28 µg/m3 0.14 mg/m3 14.51 °C 51.16 % 1,008.73 mbar 5.83 m/s 220.9 Deg 2.92 µg/m3 1.42 µg/m3
2023-01-20 15:00 14.25 µg/m3 0.71 µg/m3 68.46 µg/m3 49.12 µg/m3 12.49 µg/m3 0.13 mg/m3 14.83 °C 49.41 % 1,008.92 mbar 5.42 m/s 215.6 Deg 3.84 µg/m3 1.52 µg/m3
2023-01-20 14:00 16.27 µg/m3 0.74 µg/m3 65.33 µg/m3 54.44 µg/m3 13.22 µg/m3 0.15 mg/m3 15.04 °C 47 % 1,009.59 mbar 5.14 m/s 219.5 Deg 5.07 µg/m3 1.57 µg/m3
2023-01-20 13:00 14.98 µg/m3 0.73 µg/m3 64.67 µg/m3 47.55 µg/m3 11.11 µg/m3 0.15 mg/m3 15.03 °C 47.4 % 1,010.52 mbar 4.52 m/s 217.68 Deg 4.59 µg/m3 1.52 µg/m3
2023-01-20 12:00 18.48 µg/m3 0.77 µg/m3 59.16 µg/m3 36.39 µg/m3 8.27 µg/m3 0.16 mg/m3 14.43 °C 49.29 % 1,011.91 mbar 4.25 m/s 218.75 Deg 5.9 µg/m3 1.84 µg/m3
2023-01-20 11:00 22.13 µg/m3 0.82 µg/m3 54.11 µg/m3 27.6 µg/m3 7.33 µg/m3 0.18 mg/m3 13.91 °C 53.39 % 1,012.80 mbar 3.74 m/s 220.45 Deg 6.49 µg/m3 2.36 µg/m3
2023-01-20 10:00 44.59 µg/m3 1.32 µg/m3 36.92 µg/m3 25.78 µg/m3 8.91 µg/m3 0.35 mg/m3 12.69 °C 61.81 % 1,013.04 mbar 2.4 m/s 221.77 Deg 33.32 µg/m3 11.49 µg/m3
2023-01-20 09:00 91.21 µg/m3 2.94 µg/m3 3.45 µg/m3 33.09 µg/m3 22.06 µg/m3 1.03 mg/m3 10.7 °C 78.02 % 1,013.03 mbar 0.29 m/s 240.06 Deg 146 µg/m3 7.14 µg/m3
2023-01-20 08:00 80.76 µg/m3 1.94 µg/m3 4.35 µg/m3 15.44 µg/m3 10.5 µg/m3 0.74 mg/m3 9.83 °C 79.85 % 1,013.18 mbar 0.66 m/s 222.29 Deg 81.19 µg/m3 3.15 µg/m3
2023-01-20 07:00 37.57 µg/m3 0.84 µg/m3 5.51 µg/m3 6.42 µg/m3 4.38 µg/m3 0.27 mg/m3 9.85 °C 75.14 % 1,013.12 mbar 0.99 m/s 271.3 Deg 8.66 µg/m3 1.47 µg/m3
2023-01-20 06:00 24.93 µg/m3 0.75 µg/m3 3.77 µg/m3 6.97 µg/m3 3.76 µg/m3 0.2 mg/m3 10.01 °C 69.62 % 1,012.84 mbar 1.62 m/s 242.8 Deg 3.43 µg/m3 1.15 µg/m3
2023-01-20 05:00 18.08 µg/m3 0.67 µg/m3 6.92 µg/m3 5.51 µg/m3 3.81 µg/m3 0.16 mg/m3 9.84 °C 75.95 % 1,012.60 mbar 1.28 m/s 268.23 Deg 2.08 µg/m3 1.15 µg/m3
2023-01-20 04:00 16.56 µg/m3 0.82 µg/m3 9.12 µg/m3 4.48 µg/m3 3.21 µg/m3 0.15 mg/m3 9.91 °C 75.1 % 1,012.60 mbar 2.29 m/s 265.25 Deg 1.58 µg/m3 1.21 µg/m3
2023-01-20 03:00 15.97 µg/m3 0.68 µg/m3 13.52 µg/m3 10.73 µg/m3 4.9 µg/m3 0.13 mg/m3 10.75 °C 69.59 % 1,012.65 mbar 2.66 m/s 269.35 Deg 1.73 µg/m3 1.15 µg/m3
2023-01-20 02:00 18.62 µg/m3 0.69 µg/m3 8.77 µg/m3 8.32 µg/m3 3.81 µg/m3 0.13 mg/m3 11.55 °C 57.87 % 1,012.46 mbar 3.78 m/s 254.48 Deg 1.86 µg/m3 1.26 µg/m3
2023-01-20 01:00 19.6 µg/m3 0.67 µg/m3 7.89 µg/m3 7.04 µg/m3 3.36 µg/m3 0.15 mg/m3 11.23 °C 60.16 % 1,012.29 mbar 3.61 m/s 250.77 Deg 1.95 µg/m3 1.42 µg/m3
2023-01-20 00:00 22.82 µg/m3 0.69 µg/m3 6.68 µg/m3 10.61 µg/m3 4.52 µg/m3 0.17 mg/m3 11.43 °C 61.47 % 1,012.53 mbar 3.14 m/s 249.98 Deg 2.76 µg/m3 1.68 µg/m3
2023-01-19 23:00 27.18 µg/m3 0.7 µg/m3 4.03 µg/m3 10.36 µg/m3 5.12 µg/m3 0.2 mg/m3 10.43 °C 68.01 % 1,012.48 mbar 2.15 m/s 246.22 Deg 4.45 µg/m3 1.52 µg/m3
2023-01-19 22:00 23.88 µg/m3 0.65 µg/m3 10.71 µg/m3 11.5 µg/m3 5.32 µg/m3 0.18 mg/m3 10.3 °C 67.7 % 1,012.74 mbar 3.47 m/s 260.72 Deg 2.69 µg/m3 1.84 µg/m3
2023-01-19 21:00 31.19 µg/m3 0.69 µg/m3 8.61 µg/m3 13.85 µg/m3 6.36 µg/m3 0.24 mg/m3 11.95 °C 57.17 % 1,011.53 mbar 2.67 m/s 258.92 Deg 5.53 µg/m3 2.36 µg/m3
2023-01-19 20:00 36.14 µg/m3 0.74 µg/m3 6.37 µg/m3 13.88 µg/m3 7.55 µg/m3 0.3 mg/m3 11.07 °C 68.55 % 1,011.01 mbar 1.91 m/s 267.58 Deg 8.63 µg/m3 2.31 µg/m3
2023-01-19 19:00 39.83 µg/m3 0.7 µg/m3 2.95 µg/m3 10.67 µg/m3 7.34 µg/m3 0.28 mg/m3 10.31 °C 73.5 % 1,010.68 mbar 2.26 m/s 250.77 Deg 8.12 µg/m3 2.73 µg/m3
2023-01-19 18:00 41.73 µg/m3 0.76 µg/m3 10.55 µg/m3 11.81 µg/m3 5.7 µg/m3 0.31 mg/m3 11.15 °C 68.8 % 1,009.86 mbar 3.11 m/s 268.07 Deg 12.32 µg/m3 2.99 µg/m3
2023-01-19 17:00 48.15 µg/m3 0.9 µg/m3 2.26 µg/m3 10.54 µg/m3 6.18 µg/m3 0.36 mg/m3 10.85 °C 72.89 % 1,009.16 mbar 1.89 m/s 240.92 Deg 18.58 µg/m3 2.36 µg/m3
2023-01-19 16:00 45.61 µg/m3 0.71 µg/m3 2.13 µg/m3 7.22 µg/m3 4.96 µg/m3 0.29 mg/m3 9.22 °C 78.05 % 1,009.46 mbar 2.05 m/s 213.42 Deg 9.71 µg/m3 2.31 µg/m3
2023-01-19 15:00 44.62 µg/m3 0.78 µg/m3 3.63 µg/m3 9.3 µg/m3 6.34 µg/m3 0.3 mg/m3 10.22 °C 78.66 % 1,009.61 mbar 2.56 m/s 225.93 Deg 13.29 µg/m3 2.52 µg/m3
2023-01-19 14:00 44.34 µg/m3 0.83 µg/m3 0.37 µg/m3 9.09 µg/m3 6.12 µg/m3 0.31 mg/m3 11.15 °C 76.85 % 1,009.00 mbar 1.17 m/s 223.62 Deg 15.91 µg/m3 2.47 µg/m3
2023-01-19 13:00 43.65 µg/m3 0.88 µg/m3 0.63 µg/m3 9.82 µg/m3 6.6 µg/m3 0.29 mg/m3 11.43 °C 79.6 % 1,009.44 mbar 1.62 m/s 234.45 Deg 14.88 µg/m3 2.52 µg/m3
2023-01-19 12:00 44.45 µg/m3 0.87 µg/m3 1 µg/m3 12.8 µg/m3 7.13 µg/m3 0.29 mg/m3 12.08 °C 74.7 % 1,010.23 mbar 1.77 m/s 222.4 Deg 16.54 µg/m3 2.99 µg/m3
2023-01-19 11:00 45.35 µg/m3 1.08 µg/m3 0.87 µg/m3 42.73 µg/m3 8.63 µg/m3 0.32 mg/m3 14.28 °C 58.2 % 1,009.97 mbar 1.86 m/s 234.23 Deg 26.44 µg/m3 3.94 µg/m3
2023-01-19 10:00 47.37 µg/m3 1.36 µg/m3 0.82 µg/m3 56.74 µg/m3 11.44 µg/m3 0.56 mg/m3 14.53 °C 54.37 % 1,009.76 mbar 1.67 m/s 228.17 Deg 47.24 µg/m3 5.25 µg/m3
2023-01-19 09:00 47.56 µg/m3 1.7 µg/m3 0.34 µg/m3 79.98 µg/m3 17.23 µg/m3 0.68 mg/m3 13.97 °C 55.22 % 1,009.33 mbar 0.95 m/s 219.48 Deg 71.13 µg/m3 4.78 µg/m3
2023-01-19 08:00 43.38 µg/m3 1.34 µg/m3 0.29 µg/m3 84.68 µg/m3 18.62 µg/m3 0.59 mg/m3 13.15 °C 60.52 % 1,009.10 mbar 0.63 m/s 231.73 Deg 49.02 µg/m3 3.04 µg/m3
2023-01-19 07:00 37.25 µg/m3 0.95 µg/m3 0.06 µg/m3 42.4 µg/m3 11.74 µg/m3 0.44 mg/m3 12.95 °C 64.8 % 1,008.59 mbar 0.69 m/s 226.2 Deg 29.56 µg/m3 1.78 µg/m3
2023-01-19 06:00 30.92 µg/m3 0.74 µg/m3 0.13 µg/m3 28.25 µg/m3 8.26 µg/m3 0.33 mg/m3 13.11 °C 65.57 % 1,008.11 mbar 0.66 m/s 227.84 Deg 12.95 µg/m3 1.26 µg/m3
2023-01-19 05:00 27.63 µg/m3 0.65 µg/m3 0.28 µg/m3 18.18 µg/m3 5.82 µg/m3 0.28 mg/m3 13.52 °C 65.78 % 1,007.59 mbar 0.84 m/s 236.5 Deg 10.5 µg/m3 1.05 µg/m3
2023-01-19 04:00 26.95 µg/m3 0.68 µg/m3 0.81 µg/m3 11.57 µg/m3 5.7 µg/m3 0.28 mg/m3 13.92 °C 68.27 % 1,007.72 mbar 1.11 m/s 248 Deg 12.29 µg/m3 1 µg/m3
2023-01-19 03:00 26.43 µg/m3 0.64 µg/m3 3.69 µg/m3 16.12 µg/m3 7.28 µg/m3 0.29 mg/m3 14.46 °C 70.34 % 1,007.56 mbar 0.96 m/s 256.63 Deg 11.91 µg/m3 1 µg/m3
2023-01-19 02:00 25.13 µg/m3 0.64 µg/m3 5.73 µg/m3 16.11 µg/m3 10.57 µg/m3 0.29 mg/m3 14.77 °C 75.26 % 1,007.44 mbar 1.69 m/s 261.97 Deg 9.94 µg/m3 1.1 µg/m3
2023-01-19 01:00 24.14 µg/m3 0.6 µg/m3 6.11 µg/m3 96.78 µg/m3 37.95 µg/m3 0.29 mg/m3 16.13 °C 71.73 % 1,006.67 mbar 1.93 m/s 261.52 Deg 7.15 µg/m3 1.15 µg/m3
2023-01-19 00:00 26.72 µg/m3 0.63 µg/m3 3.84 µg/m3 381.77 µg/m3 125.79 µg/m3 0.28 mg/m3 17.48 °C 64.17 % 1,006.18 mbar 2.45 m/s 221.07 Deg 7.36 µg/m3 1.05 µg/m3
2023-01-18 23:00 26.83 µg/m3 0.6 µg/m3 4.95 µg/m3 353.06 µg/m3 114.78 µg/m3 0.28 mg/m3 17.56 °C 61.02 % 1,005.92 mbar 2.48 m/s 210.05 Deg 6.8 µg/m3 1.21 µg/m3
2023-01-18 22:00 28.22 µg/m3 0.57 µg/m3 4.1 µg/m3 308.65 µg/m3 96.7 µg/m3 0.29 mg/m3 17.35 °C 61.13 % 1,006.05 mbar 2.44 m/s 211.22 Deg 7.17 µg/m3 1.31 µg/m3
2023-01-18 21:00 30.19 µg/m3 0.57 µg/m3 4.97 µg/m3 178.68 µg/m3 57.37 µg/m3 0.31 mg/m3 16.96 °C 68.03 % 1,006.07 mbar 2.63 m/s 207.62 Deg 6.71 µg/m3 1.47 µg/m3
2023-01-18 20:00 31.26 µg/m3 0.63 µg/m3 5.2 µg/m3 75 µg/m3 36.87 µg/m3 0.33 mg/m3 17.06 °C 72.62 % 1,005.81 mbar 2.89 m/s 210.35 Deg 6.26 µg/m3 1.68 µg/m3
2023-01-18 19:00 33.21 µg/m3 0.65 µg/m3 4.78 µg/m3 86.97 µg/m3 45.3 µg/m3 0.37 mg/m3 17.32 °C 72.51 % 1,005.42 mbar 2.65 m/s 208.25 Deg 7.75 µg/m3 1.89 µg/m3
2023-01-18 18:00 33.75 µg/m3 0.63 µg/m3 4.48 µg/m3 155.42 µg/m3 50.65 µg/m3 0.36 mg/m3 17.4 °C 70.26 % 1,005.09 mbar 3.05 m/s 207.23 Deg 7.04 µg/m3 1.73 µg/m3
2023-01-18 17:00 32.59 µg/m3 0.57 µg/m3 5.92 µg/m3 165.54 µg/m3 54.05 µg/m3 0.32 mg/m3 17.89 °C 68.72 % 1,004.89 mbar 3.72 m/s 209.1 Deg 5.71 µg/m3 1.52 µg/m3
2023-01-18 16:00 30.5 µg/m3 0.56 µg/m3 7.72 µg/m3 179.6 µg/m3 58.32 µg/m3 0.3 mg/m3 18.43 °C 66.05 % 1,004.86 mbar 4.23 m/s 212.57 Deg 4.59 µg/m3 1.57 µg/m3
2023-01-18 15:00 31.73 µg/m3 0.53 µg/m3 9.21 µg/m3 201.91 µg/m3 63.46 µg/m3 0.3 mg/m3 18.95 °C 64.11 % 1,004.99 mbar 4.12 m/s 212.63 Deg 4.29 µg/m3 1.52 µg/m3
2023-01-18 14:00 28.35 µg/m3 0.52 µg/m3 10.69 µg/m3 212.14 µg/m3 65.03 µg/m3 0.32 mg/m3 18.94 °C 63.88 % 1,005.25 mbar 4.87 m/s 212.95 Deg 3.97 µg/m3 1.47 µg/m3
2023-01-18 13:00 15.94 µg/m3 0.6 µg/m3 44.86 µg/m3 225.64 µg/m3 70.67 µg/m3 0.27 mg/m3 19 °C 61.78 % 1,005.66 mbar 4.62 m/s 220.6 Deg 4.84 µg/m3 1.36 µg/m3
2023-01-18 12:00 15.09 µg/m3 0.57 µg/m3 60.6 µg/m3 260.79 µg/m3 79.81 µg/m3 0 mg/m3 18.72 °C 61.93 % 1,006.19 mbar 4.61 m/s 219.82 Deg 4.61 µg/m3 N/A
2023-01-18 11:00 17.99 µg/m3 0.63 µg/m3 58.72 µg/m3 269.83 µg/m3 84.08 µg/m3 0.22 mg/m3 18.43 °C 63.74 % 1,006.56 mbar 3.62 m/s 218.6 Deg 4.76 µg/m3 N/A
2023-01-18 10:00 0 µg/m3 0.61 µg/m3 51.67 µg/m3 297.84 µg/m3 93.58 µg/m3 0.26 mg/m3 17.96 °C 66.82 % 1,006.46 mbar 3.05 m/s 215.75 Deg 0 µg/m3 N/A
2023-01-18 09:00 38.05 µg/m3 0.7 µg/m3 39 µg/m3 286.37 µg/m3 76.43 µg/m3 0.29 mg/m3 17.17 °C 66.01 % 1,006.01 mbar 2.55 m/s 219.98 Deg 10.71 µg/m3 N/A
2023-01-18 08:00 38.56 µg/m3 0.79 µg/m3 33.87 µg/m3 176.38 µg/m3 49.16 µg/m3 0.31 mg/m3 16.4 °C 69.19 % 1,005.43 mbar 3.19 m/s 220.42 Deg 7.99 µg/m3 N/A
2023-01-18 07:00 23.42 µg/m3 0.65 µg/m3 47.43 µg/m3 123.56 µg/m3 35.11 µg/m3 0.24 mg/m3 16.1 °C 67.28 % 1,004.98 mbar 3.29 m/s 220.22 Deg 3.2 µg/m3 N/A
2023-01-18 06:00 8.93 µg/m3 0.55 µg/m3 63.38 µg/m3 121.53 µg/m3 33.92 µg/m3 0.18 mg/m3 16.11 °C 65.53 % 1,004.74 mbar 3.23 m/s 219.98 Deg 0.12 µg/m3 N/A
2023-01-18 05:00 3.52 µg/m3 0.5 µg/m3 71.41 µg/m3 126.58 µg/m3 33.54 µg/m3 0.15 mg/m3 16.45 °C 62.77 % 1,004.95 mbar 2.87 m/s 221.67 Deg -0.6 µg/m3 N/A
2023-01-18 04:00 3.03 µg/m3 0.55 µg/m3 72.33 µg/m3 144.13 µg/m3 42.54 µg/m3 0.14 mg/m3 16.49 °C 61.05 % 1,005.32 mbar 2.48 m/s 220.42 Deg -0.76 µg/m3 N/A
2023-01-18 03:00 2.06 µg/m3 0.55 µg/m3 74.35 µg/m3 242.8 µg/m3 79.72 µg/m3 0.12 mg/m3 16.69 °C 59.06 % 1,005.69 mbar 2.85 m/s 220.08 Deg -0.78 µg/m3 N/A
2023-01-18 02:00 2.95 µg/m3 0.5 µg/m3 74.28 µg/m3 340.55 µg/m3 107.83 µg/m3 0.13 mg/m3 16.85 °C 58.14 % 1,005.79 mbar 2.95 m/s 218.92 Deg -0.69 µg/m3 N/A
2023-01-18 01:00 3.39 µg/m3 0.54 µg/m3 71.29 µg/m3 383.5 µg/m3 118.81 µg/m3 0.12 mg/m3 16.97 °C 58.81 % 1,006.14 mbar 3.22 m/s 221.62 Deg -0.69 µg/m3 N/A
2023-01-18 00:00 4.11 µg/m3 0.54 µg/m3 68.64 µg/m3 407.62 µg/m3 120.75 µg/m3 0.13 mg/m3 17.08 °C 59.15 % 1,006.48 mbar 2.96 m/s 221.98 Deg -0.61 µg/m3 N/A
2023-01-17 23:00 4.82 µg/m3 0.57 µg/m3 68.08 µg/m3 422.02 µg/m3 125.84 µg/m3 0.14 mg/m3 17.34 °C 57.13 % 1,006.46 mbar 3.31 m/s 220.9 Deg -0.48 µg/m3 N/A
2023-01-17 22:00 5.58 µg/m3 0.51 µg/m3 68.86 µg/m3 361.01 µg/m3 105.88 µg/m3 0.14 mg/m3 17.62 °C 54.44 % 1,006.29 mbar 3.48 m/s 221.55 Deg -0.1 µg/m3 N/A
2023-01-17 21:00 6.6 µg/m3 0.56 µg/m3 70.01 µg/m3 266.13 µg/m3 79.3 µg/m3 0.14 mg/m3 17.83 °C 54.33 % 1,006.03 mbar 4.08 m/s 223.15 Deg 0 µg/m3 N/A
2023-01-17 20:00 9.4 µg/m3 0.59 µg/m3 68.61 µg/m3 166.89 µg/m3 46.2 µg/m3 0.16 mg/m3 17.99 °C 53.96 % 1,005.69 mbar 4.26 m/s 222.3 Deg 0.39 µg/m3 N/A
2023-01-17 19:00 17.63 µg/m3 0.55 µg/m3 62.04 µg/m3 110.11 µg/m3 33.42 µg/m3 0.21 mg/m3 17.73 °C 59.25 % 1,005.10 mbar 3.27 m/s 218.13 Deg 1.59 µg/m3 N/A
2023-01-17 18:00 22.23 µg/m3 0.62 µg/m3 57.67 µg/m3 72.73 µg/m3 22.97 µg/m3 0.22 mg/m3 17.55 °C 60.28 % 1,004.65 mbar 3.24 m/s 213.48 Deg 3.78 µg/m3 N/A
2023-01-17 17:00 20.51 µg/m3 0.62 µg/m3 58.55 µg/m3 67.3 µg/m3 20.41 µg/m3 0.21 mg/m3 17.96 °C 60.97 % 1,004.63 mbar 3.79 m/s 213.57 Deg 3.23 µg/m3 N/A
2023-01-17 16:00 16.52 µg/m3 0.54 µg/m3 63.02 µg/m3 70.49 µg/m3 19.82 µg/m3 0.17 mg/m3 18.36 °C 62.48 % 1,004.91 mbar 4.5 m/s 217.45 Deg 3.23 µg/m3 N/A
2023-01-17 15:00 14.24 µg/m3 0.5 µg/m3 64.43 µg/m3 76.44 µg/m3 21.02 µg/m3 0.18 mg/m3 18.53 °C 63.19 % 1,005.22 mbar 4.6 m/s 215.37 Deg 3.1 µg/m3 N/A
2023-01-17 14:00 14.3 µg/m3 0.56 µg/m3 64.4 µg/m3 76.12 µg/m3 22.38 µg/m3 0.18 mg/m3 18.6 °C 64.3 % 1,005.90 mbar 4.85 m/s 214.57 Deg 3.69 µg/m3 N/A
2023-01-17 13:00 13.26 µg/m3 0.57 µg/m3 63.9 µg/m3 83.49 µg/m3 21.36 µg/m3 0.17 mg/m3 18.6 °C 62.92 % 1,006.56 mbar 4.48 m/s 214.85 Deg 3.49 µg/m3 N/A
2023-01-17 12:00 13.83 µg/m3 0.58 µg/m3 63.19 µg/m3 68.64 µg/m3 18.84 µg/m3 0.17 mg/m3 18.12 °C 64.77 % 1,007.40 mbar 4.6 m/s 214.67 Deg 3.46 µg/m3 N/A
2023-01-17 11:00 18.28 µg/m3 0.68 µg/m3 59.05 µg/m3 66.59 µg/m3 17.62 µg/m3 0.25 mg/m3 17.92 °C 64.85 % 1,008.12 mbar 4.63 m/s 220.03 Deg 5.43 µg/m3 N/A
2023-01-17 10:00 23.74 µg/m3 0.67 µg/m3 54.13 µg/m3 66.78 µg/m3 16.66 µg/m3 0.23 mg/m3 17.27 °C 63.48 % 1,008.35 mbar 4.18 m/s 219.65 Deg 5.78 µg/m3 N/A
2023-01-17 09:00 29.21 µg/m3 0.64 µg/m3 51.8 µg/m3 58.34 µg/m3 15.34 µg/m3 0.23 mg/m3 16.88 °C 63.6 % 1,008.64 mbar 3.68 m/s 219.9 Deg 6.35 µg/m3 N/A
2023-01-17 08:00 35.98 µg/m3 0.73 µg/m3 45.59 µg/m3 53.04 µg/m3 16.21 µg/m3 0.26 mg/m3 16.38 °C 65.3 % 1,008.74 mbar 3.19 m/s 219.63 Deg 6.2 µg/m3 N/A
2023-01-17 07:00 28.6 µg/m3 0.61 µg/m3 51.04 µg/m3 55.96 µg/m3 18.5 µg/m3 0.25 mg/m3 16.14 °C 67.87 % 1,009.03 mbar 2.86 m/s 220.83 Deg 3.47 µg/m3 N/A
2023-01-17 06:00 10.46 µg/m3 0.57 µg/m3 68.49 µg/m3 68.46 µg/m3 20.91 µg/m3 0.18 mg/m3 16.11 °C 68.48 % 1,009.18 mbar 3.35 m/s 223.17 Deg 0.18 µg/m3 N/A
2023-01-17 05:00 3.82 µg/m3 0.54 µg/m3 75.82 µg/m3 47.94 µg/m3 17.6 µg/m3 0.17 mg/m3 16.07 °C 70.09 % 1,009.33 mbar 3.46 m/s 221.8 Deg -0.71 µg/m3 N/A
2023-01-17 04:00 3.02 µg/m3 0.56 µg/m3 78.45 µg/m3 35.6 µg/m3 15.88 µg/m3 0.16 mg/m3 16.01 °C 71.35 % 1,009.87 mbar 2.86 m/s 222.87 Deg -0.76 µg/m3 N/A
2023-01-17 03:00 2.98 µg/m3 0.57 µg/m3 80.22 µg/m3 66.07 µg/m3 24.59 µg/m3 0.14 mg/m3 16.02 °C 70.51 % 1,010.44 mbar 2.65 m/s 221.02 Deg -0.75 µg/m3 N/A
2023-01-17 02:00 4.54 µg/m3 0.56 µg/m3 80.3 µg/m3 55.4 µg/m3 18.71 µg/m3 0.13 mg/m3 16.07 °C 68.8 % 1,010.92 mbar 2.62 m/s 223.48 Deg -0.3 µg/m3 N/A
2023-01-17 01:00 4.71 µg/m3 0.56 µg/m3 80.32 µg/m3 45.02 µg/m3 15.51 µg/m3 0.13 mg/m3 15.97 °C 69.04 % 1,011.36 mbar 2.39 m/s 224.07 Deg -0.68 µg/m3 N/A
2023-01-17 00:00 8.87 µg/m3 0.55 µg/m3 77.47 µg/m3 17.19 µg/m3 11.47 µg/m3 0.19 mg/m3 15.77 °C 74.63 % 1,011.92 mbar 1.79 m/s 218.97 Deg -0.51 µg/m3 N/A
2023-01-16 23:00 20.38 µg/m3 0.63 µg/m3 67.66 µg/m3 18.02 µg/m3 12.04 µg/m3 0.22 mg/m3 15.76 °C 75.04 % 1,012.44 mbar 1.52 m/s 217.6 Deg 2.92 µg/m3 N/A
2023-01-16 22:00 28.49 µg/m3 0.66 µg/m3 58.17 µg/m3 20.16 µg/m3 13.45 µg/m3 0.31 mg/m3 15.81 °C 73.95 % 1,012.73 mbar 1.52 m/s 229.3 Deg 2.8 µg/m3 N/A
2023-01-16 21:00 21.67 µg/m3 0.62 µg/m3 71.93 µg/m3 22.55 µg/m3 11.68 µg/m3 0.25 mg/m3 16.02 °C 71.47 % 1,012.63 mbar 2.05 m/s 223.83 Deg 0.44 µg/m3 N/A
2023-01-16 20:00 29.72 µg/m3 0.64 µg/m3 68.72 µg/m3 28.96 µg/m3 12.61 µg/m3 0.27 mg/m3 16.07 °C 69.37 % 1,012.52 mbar 2.37 m/s 224.07 Deg 5.07 µg/m3 N/A
2023-01-16 19:00 39.16 µg/m3 0.65 µg/m3 59.87 µg/m3 35.07 µg/m3 13.35 µg/m3 0.31 mg/m3 16.04 °C 68.17 % 1,012.38 mbar 1.9 m/s 222.48 Deg 5.66 µg/m3 N/A
2023-01-16 18:00 37.39 µg/m3 0.61 µg/m3 60.35 µg/m3 36.14 µg/m3 14.82 µg/m3 0.32 mg/m3 16.3 °C 67.62 % 1,011.99 mbar 2.27 m/s 222.23 Deg 3.33 µg/m3 N/A
2023-01-16 17:00 34.25 µg/m3 0.68 µg/m3 63.83 µg/m3 33.34 µg/m3 13.08 µg/m3 0.3 mg/m3 17.13 °C 63.49 % 1,011.97 mbar 2.55 m/s 223.97 Deg 4.91 µg/m3 N/A
2023-01-16 16:00 30.42 µg/m3 0.7 µg/m3 67.61 µg/m3 35.96 µg/m3 11.76 µg/m3 0.26 mg/m3 17.81 °C 57.82 % 1,011.93 mbar 2.75 m/s 230.33 Deg 6.15 µg/m3 N/A
2023-01-16 15:00 26.09 µg/m3 0.67 µg/m3 67.07 µg/m3 48.01 µg/m3 13.62 µg/m3 0.23 mg/m3 18.08 °C 58.47 % 1,012.11 mbar 2.73 m/s 237.32 Deg 6.96 µg/m3 N/A
2023-01-16 14:00 23.7 µg/m3 0.7 µg/m3 68.68 µg/m3 40.93 µg/m3 12.23 µg/m3 0.21 mg/m3 18.43 °C 52.97 % 1,012.55 mbar 2.68 m/s 247.92 Deg 5.77 µg/m3 N/A
2023-01-16 13:00 22.77 µg/m3 0.7 µg/m3 67.85 µg/m3 36.83 µg/m3 11.95 µg/m3 0.21 mg/m3 18.19 °C 54.48 % 1,013.34 mbar 1.92 m/s 236.67 Deg 5.97 µg/m3 N/A
2023-01-16 12:00 21.46 µg/m3 0.68 µg/m3 67.46 µg/m3 34.89 µg/m3 11.69 µg/m3 0.2 mg/m3 17.49 °C 62.05 % 1,014.32 mbar 2.38 m/s 226.3 Deg 5.29 µg/m3 N/A
2023-01-16 11:00 28.14 µg/m3 0.82 µg/m3 60.38 µg/m3 49.06 µg/m3 14.12 µg/m3 0.24 mg/m3 17.22 °C 64.34 % 1,014.81 mbar 2.41 m/s 227.35 Deg 7.98 µg/m3 N/A
2023-01-16 10:00 36.85 µg/m3 0.81 µg/m3 52.32 µg/m3 56.99 µg/m3 15.31 µg/m3 0.3 mg/m3 16.69 °C 67.57 % 1,015.39 mbar 2.29 m/s 227.4 Deg 10.25 µg/m3 N/A
2023-01-16 09:00 67.86 µg/m3 1.23 µg/m3 22.4 µg/m3 42.86 µg/m3 16.97 µg/m3 0.51 mg/m3 15.77 °C 71.47 % 1,015.21 mbar 1.11 m/s 206.62 Deg 31.78 µg/m3 N/A
2023-01-16 08:00 90.56 µg/m3 2.33 µg/m3 5.56 µg/m3 28.64 µg/m3 19.09 µg/m3 1.02 mg/m3 14.46 °C 75.38 % 1,015.09 mbar 0.82 m/s 217.82 Deg 106.21 µg/m3 N/A
2023-01-16 07:00 73.67 µg/m3 1.53 µg/m3 10.54 µg/m3 23.88 µg/m3 15.92 µg/m3 0.73 mg/m3 14.43 °C 76.41 % 1,015.30 mbar 1.04 m/s 220.53 Deg 60 µg/m3 N/A
2023-01-16 06:00 41.28 µg/m3 0.82 µg/m3 32.58 µg/m3 19.2 µg/m3 12.8 µg/m3 0.38 mg/m3 14.57 °C 76.45 % 1,015.48 mbar 1.3 m/s 233.6 Deg 12.8 µg/m3 N/A
2023-01-16 05:00 18.89 µg/m3 0.67 µg/m3 58.24 µg/m3 23.03 µg/m3 15.35 µg/m3 0.19 mg/m3 14.37 °C 76.16 % 1,015.60 mbar 1.36 m/s 231.57 Deg 0.6 µg/m3 N/A
2023-01-16 04:00 22.2 µg/m3 0.7 µg/m3 33.59 µg/m3 35.99 µg/m3 23.99 µg/m3 0.21 mg/m3 13.82 °C 79.96 % 1,016.06 mbar 0.74 m/s 240.43 Deg 0.57 µg/m3 N/A
2023-01-16 03:00 19.55 µg/m3 0.68 µg/m3 39.29 µg/m3 17.69 µg/m3 11.79 µg/m3 0.25 mg/m3 13.72 °C 79.72 % 1,016.88 mbar 0.59 m/s 239.85 Deg -0.16 µg/m3 N/A
2023-01-16 02:00 33.13 µg/m3 0.75 µg/m3 36.74 µg/m3 11.25 µg/m3 7.56 µg/m3 0.28 mg/m3 14.06 °C 76.86 % 1,017.58 mbar 0.77 m/s 226.33 Deg 8.09 µg/m3 N/A
2023-01-16 01:00 43.24 µg/m3 0.81 µg/m3 26.37 µg/m3 11.09 µg/m3 7.43 µg/m3 0.42 mg/m3 13.99 °C 75.56 % 1,018.11 mbar 0.85 m/s 234.17 Deg 6.29 µg/m3 N/A
2023-01-16 00:00 63.02 µg/m3 1.27 µg/m3 3.14 µg/m3 23.31 µg/m3 15.54 µg/m3 0.8 mg/m3 13.7 °C 76.14 % 1,018.80 mbar 0.04 m/s 234 Deg 39.71 µg/m3 N/A
2023-01-15 23:00 50.36 µg/m3 0.89 µg/m3 20.52 µg/m3 16.34 µg/m3 10.97 µg/m3 0.54 mg/m3 13.86 °C 74.31 % 1,019.24 mbar 0.39 m/s 200.4 Deg 14.06 µg/m3 N/A
2023-01-15 22:00 56.53 µg/m3 0.83 µg/m3 16.9 µg/m3 14.35 µg/m3 9.59 µg/m3 0.5 mg/m3 14 °C 72.52 % 1,019.50 mbar 0.63 m/s 227.52 Deg 9.8 µg/m3 N/A
2023-01-15 21:00 46.88 µg/m3 0.75 µg/m3 29.68 µg/m3 12.7 µg/m3 8.5 µg/m3 0.46 mg/m3 14.38 °C 70.67 % 1,019.71 mbar 0.7 m/s 219.94 Deg 4.98 µg/m3 N/A
2023-01-15 20:00 53.97 µg/m3 0.81 µg/m3 23.43 µg/m3 20.15 µg/m3 11.77 µg/m3 0.45 mg/m3 14.76 °C 70.51 % 1,019.88 mbar 0.73 m/s 233.85 Deg 6.95 µg/m3 N/A
2023-01-15 19:00 53.03 µg/m3 0.8 µg/m3 25.4 µg/m3 37.37 µg/m3 15.05 µg/m3 0.48 mg/m3 15.18 °C 68.02 % 1,019.82 mbar 0.7 m/s 217.72 Deg 6.08 µg/m3 N/A
2023-01-15 18:00 42.06 µg/m3 0.69 µg/m3 41.77 µg/m3 26.67 µg/m3 10.31 µg/m3 0.39 mg/m3 15.42 °C 66.41 % 1,019.69 mbar 1.34 m/s 234.85 Deg 4.34 µg/m3 N/A
2023-01-15 17:00 25.7 µg/m3 0.66 µg/m3 61.14 µg/m3 19.56 µg/m3 8.8 µg/m3 0.3 mg/m3 16.04 °C 64.36 % 1,019.72 mbar 1.75 m/s 252.07 Deg 2.38 µg/m3 N/A
2023-01-15 16:00 13.74 µg/m3 0.69 µg/m3 75.45 µg/m3 13.5 µg/m3 6.95 µg/m3 0.19 mg/m3 16.55 °C 60.85 % 1,019.77 mbar 2.75 m/s 258.6 Deg 1.56 µg/m3 N/A
2023-01-15 15:00 11.52 µg/m3 0.65 µg/m3 75.46 µg/m3 15.94 µg/m3 6.1 µg/m3 0.18 mg/m3 16.92 °C 59.42 % 1,019.95 mbar 2.49 m/s 259.53 Deg 1.47 µg/m3 N/A
2023-01-15 14:00 10.98 µg/m3 0.65 µg/m3 76.37 µg/m3 22.38 µg/m3 7.45 µg/m3 0.19 mg/m3 17 °C 58.42 % 1,020.32 mbar 2.82 m/s 261.2 Deg 1.65 µg/m3 N/A
2023-01-15 13:00 14.99 µg/m3 0.7 µg/m3 70.12 µg/m3 17.01 µg/m3 7.61 µg/m3 0.23 mg/m3 16.81 °C 59.86 % 1,020.79 mbar 2.09 m/s 289 Deg 4.06 µg/m3 N/A
2023-01-15 12:00 12.33 µg/m3 0.67 µg/m3 71.78 µg/m3 22.8 µg/m3 7.72 µg/m3 0.23 mg/m3 16.66 °C 59.69 % 1,021.56 mbar 2.12 m/s 285.87 Deg 2.69 µg/m3 N/A
2023-01-15 11:00 14.54 µg/m3 0.69 µg/m3 69.69 µg/m3 17.74 µg/m3 6.37 µg/m3 0.24 mg/m3 16.45 °C 59.82 % 1,022.08 mbar 1.87 m/s 302.55 Deg 3.72 µg/m3 N/A
2023-01-15 10:00 15.56 µg/m3 0.75 µg/m3 65.3 µg/m3 20.14 µg/m3 7.08 µg/m3 0.27 mg/m3 16.08 °C 61.25 % 1,021.85 mbar 1.72 m/s 308.75 Deg 5.14 µg/m3 N/A
2023-01-15 09:00 21.66 µg/m3 0.69 µg/m3 56.98 µg/m3 21.79 µg/m3 7.69 µg/m3 0.27 mg/m3 15.5 °C 61.94 % 1,021.54 mbar 1.03 m/s 292.38 Deg 3.48 µg/m3 N/A
2023-01-15 08:00 34.43 µg/m3 0.74 µg/m3 40.67 µg/m3 23.06 µg/m3 8.94 µg/m3 0.32 mg/m3 14.22 °C 66.29 % 1,021.35 mbar 1.13 m/s 253.17 Deg 3.29 µg/m3 N/A
2023-01-15 07:00 27.6 µg/m3 0.68 µg/m3 49.51 µg/m3 18.77 µg/m3 7.56 µg/m3 0.22 mg/m3 14.36 °C 64.82 % 1,021.00 mbar 1.1 m/s 262.27 Deg 1.85 µg/m3 N/A
2023-01-15 06:00 8.35 µg/m3 0.64 µg/m3 71.51 µg/m3 12.75 µg/m3 6.09 µg/m3 0.15 mg/m3 14.66 °C 62.78 % 1,020.66 mbar 1.18 m/s 278.6 Deg -0.47 µg/m3 N/A
2023-01-15 05:00 5.98 µg/m3 0.61 µg/m3 74.31 µg/m3 12.25 µg/m3 6.21 µg/m3 0.15 mg/m3 14.83 °C 63.72 % 1,020.48 mbar 1.69 m/s 281.38 Deg -0.51 µg/m3 N/A
2023-01-15 04:00 5.54 µg/m3 0.64 µg/m3 75.99 µg/m3 11.83 µg/m3 6.39 µg/m3 0.16 mg/m3 15 °C 62.6 % 1,020.55 mbar 1.6 m/s 286.2 Deg -0.47 µg/m3 N/A
2023-01-15 03:00 6.09 µg/m3 0.61 µg/m3 73.9 µg/m3 13.25 µg/m3 7.56 µg/m3 0.18 mg/m3 15.07 °C 66.14 % 1,020.63 mbar 1.95 m/s 286.35 Deg -0.45 µg/m3 N/A
2023-01-15 02:00 9.16 µg/m3 0.57 µg/m3 69.1 µg/m3 14.99 µg/m3 7.79 µg/m3 0.19 mg/m3 15.25 °C 64.63 % 1,020.63 mbar 1.7 m/s 270.45 Deg -0.31 µg/m3 N/A
2023-01-15 01:00 20.58 µg/m3 0.55 µg/m3 55.36 µg/m3 18.33 µg/m3 9.54 µg/m3 0.22 mg/m3 15.3 °C 65.04 % 1,020.80 mbar 1.6 m/s 274.2 Deg 0.96 µg/m3 N/A
2023-01-15 00:00 25.29 µg/m3 0.58 µg/m3 48.09 µg/m3 22.3 µg/m3 11.09 µg/m3 0.28 mg/m3 15.3 °C 66.22 % 1,021.14 mbar 1.42 m/s 268.92 Deg 1.78 µg/m3 N/A
2023-01-14 23:00 25.36 µg/m3 0.61 µg/m3 48.57 µg/m3 24.25 µg/m3 10.52 µg/m3 0.29 mg/m3 15.59 °C 65.03 % 1,021.01 mbar 1.14 m/s 265.35 Deg 1.67 µg/m3 N/A
2023-01-14 22:00 19.58 µg/m3 0.58 µg/m3 55.92 µg/m3 18.08 µg/m3 8.55 µg/m3 0.28 mg/m3 15.74 °C 65.51 % 1,020.90 mbar 1.48 m/s 281.45 Deg 0.99 µg/m3 N/A
2023-01-14 21:00 24.27 µg/m3 0.63 µg/m3 48.68 µg/m3 19.96 µg/m3 13.53 µg/m3 0.32 mg/m3 15.67 °C 72.78 % 1,020.78 mbar 2.04 m/s 263.73 Deg 3.45 µg/m3 N/A
2023-01-14 20:00 30.38 µg/m3 0.67 µg/m3 43.34 µg/m3 26.85 µg/m3 16.4 µg/m3 0.33 mg/m3 15.67 °C 72.15 % 1,020.49 mbar 1.9 m/s 259.95 Deg 4.07 µg/m3 N/A
2023-01-14 19:00 48.11 µg/m3 0.75 µg/m3 26.51 µg/m3 31.22 µg/m3 12.19 µg/m3 0.42 mg/m3 15.31 °C 70.89 % 1,020.21 mbar 1.42 m/s 243.93 Deg 8.26 µg/m3 N/A
2023-01-14 18:00 38.25 µg/m3 0.65 µg/m3 36.66 µg/m3 27.84 µg/m3 10.98 µg/m3 0.36 mg/m3 15.55 °C 69.12 % 1,019.86 mbar 1.33 m/s 243.77 Deg 5.11 µg/m3 N/A
2023-01-14 17:00 23.2 µg/m3 0.56 µg/m3 53.5 µg/m3 21.42 µg/m3 8.51 µg/m3 0.23 mg/m3 16.23 °C 66.29 % 1,019.58 mbar 2.22 m/s 256.95 Deg 3.01 µg/m3 N/A
2023-01-14 16:00 17.7 µg/m3 0.59 µg/m3 60.31 µg/m3 30.69 µg/m3 10.99 µg/m3 0.22 mg/m3 17 °C 65.86 % 1,019.28 mbar 2.32 m/s 274.87 Deg 3.49 µg/m3 N/A
2023-01-14 15:00 14.93 µg/m3 0.55 µg/m3 63.33 µg/m3 34.79 µg/m3 11.93 µg/m3 0.2 mg/m3 17.36 °C 67.23 % 1,019.20 mbar 3.11 m/s 263.73 Deg 2.74 µg/m3 N/A
2023-01-14 14:00 19.8 µg/m3 0.61 µg/m3 58.91 µg/m3 35.49 µg/m3 11.93 µg/m3 0.24 mg/m3 17.2 °C 65.81 % 1,019.31 mbar 2.81 m/s 264.67 Deg 4.61 µg/m3 N/A
2023-01-14 13:00 23.76 µg/m3 0.65 µg/m3 56.32 µg/m3 32.49 µg/m3 11.24 µg/m3 0.26 mg/m3 17.22 °C 64.75 % 1,019.98 mbar 2.82 m/s 270.37 Deg 8.53 µg/m3 N/A
2023-01-14 12:00 22.89 µg/m3 0.64 µg/m3 53.24 µg/m3 36.1 µg/m3 12.21 µg/m3 0.25 mg/m3 17.29 °C 67.97 % 1,020.86 mbar 2.66 m/s 271.6 Deg 5.92 µg/m3 N/A
2023-01-14 11:00 25.22 µg/m3 0.62 µg/m3 50.41 µg/m3 44.23 µg/m3 13.74 µg/m3 0.28 mg/m3 16.9 °C 69.21 % 1,021.17 mbar 2.49 m/s 267.3 Deg 6.46 µg/m3 N/A
2023-01-14 10:00 29.61 µg/m3 0.7 µg/m3 44.48 µg/m3 47.47 µg/m3 14.65 µg/m3 0.29 mg/m3 16.67 °C 71.24 % 1,020.85 mbar 2.24 m/s 266.93 Deg 8.48 µg/m3 N/A
2023-01-14 09:00 50.35 µg/m3 0.95 µg/m3 21.7 µg/m3 26.73 µg/m3 17.82 µg/m3 0.36 mg/m3 15.17 °C 77.64 % 1,020.41 mbar 1.17 m/s 249.57 Deg 20.6 µg/m3 N/A
2023-01-14 08:00 63.32 µg/m3 1.25 µg/m3 6.71 µg/m3 26.35 µg/m3 17.56 µg/m3 0.54 mg/m3 14.38 °C 80.22 % 1,020.20 mbar 0.77 m/s 239.7 Deg 42.85 µg/m3 N/A
2023-01-14 07:00 59.49 µg/m3 1.17 µg/m3 7.07 µg/m3 20.46 µg/m3 13.64 µg/m3 0.55 mg/m3 14.37 °C 79.71 % 1,020.26 mbar 0.73 m/s 240.87 Deg 40.37 µg/m3 N/A
2023-01-14 06:00 40.55 µg/m3 0.75 µg/m3 23.81 µg/m3 15.27 µg/m3 10.18 µg/m3 0.46 mg/m3 14.58 °C 79.2 % 1,020.21 mbar 0.77 m/s 240.32 Deg 12.56 µg/m3 N/A
2023-01-14 05:00 40.57 µg/m3 0.73 µg/m3 24.92 µg/m3 14.98 µg/m3 10 µg/m3 0.29 mg/m3 14.36 °C 78.44 % 1,020.28 mbar 0.69 m/s 250.94 Deg 9.98 µg/m3 N/A
2023-01-14 04:00 27.33 µg/m3 0.62 µg/m3 42.49 µg/m3 12.58 µg/m3 8.4 µg/m3 0.27 mg/m3 14.44 °C 75.44 % 1,020.58 mbar 0.35 m/s 234.78 Deg 1.62 µg/m3 N/A
2023-01-14 03:00 11.02 µg/m3 0.53 µg/m3 60.02 µg/m3 10.18 µg/m3 6.85 µg/m3 0.07 mg/m3 14.37 °C 74.86 % 1,021.03 mbar 0.97 m/s 247.93 Deg -0.45 µg/m3 N/A
2023-01-14 02:00 17.21 µg/m3 0.52 µg/m3 57.72 µg/m3 13.06 µg/m3 8.89 µg/m3 0.08 mg/m3 14.61 °C 73.55 % 1,021.21 mbar 1.15 m/s 265.8 Deg 0.79 µg/m3 N/A
2023-01-14 01:00 32 µg/m3 0.6 µg/m3 38.52 µg/m3 14.66 µg/m3 9.84 µg/m3 0.21 mg/m3 14.32 °C 74.38 % 1,021.30 mbar 0.77 m/s 254.7 Deg 0.77 µg/m3 N/A
2023-01-14 00:00 45.35 µg/m3 0.74 µg/m3 23.2 µg/m3 17.2 µg/m3 11.47 µg/m3 0.33 mg/m3 14.03 °C 75.3 % 1,021.62 mbar 0.93 m/s 243.53 Deg 7.28 µg/m3 N/A
2023-01-13 23:00 63.04 µg/m3 1.27 µg/m3 4.81 µg/m3 28.56 µg/m3 19.04 µg/m3 0.62 mg/m3 14.18 °C 76.27 % 1,021.78 mbar 0.41 m/s 242.94 Deg 46.38 µg/m3 N/A
2023-01-13 22:00 43.77 µg/m3 0.63 µg/m3 24.7 µg/m3 19.5 µg/m3 13.04 µg/m3 0.27 mg/m3 14.52 °C 74.07 % 1,021.93 mbar 0.83 m/s 232.27 Deg 5.76 µg/m3 N/A
2023-01-13 21:00 37.85 µg/m3 0.67 µg/m3 35.72 µg/m3 20.73 µg/m3 10.82 µg/m3 0.24 mg/m3 14.86 °C 71.82 % 1,022.17 mbar 1.74 m/s 248.07 Deg 6.59 µg/m3 N/A
2023-01-13 20:00 59.61 µg/m3 0.88 µg/m3 16.86 µg/m3 39.72 µg/m3 12.8 µg/m3 0.4 mg/m3 14.71 °C 70.51 % 1,022.31 mbar 1.14 m/s 239.58 Deg 17.22 µg/m3 N/A
2023-01-13 19:00 65.36 µg/m3 0.86 µg/m3 15.22 µg/m3 43.59 µg/m3 13.51 µg/m3 0.39 mg/m3 14.63 °C 68.03 % 1,021.99 mbar 1.12 m/s 243.82 Deg 17.93 µg/m3 N/A
2023-01-13 18:00 63.31 µg/m3 0.87 µg/m3 18.2 µg/m3 42.79 µg/m3 14.91 µg/m3 0.38 mg/m3 15.1 °C 65.76 % 1,021.76 mbar 1.25 m/s 260.43 Deg 20.02 µg/m3 N/A
2023-01-13 17:00 39.1 µg/m3 0.66 µg/m3 41.35 µg/m3 35.45 µg/m3 10.99 µg/m3 0.22 mg/m3 16.05 °C 63.59 % 1,021.62 mbar 1.51 m/s 289.55 Deg 10.03 µg/m3 N/A
2023-01-13 16:00 31.46 µg/m3 0.68 µg/m3 47.93 µg/m3 43.31 µg/m3 11.45 µg/m3 0.14 mg/m3 16.22 °C 66.82 % 1,021.35 mbar 1.47 m/s 304.03 Deg 10.87 µg/m3 N/A
2023-01-13 15:00 26.56 µg/m3 0.8 µg/m3 51.65 µg/m3 74.54 µg/m3 16.16 µg/m3 0.27 mg/m3 16.22 °C 68.29 % 1,021.08 mbar 1.28 m/s 335.88 Deg 18.91 µg/m3 N/A
2023-01-13 14:00 29.17 µg/m3 0.75 µg/m3 53.08 µg/m3 87.11 µg/m3 16.88 µg/m3 0.22 mg/m3 16.31 °C 68.46 % 1,021.26 mbar 1.52 m/s 326.3 Deg 16.52 µg/m3 N/A
2023-01-13 13:00 30.47 µg/m3 0.81 µg/m3 53.66 µg/m3 55.63 µg/m3 12.76 µg/m3 0.23 mg/m3 16.53 °C 69.71 % 1,021.73 mbar 1.65 m/s 237.6 Deg 19.71 µg/m3 N/A
2023-01-13 12:00 32.13 µg/m3 0.83 µg/m3 44 µg/m3 43.26 µg/m3 11.02 µg/m3 0.23 mg/m3 16.4 °C 71.65 % 1,022.25 mbar 1.29 m/s 292.63 Deg 18.44 µg/m3 N/A
2023-01-13 11:00 47.94 µg/m3 1.18 µg/m3 22.04 µg/m3 24.92 µg/m3 14.3 µg/m3 0.41 mg/m3 15.5 °C 77.44 % 1,022.58 mbar 1.09 m/s 231.33 Deg 29.86 µg/m3 N/A
2023-01-13 10:00 70.57 µg/m3 1.83 µg/m3 4.5 µg/m3 27.31 µg/m3 18.21 µg/m3 0.83 mg/m3 14.86 °C 79.07 % 1,022.29 mbar 1.18 m/s 231.43 Deg 69.63 µg/m3 N/A
2023-01-13 09:00 88.01 µg/m3 3.21 µg/m3 3.33 µg/m3 31.94 µg/m3 21.3 µg/m3 1.26 mg/m3 14.62 °C 80.52 % 1,021.76 mbar 0.74 m/s 222.87 Deg 162.37 µg/m3 N/A
2023-01-13 08:00 75.21 µg/m3 2.76 µg/m3 2.01 µg/m3 23.95 µg/m3 16.08 µg/m3 1.13 mg/m3 14.06 °C 81.36 % 1,021.33 mbar 0.69 m/s 221.17 Deg 125.7 µg/m3 N/A
2023-01-13 07:00 84.23 µg/m3 3.7 µg/m3 3.26 µg/m3 24.39 µg/m3 16.71 µg/m3 1.43 mg/m3 14.42 °C 78.86 % 1,020.91 mbar 0.66 m/s 184.58 Deg 198.11 µg/m3 N/A
2023-01-13 06:00 43.16 µg/m3 1.31 µg/m3 10.12 µg/m3 11.79 µg/m3 8.38 µg/m3 0.48 mg/m3 13.81 °C 82.02 % 1,020.39 mbar 0.87 m/s 196.47 Deg 25.28 µg/m3 N/A
2023-01-13 05:00 29.29 µg/m3 1.14 µg/m3 9.36 µg/m3 10.81 µg/m3 7.63 µg/m3 0.3 mg/m3 13.64 °C 82.69 % 1,020.02 mbar 0.79 m/s 238.07 Deg 6.37 µg/m3 N/A
2023-01-13 04:00 21.59 µg/m3 1.07 µg/m3 24.43 µg/m3 9.99 µg/m3 7.14 µg/m3 0.26 mg/m3 13.91 °C 81.61 % 1,020.08 mbar 0.93 m/s 242.25 Deg 0.53 µg/m3 N/A
2023-01-13 03:00 17.85 µg/m3 0.56 µg/m3 41.2 µg/m3 9.49 µg/m3 6.54 µg/m3 0.19 mg/m3 14.56 °C 78.19 % 1,020.21 mbar 0.63 m/s 253.83 Deg -0.35 µg/m3 N/A
2023-01-13 02:00 16.89 µg/m3 0.6 µg/m3 50.84 µg/m3 10.09 µg/m3 6.99 µg/m3 0.19 mg/m3 14.69 °C 80.71 % 1,020.24 mbar 0.65 m/s 303.23 Deg 0.41 µg/m3 N/A
2023-01-13 01:00 10.72 µg/m3 0.58 µg/m3 58.31 µg/m3 8.49 µg/m3 6.1 µg/m3 0.2 mg/m3 14.62 °C 81.81 % 1,020.34 mbar 0.96 m/s 283.47 Deg -0.27 µg/m3 N/A
2023-01-13 00:00 8.64 µg/m3 0.59 µg/m3 64.27 µg/m3 15.1 µg/m3 7.76 µg/m3 0.18 mg/m3 15.57 °C 73.36 % 1,020.35 mbar 2.12 m/s 308.95 Deg 0.1 µg/m3 N/A
2023-01-12 23:00 10.39 µg/m3 0.54 µg/m3 64.36 µg/m3 19.49 µg/m3 8.82 µg/m3 0.2 mg/m3 15.65 °C 70.53 % 1,020.26 mbar 2.48 m/s 282.42 Deg 0.61 µg/m3 N/A
2023-01-12 22:00 11.98 µg/m3 0.56 µg/m3 62.72 µg/m3 22.77 µg/m3 10.78 µg/m3 0.19 mg/m3 15.72 °C 70.07 % 1,019.88 mbar 2.54 m/s 285.87 Deg 0.98 µg/m3 N/A
2023-01-12 21:00 22 µg/m3 0.61 µg/m3 51.53 µg/m3 25.02 µg/m3 15.46 µg/m3 0.24 mg/m3 15.43 °C 72.66 % 1,019.59 mbar 2.27 m/s 269.58 Deg 2.73 µg/m3 N/A
2023-01-12 20:00 27.83 µg/m3 0.66 µg/m3 45.61 µg/m3 27.47 µg/m3 18.17 µg/m3 0.31 mg/m3 15.42 °C 74.43 % 1,019.32 mbar 2.22 m/s 261.27 Deg 3.97 µg/m3 N/A
2023-01-12 19:00 33.84 µg/m3 0.7 µg/m3 41.88 µg/m3 29.65 µg/m3 17.57 µg/m3 0.34 mg/m3 15.69 °C 73.09 % 1,019.13 mbar 2.2 m/s 260.25 Deg 7.31 µg/m3 N/A
2023-01-12 18:00 36.31 µg/m3 0.63 µg/m3 43.26 µg/m3 32.22 µg/m3 14.03 µg/m3 0.36 mg/m3 15.7 °C 66.97 % 1,018.68 mbar 2.45 m/s 262.38 Deg 7.68 µg/m3 N/A
2023-01-12 17:00 28.61 µg/m3 0.65 µg/m3 48.81 µg/m3 33.22 µg/m3 14.18 µg/m3 0.31 mg/m3 16.32 °C 67.94 % 1,018.27 mbar 2.89 m/s 261.55 Deg 6.36 µg/m3 N/A
2023-01-12 16:00 27.29 µg/m3 0.64 µg/m3 49.22 µg/m3 27.64 µg/m3 11.14 µg/m3 0.28 mg/m3 16.99 °C 68.65 % 1,017.87 mbar 3.31 m/s 268.9 Deg 8.24 µg/m3 N/A
2023-01-12 15:00 25.3 µg/m3 0.7 µg/m3 51.71 µg/m3 24.26 µg/m3 10.12 µg/m3 0.25 mg/m3 17.24 °C 68.67 % 1,017.87 mbar 3.31 m/s 276.42 Deg 8.8 µg/m3 N/A
2023-01-12 14:00 24.82 µg/m3 0.69 µg/m3 49.78 µg/m3 17.51 µg/m3 8.91 µg/m3 0.28 mg/m3 17.16 °C 73.25 % 1,017.92 mbar 3.08 m/s 266.75 Deg 9 µg/m3 N/A
2023-01-12 13:00 35.78 µg/m3 0.79 µg/m3 36.03 µg/m3 13.83 µg/m3 9.34 µg/m3 0.34 mg/m3 14.99 °C 84.16 % 1,018.78 mbar 2.27 m/s 253.65 Deg 11.6 µg/m3 N/A
2023-01-12 12:00 39.49 µg/m3 0.77 µg/m3 35.53 µg/m3 15.34 µg/m3 10.31 µg/m3 0.31 mg/m3 15.58 °C 81.01 % 1,019.58 mbar 2.04 m/s 245.4 Deg 10.57 µg/m3 N/A
2023-01-12 11:00 48 µg/m3 0.89 µg/m3 30.08 µg/m3 40.02 µg/m3 12.49 µg/m3 0.34 mg/m3 16.62 °C 72.17 % 1,020.04 mbar 1.73 m/s 247.8 Deg 15.78 µg/m3 N/A
2023-01-12 10:00 52.02 µg/m3 0.99 µg/m3 28.1 µg/m3 49.24 µg/m3 13.3 µg/m3 0.38 mg/m3 16.73 °C 71.73 % 1,020.00 mbar 1.59 m/s 254.55 Deg 19.62 µg/m3 N/A
2023-01-12 09:00 65.49 µg/m3 1.56 µg/m3 17.9 µg/m3 41.01 µg/m3 15.65 µg/m3 0.56 mg/m3 16.12 °C 72.62 % 1,019.83 mbar 1.13 m/s 249.28 Deg 43.14 µg/m3 N/A
2023-01-12 08:00 97.61 µg/m3 4.11 µg/m3 2.93 µg/m3 41.28 µg/m3 27.52 µg/m3 1.56 mg/m3 13.9 °C 78.63 % 1,019.92 mbar 0.33 m/s 241.09 Deg 201.07 µg/m3 N/A
2023-01-12 07:00 83.93 µg/m3 3.4 µg/m3 2.36 µg/m3 30.81 µg/m3 20.54 µg/m3 1.24 mg/m3 13.32 °C 78.48 % 1,019.95 mbar 0.43 m/s 239.37 Deg 171.51 µg/m3 N/A
2023-01-12 06:00 46.65 µg/m3 1.18 µg/m3 22.21 µg/m3 14.8 µg/m3 9.9 µg/m3 0.45 mg/m3 13.57 °C 76.66 % 1,019.98 mbar 0.66 m/s 233.7 Deg 32.83 µg/m3 N/A
2023-01-12 05:00 11.76 µg/m3 0.7 µg/m3 56.81 µg/m3 8.46 µg/m3 5.69 µg/m3 0.15 mg/m3 13.86 °C 73.39 % 1,020.12 mbar 1.08 m/s 254.07 Deg -0.25 µg/m3 N/A
2023-01-12 04:00 6.65 µg/m3 0.7 µg/m3 67.06 µg/m3 9.52 µg/m3 5.23 µg/m3 0.14 mg/m3 13.93 °C 70.15 % 1,020.51 mbar 1.25 m/s 257.52 Deg -0.55 µg/m3 N/A
2023-01-12 03:00 5.37 µg/m3 0.72 µg/m3 67.82 µg/m3 10.86 µg/m3 4.62 µg/m3 0.22 mg/m3 13.43 °C 66.13 % 1,020.95 mbar 1.34 m/s 250.85 Deg -0.7 µg/m3 N/A
2023-01-12 02:00 13.45 µg/m3 0.65 µg/m3 63.21 µg/m3 11.84 µg/m3 4.66 µg/m3 0.22 mg/m3 13.44 °C 62.22 % 1,021.15 mbar 1.27 m/s 253.9 Deg 0.61 µg/m3 N/A
2023-01-12 01:00 15.79 µg/m3 0.7 µg/m3 57.66 µg/m3 16.25 µg/m3 6.1 µg/m3 0.27 mg/m3 13.46 °C 65.23 % 1,021.20 mbar 1.23 m/s 247.92 Deg 0.79 µg/m3 N/A
2023-01-12 00:00 23.43 µg/m3 0.77 µg/m3 48.08 µg/m3 22.38 µg/m3 7.74 µg/m3 0.35 mg/m3 13.71 °C 66.74 % 1,021.46 mbar 1.13 m/s 237.83 Deg 0.91 µg/m3 N/A
2023-01-11 23:00 19.57 µg/m3 0.7 µg/m3 54.99 µg/m3 21.68 µg/m3 8.28 µg/m3 0.31 mg/m3 14.24 °C 64.82 % 1,021.51 mbar 1.27 m/s 240.42 Deg 0.63 µg/m3 N/A
2023-01-11 22:00 29.81 µg/m3 0.8 µg/m3 44.8 µg/m3 29.79 µg/m3 11.11 µg/m3 0.39 mg/m3 14.36 °C 65.15 % 1,021.42 mbar 1.42 m/s 247.5 Deg 3.03 µg/m3 N/A
2023-01-11 21:00 40.78 µg/m3 0.8 µg/m3 35.05 µg/m3 36.2 µg/m3 12.53 µg/m3 0.45 mg/m3 14.38 °C 63.91 % 1,021.37 mbar 1.28 m/s 238.25 Deg 5.42 µg/m3 N/A
2023-01-11 20:00 45.9 µg/m3 0.9 µg/m3 32.92 µg/m3 34.92 µg/m3 12.82 µg/m3 0.49 mg/m3 14.5 °C 63.12 % 1,021.41 mbar 1.63 m/s 244.38 Deg 9.63 µg/m3 N/A
2023-01-11 19:00 51.8 µg/m3 0.96 µg/m3 29.55 µg/m3 34.11 µg/m3 13.24 µg/m3 0.52 mg/m3 14.63 °C 61.02 % 1,021.09 mbar 1.84 m/s 252.72 Deg 14.07 µg/m3 N/A
2023-01-11 18:00 44.19 µg/m3 0.89 µg/m3 40.25 µg/m3 27.8 µg/m3 10.14 µg/m3 0.44 mg/m3 14.98 °C 58.91 % 1,020.72 mbar 2.26 m/s 267.43 Deg 10.63 µg/m3 N/A
2023-01-11 17:00 32.08 µg/m3 0.81 µg/m3 52.81 µg/m3 29.57 µg/m3 10.45 µg/m3 0.36 mg/m3 15.74 °C 54.38 % 1,020.58 mbar 2.71 m/s 269.9 Deg 5.86 µg/m3 N/A
2023-01-11 16:00 25.52 µg/m3 0.77 µg/m3 59.7 µg/m3 39.51 µg/m3 11.32 µg/m3 0.31 mg/m3 16.3 °C 49.94 % 1,020.39 mbar 2.8 m/s 268.12 Deg 6.35 µg/m3 N/A
2023-01-11 15:00 23.87 µg/m3 0.75 µg/m3 62.42 µg/m3 60.94 µg/m3 14.06 µg/m3 0.27 mg/m3 16.34 °C 50.24 % 1,020.18 mbar 3.56 m/s 277 Deg 6.65 µg/m3 N/A
2023-01-11 14:00 21.68 µg/m3 0.84 µg/m3 62.21 µg/m3 66.17 µg/m3 13.83 µg/m3 0.27 mg/m3 16.51 °C 48.89 % 1,020.40 mbar 3.16 m/s 284.23 Deg 7.74 µg/m3 N/A
2023-01-11 13:00 21.71 µg/m3 0.78 µg/m3 62.04 µg/m3 35.03 µg/m3 8.87 µg/m3 0.25 mg/m3 16.73 °C 44.53 % 1,020.83 mbar 3.34 m/s 278.92 Deg 7.36 µg/m3 N/A
2023-01-11 12:00 18.82 µg/m3 0.77 µg/m3 61.98 µg/m3 30.74 µg/m3 7.44 µg/m3 0.24 mg/m3 16.58 °C 43.62 % 1,021.26 mbar 3.25 m/s 282.22 Deg 5.95 µg/m3 N/A
2023-01-11 11:00 20.45 µg/m3 0.83 µg/m3 59.38 µg/m3 31.2 µg/m3 7.42 µg/m3 0.26 mg/m3 16.4 °C 44.97 % 1,021.55 mbar 2.95 m/s 289.68 Deg 6.78 µg/m3 N/A
2023-01-11 10:00 28.83 µg/m3 0.88 µg/m3 50.73 µg/m3 44.34 µg/m3 10.57 µg/m3 0.29 mg/m3 15.98 °C 47.41 % 1,021.11 mbar 2.51 m/s 286.43 Deg 11.84 µg/m3 N/A
2023-01-11 09:00 35.09 µg/m3 0.9 µg/m3 45.51 µg/m3 25.11 µg/m3 7.36 µg/m3 0.31 mg/m3 15.26 °C 49.67 % 1,020.58 mbar 2.73 m/s 286.78 Deg 12.55 µg/m3 N/A
2023-01-11 08:00 35.21 µg/m3 0.87 µg/m3 44.62 µg/m3 22.3 µg/m3 7.32 µg/m3 0.33 mg/m3 14.67 °C 51.14 % 1,020.44 mbar 2.51 m/s 288.85 Deg 10.03 µg/m3 N/A
2023-01-11 07:00 27.23 µg/m3 0.82 µg/m3 51.63 µg/m3 20.24 µg/m3 7.2 µg/m3 0.29 mg/m3 14.54 °C 52.83 % 1,020.07 mbar 2.54 m/s 284.6 Deg 7.11 µg/m3 N/A
2023-01-11 06:00 10.65 µg/m3 0.71 µg/m3 67.74 µg/m3 13.91 µg/m3 5.7 µg/m3 0.21 mg/m3 14.57 °C 51.04 % 1,019.58 mbar 3.11 m/s 278.45 Deg 0.91 µg/m3 N/A
2023-01-11 05:00 4.89 µg/m3 0.7 µg/m3 72.59 µg/m3 15.55 µg/m3 6.49 µg/m3 0.16 mg/m3 14.44 °C 54.22 % 1,019.27 mbar 2.84 m/s 273.83 Deg -0.27 µg/m3 N/A
2023-01-11 04:00 2.47 µg/m3 0.75 µg/m3 75.63 µg/m3 16.17 µg/m3 6.74 µg/m3 0.12 mg/m3 14.48 °C 53.93 % 1,019.44 mbar 2.74 m/s 268.35 Deg -0.71 µg/m3 N/A
2023-01-11 03:00 1.86 µg/m3 0.65 µg/m3 76.57 µg/m3 17.14 µg/m3 7.72 µg/m3 -0.24 mg/m3 14.64 °C 53.52 % 1,019.63 mbar 2.95 m/s 273.55 Deg -0.69 µg/m3 N/A
2023-01-11 02:00 3.69 µg/m3 0.64 µg/m3 74.99 µg/m3 17.85 µg/m3 8.11 µg/m3 -0.24 mg/m3 14.63 °C 55.14 % 1,019.57 mbar 3.19 m/s 271.17 Deg -0.31 µg/m3 N/A
2023-01-11 01:00 3.83 µg/m3 0.63 µg/m3 75.62 µg/m3 19.44 µg/m3 8.4 µg/m3 -0.23 mg/m3 14.61 °C 55.18 % 1,019.66 mbar 2.71 m/s 275.17 Deg -0.49 µg/m3 N/A
2023-01-11 00:00 4.85 µg/m3 0.65 µg/m3 75.78 µg/m3 18.31 µg/m3 7.9 µg/m3 -0.22 mg/m3 14.65 °C 53 % 1,019.80 mbar 2.99 m/s 282.95 Deg -0.32 µg/m3 N/A
2023-01-10 23:00 7.08 µg/m3 0.68 µg/m3 74.58 µg/m3 17.33 µg/m3 7.68 µg/m3 -0.2 mg/m3 14.79 °C 49.78 % 1,019.82 mbar 3.39 m/s 279.3 Deg 0.31 µg/m3 N/A
2023-01-10 22:00 7.66 µg/m3 0.68 µg/m3 73.99 µg/m3 20.72 µg/m3 9.21 µg/m3 -0.19 mg/m3 14.81 °C 52.63 % 1,019.68 mbar 3.26 m/s 279.67 Deg 0.26 µg/m3 N/A
2023-01-10 21:00 14.92 µg/m3 0.66 µg/m3 66.34 µg/m3 24.86 µg/m3 10.36 µg/m3 -0.17 mg/m3 14.52 °C 53.03 % 1,019.27 mbar 3.06 m/s 273.35 Deg 1.76 µg/m3 N/A
2023-01-10 20:00 15.01 µg/m3 0.65 µg/m3 66.07 µg/m3 24.71 µg/m3 10.11 µg/m3 -0.15 mg/m3 14.66 °C 49.51 % 1,018.72 mbar 3.64 m/s 270.38 Deg 1.82 µg/m3 N/A
2023-01-10 19:00 26.33 µg/m3 0.65 µg/m3 54.93 µg/m3 31.74 µg/m3 10.62 µg/m3 -0.09 mg/m3 13.86 °C 53.73 % 1,018.21 mbar 2.9 m/s 258.82 Deg 4.68 µg/m3 N/A
2023-01-10 18:00 29.02 µg/m3 0.68 µg/m3 54.32 µg/m3 27.87 µg/m3 11.64 µg/m3 0.08 mg/m3 14.36 °C 53.58 % 1,017.78 mbar 3.39 m/s 271.2 Deg 6.65 µg/m3 N/A
2023-01-10 17:00 28.62 µg/m3 0.7 µg/m3 48.9 µg/m3 31.55 µg/m3 13.88 µg/m3 0.34 mg/m3 14.1 °C 64.11 % 1,017.41 mbar 2.78 m/s 267.32 Deg 6.12 µg/m3 N/A
2023-01-10 16:00 20.15 µg/m3 0.61 µg/m3 59.53 µg/m3 28.08 µg/m3 11.15 µg/m3 0.2 mg/m3 14.25 °C 62.47 % 1,017.06 mbar 4 m/s 288.42 Deg 4.88 µg/m3 N/A
2023-01-10 15:00 19.92 µg/m3 0.66 µg/m3 62.37 µg/m3 47.82 µg/m3 15.74 µg/m3 0.18 mg/m3 15.71 °C 53.13 % 1,016.63 mbar 4.87 m/s 266.97 Deg 5.91 µg/m3 N/A
2023-01-10 14:00 15.86 µg/m3 0.63 µg/m3 67.08 µg/m3 67.85 µg/m3 16.43 µg/m3 0.15 mg/m3 16.54 °C 45.88 % 1,016.31 mbar 5.94 m/s 263.43 Deg 4.93 µg/m3 N/A
2023-01-10 13:00 12.35 µg/m3 0.79 µg/m3 68.23 µg/m3 58.37 µg/m3 14.92 µg/m3 0.12 mg/m3 16.38 °C 47.84 % 1,016.60 mbar 6.04 m/s 260.43 Deg 3.24 µg/m3 N/A
2023-01-10 12:00 0 µg/m3 0 µg/m3 0 µg/m3 45 µg/m3 13.03 µg/m3 0 mg/m3 15.77 °C 53.08 % 1,017.60 mbar 4.93 m/s 264.98 Deg 0 µg/m3 N/A
2023-01-10 11:00 0 µg/m3 0 µg/m3 0 µg/m3 33.69 µg/m3 10.98 µg/m3 0 mg/m3 15.35 °C 55.35 % 1,018.10 mbar 4.79 m/s 271.6 Deg 0 µg/m3 N/A
2023-01-10 10:00 0 µg/m3 0 µg/m3 0 µg/m3 60.29 µg/m3 15.33 µg/m3 0 mg/m3 16.06 °C 50.77 % 1,017.82 mbar 5.25 m/s 265.72 Deg 0 µg/m3 N/A
2023-01-10 09:00 25.26 µg/m3 0.56 µg/m3 58.26 µg/m3 36.39 µg/m3 11.32 µg/m3 0.24 mg/m3 15.83 °C 53.87 % 1,017.31 mbar 5.12 m/s 259.08 Deg 6.92 µg/m3 N/A
2023-01-10 08:00 26.91 µg/m3 0.59 µg/m3 57.58 µg/m3 25.21 µg/m3 8.14 µg/m3 0.22 mg/m3 15.12 °C 57.91 % 1,017.51 mbar 4.54 m/s 255.73 Deg 6.88 µg/m3 N/A
2023-01-10 07:00 19.66 µg/m3 0.52 µg/m3 63.74 µg/m3 23.89 µg/m3 7.32 µg/m3 0.2 mg/m3 15.43 °C 58.37 % 1,017.46 mbar 4.64 m/s 256.88 Deg 4.85 µg/m3 N/A
2023-01-10 06:00 8.69 µg/m3 0.45 µg/m3 73.97 µg/m3 13.44 µg/m3 5.15 µg/m3 0.16 mg/m3 15.44 °C 58.34 % 1,017.35 mbar 4.33 m/s 257 Deg 0.83 µg/m3 N/A
2023-01-10 05:00 4.74 µg/m3 0.45 µg/m3 74.61 µg/m3 14.84 µg/m3 6.72 µg/m3 0.17 mg/m3 15.39 °C 59.85 % 1,017.28 mbar 3.08 m/s 262.9 Deg -0.38 µg/m3 N/A
2023-01-10 04:00 2.36 µg/m3 0.53 µg/m3 76.2 µg/m3 16.99 µg/m3 7.22 µg/m3 0.13 mg/m3 15.34 °C 59.98 % 1,017.50 mbar 3 m/s 267.58 Deg -0.59 µg/m3 N/A
2023-01-10 03:00 1.81 µg/m3 0.41 µg/m3 76.49 µg/m3 15.66 µg/m3 6.82 µg/m3 0.16 mg/m3 15.62 °C 63.67 % 1,017.68 mbar 3.12 m/s 263.8 Deg -0.75 µg/m3 N/A
2023-01-10 02:00 3.63 µg/m3 0.45 µg/m3 71.11 µg/m3 10.63 µg/m3 6.4 µg/m3 0.18 mg/m3 15.66 °C 74.13 % 1,017.32 mbar 3.43 m/s 255.93 Deg 0.35 µg/m3 N/A
2023-01-10 01:00 3.37 µg/m3 0.44 µg/m3 67.55 µg/m3 7.64 µg/m3 5.33 µg/m3 0.19 mg/m3 14.96 °C 82.98 % 1,017.55 mbar 2.7 m/s 245.88 Deg -0.43 µg/m3 N/A
2023-01-10 00:00 4.67 µg/m3 0.47 µg/m3 65.82 µg/m3 7.76 µg/m3 5.46 µg/m3 0.19 mg/m3 14.53 °C 84.57 % 1,017.66 mbar 2.62 m/s 241.82 Deg -0.3 µg/m3 N/A
2023-01-09 23:00 7.2 µg/m3 0.49 µg/m3 60.27 µg/m3 10.18 µg/m3 7.17 µg/m3 0.23 mg/m3 15.53 °C 84.51 % 1,017.88 mbar 2.87 m/s 256.95 Deg 0.24 µg/m3 N/A
2023-01-09 22:00 11.22 µg/m3 0.51 µg/m3 68.6 µg/m3 38.78 µg/m3 25.85 µg/m3 0.24 mg/m3 17.48 °C 75.34 % 1,017.32 mbar 2.11 m/s 235.67 Deg 0.27 µg/m3 N/A
2023-01-09 21:00 13.63 µg/m3 0.51 µg/m3 69.71 µg/m3 34.25 µg/m3 22.83 µg/m3 0.27 mg/m3 17.47 °C 73.7 % 1,016.99 mbar 2.49 m/s 219.47 Deg 0.16 µg/m3 N/A
2023-01-09 20:00 22.83 µg/m3 0.59 µg/m3 63.71 µg/m3 28.26 µg/m3 18.84 µg/m3 0.32 mg/m3 17.19 °C 74.18 % 1,016.82 mbar 2.16 m/s 213.3 Deg 1.18 µg/m3 N/A
2023-01-09 19:00 32.07 µg/m3 0.57 µg/m3 56.17 µg/m3 30.03 µg/m3 20.02 µg/m3 0.39 mg/m3 16.94 °C 74.77 % 1,016.68 mbar 1.8 m/s 212.32 Deg 1.84 µg/m3 N/A
2023-01-09 18:00 32.18 µg/m3 0.66 µg/m3 57.83 µg/m3 34.78 µg/m3 17.73 µg/m3 0.33 mg/m3 16.99 °C 72.25 % 1,016.86 mbar 2.08 m/s 220.3 Deg 2.54 µg/m3 N/A
2023-01-09 17:00 23.11 µg/m3 0.6 µg/m3 65.22 µg/m3 39.02 µg/m3 15.94 µg/m3 0.26 mg/m3 17.4 °C 69.14 % 1,016.70 mbar 2.88 m/s 223.02 Deg 2.31 µg/m3 N/A
2023-01-09 16:00 18.19 µg/m3 0.59 µg/m3 70.73 µg/m3 48.02 µg/m3 15.92 µg/m3 0.22 mg/m3 17.7 °C 65.32 % 1,016.76 mbar 4.02 m/s 223.45 Deg 3.9 µg/m3 N/A
2023-01-09 15:00 15.69 µg/m3 0.58 µg/m3 73.22 µg/m3 68.31 µg/m3 17.27 µg/m3 0.19 mg/m3 17.76 °C 63.02 % 1,016.77 mbar 4.75 m/s 225.53 Deg 2.75 µg/m3 N/A
2023-01-09 14:00 16.53 µg/m3 0.6 µg/m3 71.48 µg/m3 90.39 µg/m3 20.11 µg/m3 0.19 mg/m3 18.19 °C 62.26 % 1,017.20 mbar 4.79 m/s 221.3 Deg 3.29 µg/m3 N/A
2023-01-09 13:00 16.96 µg/m3 0.65 µg/m3 71.29 µg/m3 64.27 µg/m3 16.96 µg/m3 0.18 mg/m3 18.03 °C 61.32 % 1,018.00 mbar 4.36 m/s 216.23 Deg 2.82 µg/m3 N/A
2023-01-09 12:00 20.72 µg/m3 0.59 µg/m3 66.41 µg/m3 62.65 µg/m3 16.61 µg/m3 0.2 mg/m3 17.92 °C 61.11 % 1,019.16 mbar 4.11 m/s 218.77 Deg 4.56 µg/m3 N/A
2023-01-09 11:00 22.58 µg/m3 0.64 µg/m3 63.73 µg/m3 77.53 µg/m3 20.05 µg/m3 0.22 mg/m3 17.68 °C 61.79 % 1,019.97 mbar 3.84 m/s 223.65 Deg 5.25 µg/m3 N/A
2023-01-09 10:00 28.52 µg/m3 0.74 µg/m3 54.42 µg/m3 55.91 µg/m3 15.28 µg/m3 0.24 mg/m3 17.25 °C 62.43 % 1,020.23 mbar 3.19 m/s 221.42 Deg 6.51 µg/m3 N/A
2023-01-09 09:00 56.27 µg/m3 0.96 µg/m3 28.62 µg/m3 51.92 µg/m3 16.68 µg/m3 0.4 mg/m3 16.23 °C 66.17 % 1,020.02 mbar 1.82 m/s 211.9 Deg 17.01 µg/m3 N/A
2023-01-09 08:00 111.94 µg/m3 5.19 µg/m3 3.65 µg/m3 54.1 µg/m3 35.36 µg/m3 1.87 mg/m3 14.57 °C 71.59 % 1,020.55 mbar 0.7 m/s 213.01 Deg 300.12 µg/m3 N/A
2023-01-09 07:00 88.37 µg/m3 4.81 µg/m3 2.37 µg/m3 43.26 µg/m3 28.85 µg/m3 1.77 mg/m3 13.35 °C 78.14 % 1,020.59 mbar 0.66 m/s 249.33 Deg 280.08 µg/m3 N/A
2023-01-09 06:00 56.46 µg/m3 2.35 µg/m3 1.79 µg/m3 25.95 µg/m3 17.36 µg/m3 0.97 mg/m3 12.91 °C 81.21 % 1,020.61 mbar 0.34 m/s 253.23 Deg 113.47 µg/m3 N/A
2023-01-09 05:00 34.16 µg/m3 0.74 µg/m3 8.28 µg/m3 15.63 µg/m3 11.2 µg/m3 0.29 mg/m3 12.86 °C 80.47 % 1,020.78 mbar 0.3 m/s 244.21 Deg 10.3 µg/m3 N/A
2023-01-09 04:00 32 µg/m3 0.72 µg/m3 14.42 µg/m3 16.06 µg/m3 12.01 µg/m3 0.3 mg/m3 12.93 °C 79.7 % 1,021.04 mbar 0.67 m/s 239.57 Deg 5.39 µg/m3 N/A
2023-01-09 03:00 35.87 µg/m3 0.82 µg/m3 6.42 µg/m3 17.77 µg/m3 13.39 µg/m3 0.43 mg/m3 12.64 °C 81.34 % 1,021.80 mbar 0.52 m/s 227.77 Deg 9.48 µg/m3 N/A
2023-01-09 02:00 42.58 µg/m3 0.79 µg/m3 4.7 µg/m3 19.53 µg/m3 14.31 µg/m3 0.5 mg/m3 12.77 °C 81.04 % 1,022.52 mbar 0.58 m/s 247.15 Deg 10.7 µg/m3 N/A
2023-01-09 01:00 49.65 µg/m3 0.99 µg/m3 2.32 µg/m3 25.82 µg/m3 17.67 µg/m3 0.65 mg/m3 13.07 °C 80.41 % 1,022.99 mbar 0.47 m/s 247.05 Deg 22.38 µg/m3 N/A
2023-01-09 00:00 53 µg/m3 1.12 µg/m3 2.32 µg/m3 26.52 µg/m3 18 µg/m3 0.9 mg/m3 13.3 °C 80.04 % 1,023.28 mbar 0.67 m/s 239.83 Deg 28.13 µg/m3 N/A
2023-01-08 23:00 54.45 µg/m3 1.14 µg/m3 2.36 µg/m3 29.13 µg/m3 19.73 µg/m3 0.8 mg/m3 13.47 °C 79.31 % 1,023.36 mbar 0.83 m/s 232.33 Deg 31.1 µg/m3 N/A
2023-01-08 22:00 56.73 µg/m3 0.98 µg/m3 5.1 µg/m3 26.2 µg/m3 18.09 µg/m3 0.76 mg/m3 13.8 °C 77.84 % 1,023.41 mbar 0.87 m/s 227.65 Deg 20.6 µg/m3 N/A
2023-01-08 21:00 62.83 µg/m3 1.34 µg/m3 3.3 µg/m3 33.82 µg/m3 23.79 µg/m3 0.91 mg/m3 14.24 °C 76.96 % 1,023.46 mbar 0.78 m/s 231.62 Deg 44.43 µg/m3 N/A
2023-01-08 20:00 58.45 µg/m3 0.93 µg/m3 12.5 µg/m3 22.42 µg/m3 15.02 µg/m3 0.72 mg/m3 14.94 °C 75.24 % 1,023.27 mbar 0.64 m/s 215.17 Deg 20.72 µg/m3 N/A
2023-01-08 19:00 50.35 µg/m3 0.63 µg/m3 22.3 µg/m3 20.41 µg/m3 13.89 µg/m3 0.5 mg/m3 15.57 °C 73.26 % 1,022.88 mbar 0.72 m/s 215.78 Deg 6.87 µg/m3 N/A
2023-01-08 18:00 38.36 µg/m3 0.55 µg/m3 39.76 µg/m3 19.09 µg/m3 8.28 µg/m3 0.36 mg/m3 16.08 °C 71.61 % 1,022.57 mbar 1.23 m/s 241.47 Deg 3.5 µg/m3 N/A
2023-01-08 17:00 20.74 µg/m3 0.55 µg/m3 59.68 µg/m3 12.59 µg/m3 5.55 µg/m3 0.24 mg/m3 16.89 °C 68.33 % 1,022.49 mbar 1.95 m/s 252.65 Deg 1.65 µg/m3 N/A
2023-01-08 16:00 13.54 µg/m3 0.55 µg/m3 65.91 µg/m3 15.37 µg/m3 5.63 µg/m3 0.21 mg/m3 17.61 °C 65.66 % 1,022.46 mbar 2.38 m/s 248.63 Deg 1.95 µg/m3 N/A

It is to be noted that the data is provisional and subject to quality assurance procedures. For validated data kindly refer your request to contact.air@era.org.mt